GFSSGP_sfc_wetblb_093.txt.gz
Wetbulb
63.83 59.48 59.59 56.45 48.10 46.26 44.62 49.59 55.37 55.00 56.62 55.35 57.22 56.04 62.10 64.93 63.52 59.05 71.66 75.11 75.57 75.96 76.89 77.02 77.47 77.70 77.55 77.14 77.01 76.83 76.83 76.86 76.89 76.94 77.01 77.25 77.13 77.16 76.81 76.79 76.74 77.02 76.26 75.20 74.07 73.50 73.81 74.15 74.19
60.17 59.19 56.98 52.47 43.81 40.02 45.15 53.57 53.74 54.80 57.93 57.65 57.12 59.88 61.92 63.70 68.64 68.82 71.05 75.04 75.77 75.99 76.19 76.26 77.50 77.52 77.57 77.29 76.83 76.57 76.75 76.78 76.73 76.76 76.93 77.30 77.07 76.90 76.86 76.69 76.39 76.29 74.97 74.04 73.42 73.61 73.95 74.07 74.01
60.45 58.45 49.56 46.76 43.26 42.49 45.23 53.16 56.61 57.70 59.61 57.78 56.48 63.59 64.71 64.09 70.34 69.87 73.72 75.46 75.68 75.28 76.24 76.67 77.65 77.40 77.65 77.54 76.68 76.60 76.70 76.68 76.71 76.73 76.93 77.15 77.02 76.69 76.57 76.51 76.14 75.81 74.28 73.47 73.02 73.47 74.11 74.12 73.77
55.50 54.02 50.94 42.79 41.83 47.66 50.91 53.92 56.53 58.96 59.09 58.42 58.90 62.63 67.39 70.43 70.61 71.77 74.88 75.55 74.39 75.03 76.49 77.62 77.52 77.29 77.52 77.34 76.79 76.65 76.73 76.70 76.66 76.76 76.80 76.90 76.84 76.48 76.41 76.38 75.84 75.36 74.34 73.12 73.21 73.89 74.23 74.54 74.39
52.84 51.18 43.25 40.71 43.63 49.68 53.22 56.31 57.76 57.58 58.40 56.67 61.83 61.19 64.87 69.96 71.31 72.06 74.15 74.72 73.40 74.49 76.05 76.96 77.71 77.44 77.47 77.37 76.89 76.71 76.80 76.45 76.38 76.65 76.85 76.82 76.46 76.18 76.19 76.10 75.74 75.29 74.52 73.74 72.91 72.69 72.21 72.18 72.17
46.67 48.88 40.43 39.92 44.95 50.49 53.60 55.46 56.77 57.63 56.72 58.02 58.50 59.05 60.88 70.21 70.16 70.38 73.70 73.46 73.64 74.88 75.71 76.50 77.69 77.63 77.21 77.17 76.84 76.40 76.27 76.39 76.32 76.35 76.57 76.56 76.25 76.13 75.98 75.77 75.63 75.11 74.49 73.82 72.67 71.71 71.10 70.55 70.30
45.02 42.95 40.77 43.56 46.03 49.65 53.44 56.31 54.29 54.28 54.70 54.95 58.81 55.29 56.69 59.77 69.58 71.19 70.76 72.91 75.07 75.30 74.84 75.45 76.23 77.12 77.55 77.01 76.54 76.44 76.16 76.06 75.93 75.82 75.85 76.15 75.95 75.82 75.75 75.54 75.28 74.79 74.09 73.29 72.07 71.24 70.53 69.82 69.37
47.42 44.26 42.06 45.61 45.89 47.64 53.48 56.68 56.52 54.03 55.26 58.45 59.44 53.51 51.83 56.84 59.17 68.58 70.43 70.76 74.71 75.17 74.46 74.08 74.93 75.85 75.70 76.10 76.85 76.57 76.27 76.10 75.69 75.77 75.90 75.70 75.71 75.63 75.60 74.59 74.66 74.83 73.96 73.10 71.98 71.10 70.39 69.72 69.31
50.88 42.35 41.00 43.69 46.50 49.25 53.49 53.98 57.54 58.13 54.87 56.49 56.32 56.70 57.73 58.52 58.66 58.15 64.24 69.52 74.08 74.81 73.64 73.13 73.86 74.20 74.41 75.17 76.37 76.38 76.86 76.32 75.91 75.77 75.74 74.68 73.84 74.13 74.64 74.06 74.73 74.67 73.93 73.02 72.11 71.09 70.42 70.01 70.03
45.16 42.11 43.11 48.59 50.30 49.84 51.51 50.99 54.28 53.81 53.81 54.43 56.07 58.30 58.95 57.95 56.34 55.70 55.42 60.46 64.32 72.76 72.68 73.02 73.18 73.42 73.25 75.58 75.22 74.67 75.47 74.71 74.89 74.60 74.57 73.51 72.21 72.68 73.54 73.42 74.37 74.29 73.85 73.31 72.33 71.46 70.92 70.55 64.55
44.98 42.09 46.36 49.22 51.21 51.72 50.53 50.33 51.58 49.98 48.85 51.76 53.04 54.26 55.04 55.61 54.42 55.05 55.13 55.25 59.32 66.51 72.61 72.56 72.84 72.77 72.41 72.62 74.42 74.25 74.42 74.29 74.12 73.76 73.93 72.67 72.32 72.69 72.40 70.98 72.57 71.44 72.94 70.21 70.64 69.42 67.45 64.77 63.44
41.59 46.66 47.60 47.65 50.46 50.44 48.66 51.14 51.74 50.38 49.45 52.81 52.88 54.26 54.80 54.07 53.21 54.30 54.53 56.50 55.39 57.62 68.82 72.46 72.33 71.95 71.03 70.87 73.54 73.54 73.72 73.76 73.44 73.48 73.58 72.81 71.93 70.62 70.90 70.17 69.82 69.57 69.58 67.33 66.70 65.81 64.86 63.44 62.90
44.00 45.97 48.40 48.91 48.55 47.06 50.07 48.51 49.17 49.19 51.99 53.49 53.72 53.85 53.25 52.85 52.77 53.64 54.04 55.87 56.20 57.63 70.86 72.26 73.06 70.67 70.63 71.45 73.02 72.57 72.52 73.11 73.39 73.42 73.69 73.39 71.90 70.82 70.06 69.52 68.78 68.88 67.98 66.77 64.24 64.20 64.19 63.43 62.94
46.33 46.90 47.45 47.94 47.94 46.86 47.28 48.01 48.61 49.72 52.30 51.99 51.96 51.92 51.58 52.96 52.94 52.49 54.18 54.20 53.98 57.28 66.91 71.64 71.27 70.51 70.43 72.36 72.30 72.16 71.54 72.07 72.16 72.73 73.31 73.74 72.74 71.40 70.55 68.79 68.46 68.26 67.48 66.92 64.27 64.66 63.69 63.67 64.53
47.93 43.62 46.22 46.68 46.15 46.51 48.15 45.04 46.28 50.25 51.30 50.17 50.51 50.51 52.34 53.10 54.36 54.07 56.05 56.37 56.82 55.59 60.58 69.55 67.21 67.26 68.35 72.90 72.98 73.26 71.59 70.91 71.21 71.13 71.82 72.43 72.24 70.44 70.98 69.85 68.86 68.80 67.46 66.21 65.06 64.02 65.75 65.01 65.63
43.97 43.21 38.17 44.22 47.05 47.89 46.59 40.01 48.05 50.29 49.97 49.58 50.98 51.48 52.34 51.95 52.99 53.54 54.57 55.86 60.09 59.54 60.58 61.72 66.79 72.40 72.93 73.89 73.26 72.83 73.68 72.13 71.14 70.93 70.98 71.49 71.33 70.72 70.10 70.12 69.74 68.78 68.39 66.77 66.22 64.80 65.58 66.58 65.40
40.78 35.26 37.68 41.82 46.20 46.30 44.08 41.15 48.06 49.89 49.27 48.93 49.73 50.79 51.75 51.43 53.35 54.02 54.63 53.95 57.68 57.04 57.81 58.34 60.93 65.45 71.66 73.21 73.84 73.42 72.40 72.67 71.75 71.11 71.02 71.34 71.03 71.41 70.71 70.50 69.50 68.38 67.90 66.93 67.77 65.86 65.96 65.68 64.00
37.69 37.62 40.05 40.70 45.51 46.17 42.55 42.73 46.55 48.41 48.65 48.32 48.68 49.73 50.43 51.20 52.28 54.95 55.41 55.79 55.75 57.86 58.77 58.19 58.12 58.50 63.00 62.42 72.08 73.80 73.26 72.33 73.06 72.18 71.24 70.36 70.34 70.45 71.57 71.41 69.53 68.32 68.02 66.99 66.30 66.09 65.48 65.37 65.05
43.37 41.57 40.67 43.70 46.24 44.38 42.76 42.47 44.67 46.89 47.26 47.00 47.55 48.29 49.39 50.52 52.37 53.37 56.01 56.28 55.96 57.67 56.57 57.46 58.42 59.59 61.80 63.11 66.14 70.70 69.85 71.38 71.24 72.01 71.73 70.21 71.26 70.63 70.40 71.78 69.58 68.97 67.99 67.21 65.58 64.19 64.11 63.86 64.86
43.86 41.25 40.04 44.08 46.59 43.42 42.74 42.44 45.51 46.46 46.91 47.40 47.99 48.59 49.50 49.48 51.17 53.49 54.73 57.08 57.59 57.36 58.53 60.91 61.17 63.10 64.76 64.87 65.45 68.29 70.20 71.74 72.65 72.44 72.10 71.97 70.81 71.78 70.47 70.61 70.56 69.58 68.78 67.01 66.63 66.30 65.07 64.82 64.50
41.88 40.39 41.24 40.92 44.51 44.88 42.79 40.20 43.10 47.28 48.37 49.56 49.73 50.18 50.05 49.97 51.07 53.42 55.14 55.15 55.50 55.87 56.91 58.85 60.53 61.24 60.96 61.68 64.18 61.17 65.66 69.31 69.28 70.08 70.81 71.76 71.86 71.85 71.85 70.82 70.36 69.99 69.13 67.61 66.88 66.71 65.77 64.06 65.19
38.97 45.19 44.63 43.38 40.89 34.43 43.46 31.43 40.68 44.85 46.33 48.32 48.64 48.54 49.28 50.70 51.95 52.53 52.69 53.14 53.87 55.45 57.27 59.35 58.84 58.61 59.36 60.81 60.15 59.35 59.83 60.96 64.00 68.27 70.26 71.16 71.99 71.63 71.24 70.72 70.26 69.07 69.36 68.23 67.02 67.34 66.32 65.26 63.46
41.97 47.24 45.12 44.10 39.16 37.61 39.48 33.97 38.54 44.07 44.32 45.91 47.09 48.94 48.72 49.67 50.63 51.26 52.06 53.68 54.60 55.32 54.63 57.35 58.29 56.99 59.73 58.28 58.99 59.31 58.87 60.51 62.57 64.89 67.68 68.99 70.36 71.41 71.39 71.26 70.13 69.25 68.49 68.63 68.28 66.65 67.17 66.01 64.28
48.30 44.57 43.20 41.32 37.64 30.19 38.39 36.64 37.40 41.90 44.39 45.42 47.08 48.71 49.76 50.41 50.90 51.51 52.39 53.42 53.20 54.15 54.77 54.40 54.51 56.25 58.28 58.71 58.31 58.13 57.83 58.69 59.98 61.69 63.20 66.77 69.09 70.01 70.81 70.85 70.98 70.13 69.65 68.50 68.35 67.91 66.66 67.25 66.05
44.44 37.74 29.74 28.22 28.69 29.78 41.27 38.46 39.32 46.40 46.91 47.18 46.28 47.89 49.15 49.58 49.20 49.50 48.04 50.12 51.09 52.61 53.22 54.13 53.79 54.76 56.59 58.08 58.26 58.43 58.38 59.08 59.38 60.45 62.33 64.48 67.21 68.30 68.84 69.82 69.76 71.05 70.67 70.04 69.91 68.26 67.96 67.54 67.31
42.90 40.83 34.33 26.54 26.96 31.81 41.99 35.47 41.92 46.83 47.98 48.38 49.20 48.42 49.02 47.55 47.52 48.04 48.20 49.89 50.41 50.16 51.66 52.97 52.53 53.33 55.02 55.27 56.43 56.61 57.03 59.22 60.38 61.29 62.36 63.76 65.58 68.26 68.91 69.34 69.78 69.74 70.68 70.95 69.86 69.77 69.69 68.37 69.40
42.09 37.94 42.82 34.78 36.59 30.85 34.98 39.81 45.42 47.92 46.87 47.75 47.34 47.86 46.99 47.86 48.03 48.38 48.30 48.62 50.72 50.71 52.09 53.04 52.96 52.73 54.35 54.76 55.96 54.99 56.47 57.04 58.42 60.34 61.88 63.14 64.88 67.21 67.96 65.15 65.59 67.28 69.10 69.40 65.74 61.17 60.79 67.69 69.26
43.41 45.51 36.04 35.50 27.67 25.10 33.93 36.50 38.09 41.68 42.69 44.64 43.34 42.82 43.99 45.91 46.74 47.05 49.18 50.01 51.14 51.58 51.55 51.46 52.47 53.42 54.34 54.01 55.07 55.45 56.08 57.14 57.30 58.68 59.89 61.24 63.32 62.84 59.52 60.27 60.94 62.85 62.59 62.80 63.88 62.12 60.75 59.38 64.87
41.67 38.23 39.42 39.23 37.11 26.03 25.36 33.30 44.32 41.59 42.36 42.10 42.65 44.41 44.48 44.72 46.18 47.57 48.48 49.19 49.81 50.33 50.46 50.77 51.39 52.73 52.33 52.27 52.16 52.94 54.34 55.73 56.82 56.25 58.42 60.73 60.76 57.16 57.77 59.56 60.46 61.16 60.25 61.88 59.00 59.60 60.29 59.30 59.44
45.35 39.86 40.05 32.80 31.96 33.91 31.81 32.93 46.63 45.49 43.73 43.88 43.36 44.81 44.36 44.21 47.04 46.91 47.53 48.13 48.56 49.15 50.53 49.91 49.87 50.42 50.53 50.82 51.65 51.49 52.23 54.14 54.79 55.38 56.31 58.71 57.50 57.14 58.07 60.21 61.30 61.00 60.61 60.33 58.49 58.79 59.30 58.46 58.06

GFSSGP_sfc_wetblb_096.txt.gz
Wetbulb
63.75 57.92 56.08 54.48 46.38 43.70 41.62 46.63 51.81 52.48 53.83 55.01 61.47 64.12 63.38 63.36 61.39 55.85 70.85 73.58 75.69 75.53 76.17 76.87 77.42 77.50 77.20 76.92 76.91 76.75 76.48 76.44 76.66 76.71 76.55 76.50 76.71 76.76 76.88 76.78 76.84 76.62 75.60 74.77 73.34 73.68 73.96 74.01 73.56
60.88 57.67 54.45 49.98 42.33 37.66 41.22 50.16 50.01 53.36 56.86 57.10 62.04 64.69 64.11 62.59 68.92 69.91 71.15 74.92 75.44 75.64 75.60 76.15 77.49 77.12 77.10 76.76 76.68 76.52 76.41 76.44 76.41 76.57 76.68 76.68 76.40 76.41 76.46 76.43 76.64 75.97 74.91 73.86 73.34 73.65 73.86 73.73 73.61
60.26 56.93 48.09 44.49 40.11 39.58 42.65 51.14 52.18 54.93 57.63 57.37 59.32 65.48 64.14 65.71 69.58 70.60 73.30 75.11 75.59 75.12 75.39 76.22 77.44 77.09 77.02 76.79 76.50 76.36 76.30 76.23 76.36 76.70 76.65 76.65 76.42 76.30 76.17 76.11 75.92 75.33 74.09 73.46 73.37 73.77 74.01 73.99 73.47
53.20 50.35 48.31 41.52 40.01 45.86 48.53 52.16 52.61 54.52 57.98 59.41 64.17 62.75 66.80 69.91 69.62 72.68 74.90 75.20 74.77 75.11 75.54 76.91 77.23 76.91 76.91 76.56 76.46 76.47 76.35 76.20 76.43 76.58 76.57 76.62 76.29 76.11 75.96 76.03 75.76 75.34 73.97 73.13 73.35 73.72 74.32 73.99 73.39
50.73 46.16 40.09 37.92 41.68 47.12 50.95 53.15 53.61 53.69 56.72 58.23 62.27 62.53 64.02 69.30 73.33 74.32 74.15 74.41 74.44 75.18 75.74 76.45 77.20 77.13 76.99 76.77 76.51 76.55 76.43 76.00 76.23 76.40 76.47 76.41 76.18 75.93 75.86 75.77 75.56 74.99 74.24 73.13 72.87 73.32 73.89 73.99 73.45
45.08 44.61 36.99 37.66 42.87 48.59 51.10 53.46 52.55 56.20 55.34 61.02 63.22 61.74 62.73 71.44 72.24 73.02 73.70 73.35 75.20 74.95 75.70 76.14 77.24 77.15 76.70 76.59 76.41 76.19 76.09 76.02 76.12 76.22 76.24 76.28 75.89 75.84 75.80 75.54 75.46 74.92 74.32 73.33 72.65 72.39 71.90 71.45 70.92
42.78 39.53 37.21 39.92 43.04 46.93 50.65 56.23 53.00 54.88 54.08 55.75 57.97 55.15 57.36 65.80 72.08 73.47 72.94 73.10 74.79 75.06 75.00 75.67 76.09 76.50 76.95 76.40 76.01 76.06 75.80 75.71 75.55 75.57 75.50 75.72 75.72 75.64 75.52 75.18 75.05 74.61 74.09 73.17 72.28 71.38 70.78 70.03 69.56
44.91 41.38 37.48 40.05 42.82 44.90 50.59 54.85 55.81 54.42 54.53 59.55 59.49 52.88 51.02 56.51 68.23 71.95 72.19 72.68 73.73 73.96 74.14 74.69 75.41 76.03 75.52 75.41 76.27 75.98 75.84 75.64 75.28 75.51 75.56 75.39 75.41 75.37 75.20 74.23 74.38 74.53 73.99 73.07 72.03 71.22 70.54 69.81 69.30
46.19 37.58 37.30 39.07 41.97 45.57 52.05 52.47 57.59 58.83 55.40 55.85 56.95 55.93 57.21 57.71 57.67 65.78 70.07 71.96 72.80 72.92 73.02 74.04 74.50 74.89 75.01 75.17 75.85 76.10 76.24 75.95 75.62 75.59 75.51 74.41 73.76 73.93 74.16 74.08 74.37 74.54 73.83 73.17 72.21 71.32 70.63 70.18 69.92
40.25 38.16 39.31 44.08 46.19 47.69 49.77 51.41 53.57 52.98 52.52 52.83 55.50 56.70 57.35 56.75 55.02 63.77 67.76 70.21 71.97 72.06 72.05 72.87 73.59 73.93 74.19 75.49 75.33 75.12 75.10 75.24 74.77 74.53 74.32 73.54 72.55 72.84 73.52 73.61 74.38 74.31 73.98 73.24 72.35 71.49 70.83 70.40 64.08
40.03 38.62 44.01 46.49 47.48 50.03 49.85 49.78 54.15 50.46 48.16 51.34 49.01 52.77 54.41 53.85 53.05 53.95 56.61 67.52 70.60 72.73 72.52 72.03 72.51 73.05 73.28 73.82 74.56 74.36 74.64 74.07 74.53 74.34 73.84 72.51 72.14 72.21 72.41 71.43 72.35 71.92 73.16 70.26 70.70 69.05 67.08 65.09 63.43
36.98 43.61 44.74 46.29 47.68 50.14 49.11 49.75 51.22 53.12 51.68 52.18 51.93 52.22 52.71 51.67 50.91 51.85 53.09 54.10 58.13 71.01 71.91 71.99 72.28 72.33 72.50 74.06 73.77 73.66 73.90 73.58 73.45 73.64 73.32 72.06 71.03 70.66 70.81 70.55 70.10 70.07 69.85 68.27 67.86 66.67 65.53 63.99 62.51
38.93 42.99 45.05 47.01 47.16 45.72 48.80 49.87 51.22 51.46 56.10 53.32 52.89 52.90 51.24 50.59 50.91 52.16 52.98 54.07 56.14 62.71 70.71 71.31 71.66 71.54 71.62 71.57 73.34 72.99 73.00 73.32 73.17 73.21 73.22 72.58 71.39 70.53 70.84 69.94 69.79 69.73 68.83 67.74 65.78 65.47 64.68 63.52 62.44
43.09 44.15 45.23 45.45 46.01 44.42 44.97 46.48 48.05 49.95 52.16 51.52 51.60 51.24 50.77 52.31 53.98 52.02 51.26 53.26 53.70 66.03 69.60 71.12 71.08 70.77 69.90 69.69 71.81 72.00 72.40 72.85 72.93 72.85 72.68 72.66 71.45 71.08 70.53 69.84 69.24 68.95 68.34 67.62 65.71 64.10 63.48 62.46 61.78
44.53 41.09 43.28 45.04 44.46 44.42 45.82 43.05 44.44 49.66 50.70 49.92 50.08 49.07 50.66 51.52 54.07 54.35 54.43 52.89 56.21 59.19 69.46 70.40 70.75 68.68 65.86 67.87 71.25 71.64 71.54 72.08 72.08 72.52 72.64 72.97 72.63 71.44 70.99 69.30 69.17 69.11 68.24 66.88 65.72 63.58 62.72 61.68 62.63
41.68 40.50 37.71 42.95 45.09 46.33 45.45 39.45 47.05 49.81 49.04 48.73 49.36 49.54 50.26 51.26 51.67 52.08 53.32 56.83 58.45 62.09 67.07 68.35 70.73 68.27 65.06 67.33 71.04 71.61 70.41 69.50 71.30 71.53 72.11 72.68 73.12 72.52 70.47 70.19 68.89 68.86 67.85 66.53 65.53 64.02 62.30 63.07 62.44
37.83 34.13 35.99 39.92 44.38 44.64 42.85 39.71 46.71 49.05 48.11 47.41 48.24 48.73 50.18 50.23 51.00 51.83 52.56 55.34 57.31 59.81 60.52 63.34 65.27 67.07 67.58 70.41 72.37 72.21 72.61 70.97 69.92 70.01 70.26 71.29 72.03 72.38 71.07 70.16 70.16 68.43 68.13 66.81 65.29 63.19 61.05 61.34 63.94
35.27 35.50 37.29 38.00 42.63 42.10 40.02 41.50 44.53 47.25 47.16 47.02 47.75 48.66 49.73 50.15 50.96 52.52 53.40 52.93 54.47 55.11 54.85 55.57 57.43 61.07 60.34 61.22 66.09 71.53 70.88 71.85 70.70 70.83 69.67 69.85 69.77 70.35 70.31 70.36 69.08 68.87 67.12 66.95 64.60 64.62 63.55 62.91 63.53
40.90 39.58 38.25 40.74 44.64 42.67 41.98 42.32 43.62 44.60 45.28 44.41 45.21 46.12 47.26 49.07 51.01 53.04 55.44 56.09 57.52 58.34 58.82 58.85 59.86 59.49 60.40 61.61 61.82 65.58 68.27 69.55 70.26 69.91 70.79 70.25 69.66 69.98 69.16 70.14 70.01 68.88 68.13 67.71 66.06 66.02 65.34 64.53 63.44
42.30 39.12 38.44 41.81 44.76 41.41 40.41 40.32 43.16 44.69 44.88 45.46 46.38 46.49 47.25 47.39 51.23 54.00 54.42 54.87 54.78 55.38 56.30 57.49 58.27 58.80 60.18 61.64 62.42 64.44 63.43 66.29 69.39 70.80 70.87 70.27 70.03 69.76 69.42 68.61 69.11 69.72 68.83 67.91 66.11 65.56 63.70 64.42 63.94
41.07 39.02 39.27 39.68 42.87 42.76 40.74 38.45 41.28 45.28 46.53 47.42 47.24 47.39 47.79 50.17 50.56 51.56 52.92 52.93 53.29 54.76 56.62 57.00 56.25 56.53 57.48 59.54 59.08 58.70 59.06 59.82 61.40 63.89 66.99 69.12 70.10 70.25 70.11 70.05 69.16 69.62 69.68 68.12 67.34 66.38 65.66 64.02 62.56
36.99 43.26 43.89 42.70 38.48 33.35 41.18 30.81 37.96 42.37 43.75 45.93 46.08 47.03 48.39 49.25 49.72 50.65 50.62 51.52 53.64 53.96 56.71 56.18 55.99 56.08 58.48 58.00 56.64 56.83 56.85 56.01 58.06 59.34 62.87 64.95 67.32 68.51 69.90 70.15 70.06 69.52 69.91 69.39 68.36 67.47 66.39 65.37 63.60
40.14 45.77 43.57 42.39 37.02 34.63 36.63 32.62 36.69 40.85 41.06 43.10 44.55 46.28 46.93 48.03 49.00 49.35 50.64 51.76 52.37 52.65 55.18 55.67 54.20 56.11 57.56 56.05 56.77 56.37 55.86 56.99 58.01 59.06 58.97 59.19 61.89 66.62 68.61 69.42 69.69 69.45 69.07 69.10 69.12 67.90 66.09 66.29 65.67
46.69 42.48 39.96 38.21 34.75 28.68 35.05 34.21 34.01 37.97 41.39 42.90 44.81 46.43 48.06 47.81 48.88 49.72 50.70 51.14 51.51 52.11 52.07 52.07 52.62 53.62 55.44 57.00 55.75 55.31 54.96 54.90 55.15 56.11 56.63 58.23 60.45 62.37 65.16 67.83 68.81 68.46 68.90 68.94 69.01 68.34 67.36 66.18 65.96
42.19 35.54 27.95 27.27 27.47 28.01 38.93 35.47 36.23 42.30 44.48 45.11 44.67 46.49 47.70 48.16 48.07 48.57 48.26 48.75 48.55 49.94 51.26 52.03 51.68 51.25 52.35 54.00 55.23 54.71 54.99 54.62 54.94 56.21 56.64 57.75 59.66 61.23 62.58 65.07 67.39 68.09 68.35 68.56 69.10 68.04 67.57 66.67 65.87
39.84 37.23 29.68 25.42 26.19 29.75 38.17 33.40 39.35 44.87 46.30 47.56 48.83 47.84 47.47 46.64 46.57 48.06 49.04 48.87 48.60 49.83 49.77 50.41 51.37 50.50 51.31 52.87 53.73 53.69 54.98 54.09 55.76 56.59 58.00 57.96 59.41 60.09 61.73 63.45 65.66 67.79 68.10 67.86 67.53 67.63 67.79 67.23 66.51
40.36 35.28 40.26 33.89 34.86 29.72 33.00 38.10 43.28 45.98 46.40 47.09 46.14 46.54 45.85 46.03 45.87 46.18 47.40 46.89 46.37 48.58 49.26 50.52 50.32 50.36 50.69 51.14 52.42 53.47 53.20 52.64 54.24 56.02 57.15 57.98 58.21 60.52 61.46 62.45 64.14 65.36 66.38 66.80 66.56 66.25 66.36 64.85 62.15
42.73 44.73 34.25 33.64 27.26 24.72 32.90 36.08 36.86 40.10 42.49 44.61 44.04 43.88 44.40 45.87 45.81 45.11 46.37 46.88 47.51 47.46 47.99 48.73 49.08 48.72 48.96 49.07 49.41 50.47 50.60 52.46 54.51 55.07 55.58 55.72 56.99 58.69 59.04 59.37 60.50 61.66 63.14 63.35 63.02 63.07 63.58 63.32 62.87
39.56 37.97 38.33 36.84 35.53 25.78 24.23 31.74 42.16 41.67 40.91 41.55 42.60 43.75 42.22 41.61 43.15 44.48 45.16 45.52 46.13 46.71 46.84 46.75 47.37 47.44 47.35 47.71 47.99 48.06 48.61 49.58 50.86 53.31 54.42 55.13 56.53 57.49 56.99 57.82 58.54 59.77 61.27 60.67 59.34 59.61 60.54 58.51 59.00
41.79 38.91 36.88 31.18 30.15 32.62 30.04 30.69 45.43 44.83 44.35 42.51 41.58 43.50 42.92 43.44 43.22 43.38 43.79 44.86 45.16 45.62 46.02 46.04 46.49 46.18 46.39 46.67 46.85 46.78 47.03 47.61 48.08 49.03 50.20 52.41 53.75 56.70 56.50 57.09 57.88 58.93 60.34 59.98 58.38 58.60 59.13 56.43 56.67

GFSSGP_sfc_wetblb_102.txt.gz
Wetbulb
63.67 59.33 53.53 52.74 44.72 42.63 39.49 44.46 48.76 50.13 51.55 53.85 59.40 60.59 59.64 60.48 58.78 53.88 69.83 73.19 74.20 74.18 74.74 76.39 77.00 77.11 77.23 77.00 76.88 76.75 76.64 76.52 76.55 76.57 76.60 76.60 76.72 76.75 76.67 76.47 76.40 76.43 74.98 74.00 73.70 73.68 73.93 73.77 73.67
61.42 56.19 51.67 47.21 40.78 36.14 39.89 45.96 47.19 50.08 52.73 54.26 55.30 60.41 61.97 61.05 68.83 68.66 69.57 74.03 74.41 74.38 74.98 75.62 77.08 76.80 77.08 76.75 76.39 76.19 76.32 76.29 76.29 76.37 76.35 76.57 76.44 76.39 76.44 76.37 76.28 75.53 74.49 73.43 73.62 73.91 74.14 73.67 73.45
55.06 53.19 47.15 43.06 37.95 37.37 40.57 47.81 49.69 50.73 52.81 52.88 53.68 63.49 62.75 63.34 69.53 69.18 72.63 74.18 74.32 74.16 75.07 75.44 76.85 76.60 76.63 76.38 76.19 75.97 75.97 76.07 76.05 76.20 76.32 76.42 76.26 76.21 76.08 76.16 76.00 75.27 74.17 73.23 73.59 74.18 74.53 74.28 73.75
50.10 48.67 45.80 39.47 38.04 41.91 46.18 50.01 48.98 49.68 51.69 53.26 55.12 60.21 65.15 69.59 70.07 72.26 74.28 74.48 73.49 73.93 74.74 76.14 76.76 76.49 76.40 76.20 76.24 75.89 75.84 75.82 75.84 76.12 76.07 76.21 76.18 76.15 76.04 76.15 75.84 75.48 73.84 73.24 73.98 74.59 74.58 74.48 73.98
47.08 43.97 37.88 35.08 38.86 43.18 48.01 51.19 49.32 48.83 51.12 50.43 58.32 60.58 62.10 70.87 73.33 73.87 73.83 73.93 72.75 73.35 74.56 75.67 76.61 76.51 76.47 76.06 76.05 75.92 75.92 75.64 75.74 75.89 75.99 75.99 75.80 75.71 75.62 75.53 75.25 74.83 74.46 73.88 73.83 74.36 74.48 74.10 73.91
42.48 41.91 34.29 34.60 38.28 44.68 47.70 49.63 50.96 50.17 51.57 59.91 61.52 60.48 61.18 71.75 72.32 73.07 73.43 72.81 73.65 73.43 74.89 75.17 76.32 76.31 76.08 76.04 75.89 75.64 75.56 75.50 75.53 75.43 75.41 75.58 75.49 75.41 75.45 75.38 75.14 74.73 74.18 73.90 73.85 74.16 74.09 73.60 73.41
40.16 37.29 34.16 35.15 38.71 43.24 46.49 49.95 48.93 50.92 54.02 54.74 57.98 57.66 60.18 68.85 71.28 72.94 72.63 73.01 73.30 73.97 74.25 74.82 74.91 75.52 76.04 75.95 75.54 75.53 75.10 75.22 75.27 75.11 75.14 75.09 75.24 75.24 75.21 75.02 75.03 74.62 74.03 73.58 73.53 73.55 73.60 73.47 73.15
41.50 39.63 34.29 36.57 39.09 41.20 46.72 48.98 50.25 51.62 54.40 57.12 58.40 56.81 58.95 66.43 71.36 71.75 72.74 72.53 72.42 73.62 73.60 73.74 74.60 74.20 74.41 74.79 75.89 75.45 75.22 75.09 74.98 74.96 75.06 74.91 75.09 75.15 75.15 74.08 74.41 74.61 74.09 73.43 73.06 72.49 72.07 71.85 71.73
42.40 35.06 31.04 35.53 39.25 41.19 45.44 45.26 50.04 55.31 54.99 56.19 55.74 54.05 59.74 70.37 70.13 70.32 70.81 71.18 71.97 72.55 72.15 73.13 73.36 73.79 73.34 73.84 74.75 75.34 75.59 75.30 74.79 74.89 74.91 74.02 73.39 73.74 74.13 74.01 74.05 74.52 74.16 73.74 72.98 72.34 71.53 71.18 71.13
39.29 33.05 35.24 40.83 41.87 41.83 44.52 44.54 47.56 51.01 51.46 54.30 55.78 54.22 62.70 70.03 68.78 68.10 69.20 68.96 70.11 70.78 71.45 72.69 73.04 73.07 72.26 73.06 72.81 73.47 73.80 73.96 73.59 73.75 73.85 72.87 72.25 72.07 72.82 73.53 74.18 74.36 74.34 73.98 73.39 72.63 71.97 71.31 67.24
35.41 33.67 39.55 40.73 43.96 44.77 43.63 44.95 48.42 49.68 48.93 52.75 53.71 49.83 55.13 64.62 67.05 67.17 68.18 69.17 69.48 70.71 71.55 72.43 72.68 72.88 72.17 71.63 72.13 72.34 72.49 73.37 73.17 72.94 72.88 72.39 71.97 72.08 72.72 71.85 72.67 72.50 73.33 72.08 72.02 71.26 70.16 68.00 65.99
33.60 38.92 41.42 42.24 45.04 44.08 42.39 45.85 46.30 51.02 52.32 55.43 53.86 53.71 50.73 55.45 63.36 66.38 67.44 68.65 69.17 70.12 70.64 72.08 72.62 72.86 72.24 72.09 72.66 71.97 72.43 72.82 72.53 73.14 72.98 72.54 71.38 70.63 70.97 70.77 70.56 70.59 70.63 70.38 69.38 68.46 67.85 66.39 65.54
34.89 38.96 40.45 43.19 43.84 42.42 44.31 45.02 44.94 48.79 53.40 56.05 54.81 55.85 53.74 49.87 54.30 61.13 66.76 68.22 69.39 70.13 70.61 71.28 72.59 72.40 72.36 71.42 72.47 71.77 72.00 72.64 72.39 72.39 72.54 72.36 71.17 70.29 70.70 70.58 70.22 70.12 70.33 69.85 68.60 67.70 67.25 66.02 65.25
38.96 39.83 41.36 41.41 40.36 39.59 41.24 42.26 44.62 49.07 52.46 53.88 54.14 54.14 54.44 50.76 49.92 50.60 54.45 60.98 62.57 70.04 70.70 70.80 71.36 71.93 71.88 71.54 71.63 71.79 72.17 72.57 72.46 71.93 72.34 72.26 72.06 70.65 70.17 70.01 70.14 69.77 70.01 69.56 69.00 67.97 67.19 66.14 65.11
41.17 36.97 37.41 39.72 41.80 39.32 42.00 39.60 42.20 47.10 49.55 53.01 53.76 55.93 55.81 56.29 52.06 50.48 51.44 52.12 54.04 63.59 70.84 70.36 70.41 71.03 70.64 70.90 71.08 71.25 71.70 72.15 72.46 72.33 72.44 72.32 71.97 70.69 70.03 69.73 69.60 69.63 69.68 69.37 68.39 68.00 66.86 65.21 64.31
37.44 36.36 30.99 38.82 39.70 41.34 42.09 36.10 43.45 46.34 47.75 50.17 51.87 53.80 54.75 55.95 51.47 50.87 53.18 53.37 54.73 59.53 65.95 69.30 71.20 69.09 67.99 68.04 70.69 71.20 71.55 71.66 72.14 71.95 72.21 72.49 72.48 71.59 70.33 69.84 69.37 70.44 69.98 68.85 68.26 67.90 66.07 65.06 64.67
33.80 30.49 31.65 36.11 40.07 40.21 40.82 37.22 44.36 46.79 46.98 48.54 51.96 53.41 55.03 54.44 56.30 57.35 52.92 56.61 58.67 63.24 66.63 68.33 68.92 67.73 67.26 68.19 69.39 70.48 70.77 70.81 71.74 71.63 71.70 72.05 72.18 72.38 71.21 70.43 70.49 70.11 69.62 68.74 68.55 67.99 67.03 67.10 65.64
31.49 31.20 33.76 34.25 38.48 39.37 38.05 39.84 45.50 47.99 45.68 48.15 50.62 51.98 54.14 53.06 54.19 54.83 52.35 56.43 58.31 60.63 63.58 64.22 64.65 65.60 66.53 66.83 67.61 70.11 70.90 70.29 69.19 69.48 69.68 69.83 70.76 71.89 71.40 71.50 70.95 70.60 69.12 68.62 67.88 67.39 67.28 66.53 66.63
37.65 35.88 35.31 38.46 41.33 38.52 37.24 37.98 41.87 43.13 43.11 42.75 45.63 47.32 49.00 48.51 52.29 52.67 53.11 55.97 56.63 57.86 60.13 60.31 59.98 60.03 61.52 61.80 63.73 62.87 63.49 65.68 67.84 69.71 70.35 70.18 69.33 69.84 69.79 70.04 70.36 70.07 68.67 68.73 68.53 67.73 66.69 66.40 65.75
38.36 35.58 35.63 39.29 41.17 38.73 37.46 37.69 40.13 40.79 42.34 43.01 44.53 45.38 45.71 49.12 51.59 52.63 53.17 54.72 56.00 55.72 57.44 59.01 60.61 61.13 60.41 60.54 61.37 59.97 60.77 61.20 64.17 64.24 66.42 68.99 69.39 69.30 68.98 68.38 68.38 68.90 69.08 69.03 68.96 67.63 66.74 66.17 67.01
37.19 35.47 35.65 37.20 40.12 40.13 37.16 35.64 37.13 40.71 43.07 44.27 44.09 45.28 47.99 49.61 50.20 51.47 53.30 53.59 54.78 56.23 57.45 57.07 56.56 57.00 57.26 57.63 56.66 56.25 56.86 56.84 56.93 58.14 60.63 62.35 64.49 65.70 67.00 67.23 67.54 67.68 67.92 67.79 68.11 68.42 67.68 66.16 67.56
34.77 40.55 39.98 38.66 35.75 31.22 36.97 29.07 35.16 38.47 40.44 43.54 44.30 43.96 46.94 49.34 50.42 50.66 51.99 52.71 53.79 53.59 54.28 55.04 56.05 56.44 56.73 56.60 55.53 55.28 53.84 53.44 54.77 56.90 58.87 60.01 60.89 61.81 63.24 64.63 65.58 66.67 67.56 67.74 67.72 68.49 68.06 67.68 64.72
38.36 42.01 39.80 38.30 34.08 31.56 34.26 30.71 34.10 37.34 37.90 40.50 42.62 44.52 45.70 46.94 48.50 50.02 51.49 52.99 54.00 53.90 53.52 54.70 55.54 55.93 56.37 55.81 55.60 55.08 54.50 54.75 55.23 56.32 56.76 56.74 57.82 59.34 61.02 62.02 62.34 63.36 65.13 66.62 67.25 67.63 67.59 67.75 66.46
43.46 38.91 36.40 34.01 31.55 27.61 31.49 31.54 31.88 35.47 37.88 40.14 42.49 44.18 45.77 46.79 49.11 49.88 50.75 52.20 53.22 53.28 52.42 51.85 52.95 51.12 52.37 53.83 54.21 53.29 52.79 52.19 52.52 53.42 53.47 54.44 55.56 57.09 59.31 60.69 61.51 62.08 63.20 64.43 65.66 66.53 67.07 66.76 66.38
38.57 33.59 25.89 25.56 25.73 26.03 33.63 31.66 33.91 38.70 41.96 42.84 42.78 43.83 45.43 47.19 47.05 47.64 48.65 48.89 49.71 49.86 48.26 50.04 48.60 47.87 48.62 49.45 50.11 50.58 50.64 51.39 51.81 52.08 52.40 52.76 53.76 55.87 57.57 58.92 59.24 59.80 61.46 63.10 64.16 65.00 65.46 65.48 64.81
36.11 34.70 26.91 23.60 23.90 26.48 34.57 30.07 35.94 41.76 43.11 44.37 44.89 44.86 45.22 45.42 45.02 44.56 45.43 45.10 44.67 46.28 47.07 47.47 47.20 46.91 47.41 47.67 47.80 48.33 48.67 48.87 49.65 51.01 50.90 51.87 54.07 55.60 57.82 58.59 59.44 59.89 60.77 61.49 62.37 63.34 64.00 64.49 64.38
37.20 33.50 36.38 30.36 29.71 26.61 29.71 34.37 39.89 42.53 42.08 43.42 43.52 44.29 43.77 41.98 43.07 43.60 43.48 44.37 45.17 45.67 46.05 46.24 46.31 46.69 47.37 47.51 47.26 47.27 47.70 47.76 47.55 48.55 49.85 50.87 52.71 53.60 54.69 56.10 56.63 58.14 59.06 59.17 59.53 60.37 61.31 62.54 63.70
40.34 41.30 32.20 30.32 24.97 23.54 28.54 31.13 32.80 38.03 40.20 42.01 41.61 41.12 42.24 42.38 42.29 43.39 44.18 44.81 45.45 45.55 45.66 46.32 46.62 46.62 46.91 46.52 46.10 47.11 46.52 47.09 47.08 47.63 47.68 48.70 49.48 51.62 52.25 52.50 53.60 55.11 56.32 57.39 58.01 58.66 60.34 61.25 62.18
39.89 35.94 34.62 33.73 30.12 24.39 23.47 29.38 38.40 39.57 40.11 39.77 40.17 39.69 38.84 39.84 41.06 42.00 43.39 44.51 44.80 44.95 45.12 45.29 45.36 45.58 45.19 45.33 45.39 45.34 45.46 45.83 46.40 46.21 46.56 47.37 48.22 49.42 49.88 49.86 50.30 51.31 52.85 54.77 56.34 57.86 58.58 59.28 59.96
39.33 36.60 35.05 29.95 30.20 30.15 28.29 29.82 42.18 41.75 41.66 39.82 39.34 39.87 39.56 40.68 40.97 41.36 42.23 43.08 43.29 43.40 43.96 44.42 44.98 44.59 44.89 45.13 44.98 44.59 44.44 45.29 44.78 45.22 45.96 47.10 46.84 47.89 47.93 48.67 49.47 50.09 50.29 51.94 53.87 55.62 57.05 57.80 58.31

GFSSGP_sfc_wetblb_105.txt.gz
Wetbulb
64.33 63.45 59.93 59.10 51.94 52.35 49.78 51.50 54.84 55.46 56.50 58.91 58.63 59.51 62.51 65.09 62.62 60.67 73.56 74.82 75.12 75.76 77.18 76.92 77.17 77.45 77.53 77.45 77.34 77.24 77.14 77.27 77.12 76.89 76.52 76.49 76.44 76.66 76.81 76.63 76.61 76.75 75.62 74.63 74.04 73.80 74.03 74.11 74.32
63.69 58.58 58.70 55.95 49.23 46.70 49.83 52.55 53.10 55.62 57.35 57.64 58.35 62.59 64.45 64.40 70.03 70.67 72.05 75.22 75.76 76.35 77.10 76.36 77.19 77.32 77.35 77.25 76.91 76.81 76.96 76.98 76.73 76.71 76.61 76.51 76.66 76.56 76.61 76.61 76.42 75.61 74.67 73.91 73.64 73.89 73.80 74.00 74.36
58.74 56.60 54.90 51.56 48.53 45.76 48.30 52.64 54.61 54.26 55.69 56.08 56.37 62.36 65.80 66.33 70.82 72.05 74.60 75.59 75.80 75.82 76.60 76.71 76.97 77.04 77.20 76.67 76.48 76.33 76.33 76.48 76.56 76.61 76.59 76.46 76.43 76.50 76.38 76.33 76.14 75.28 74.20 73.49 73.87 74.33 74.88 74.63 74.28
56.03 56.30 53.83 47.76 45.89 48.37 50.52 53.29 52.84 54.15 56.51 56.71 57.32 58.52 67.91 72.36 71.49 73.58 75.67 75.71 75.15 75.61 76.21 76.69 76.68 76.68 76.81 76.62 76.39 76.25 76.15 76.23 76.23 76.44 76.38 76.25 76.33 76.19 76.01 76.25 76.09 75.41 73.99 73.51 74.24 75.10 74.74 74.55 74.13
55.20 54.11 48.03 46.00 46.58 48.55 51.44 52.65 53.49 53.12 54.58 56.14 61.64 60.70 65.80 72.47 74.87 75.51 75.29 75.25 74.63 75.33 76.28 76.49 76.43 76.48 76.61 76.69 76.36 76.06 75.88 75.85 75.98 76.21 76.20 76.23 76.14 76.01 75.98 75.97 75.81 75.26 74.51 74.13 74.51 74.66 74.72 74.59 74.22
50.95 51.91 44.74 42.95 45.86 48.19 51.08 53.69 53.09 52.34 54.45 57.93 63.32 63.91 66.08 73.72 74.10 74.79 75.43 75.02 75.13 75.02 76.05 76.11 76.29 76.25 76.18 76.23 76.06 75.60 75.52 75.62 75.63 75.83 75.90 76.00 75.86 75.63 75.69 75.65 75.33 75.07 74.66 74.40 74.51 74.42 74.29 74.14 73.84
48.36 47.01 43.30 44.38 45.02 47.22 49.93 53.94 52.50 52.76 53.48 58.82 62.42 62.47 65.59 71.52 74.11 75.24 75.29 75.15 75.12 75.44 75.79 75.65 75.24 75.76 76.07 75.95 75.60 75.35 75.24 75.19 74.99 74.93 75.21 75.31 75.39 75.26 75.16 75.17 75.10 74.81 74.47 74.04 74.02 74.09 73.91 73.66 73.57
50.25 48.67 43.08 44.12 43.56 44.66 50.80 52.36 54.11 54.12 53.58 59.90 59.49 57.41 60.03 70.86 74.51 74.94 74.74 74.51 74.64 75.21 75.34 75.24 75.00 74.59 74.46 75.27 75.72 75.39 75.22 75.14 74.83 74.76 74.83 74.83 75.04 75.14 74.96 74.14 74.59 74.65 74.11 73.69 73.37 73.22 72.95 72.73 72.75
49.28 43.52 40.94 42.44 43.64 45.88 51.06 50.05 53.57 56.08 56.70 58.38 58.41 56.03 59.60 72.14 73.79 73.52 73.12 73.17 73.66 74.01 74.94 75.45 75.16 74.94 74.31 73.96 74.95 75.44 75.26 75.44 74.85 74.99 74.98 74.22 73.74 74.47 74.91 74.22 74.51 74.67 74.30 73.69 73.24 72.65 71.96 71.52 71.51
47.74 42.74 42.43 46.23 47.63 47.17 49.53 50.38 52.11 52.26 53.60 55.31 56.72 58.33 70.02 72.18 72.50 71.33 71.13 71.31 72.05 72.64 73.61 74.71 74.83 74.60 74.21 73.64 74.79 74.93 74.73 74.85 74.73 74.64 74.91 74.20 74.48 74.64 73.96 74.38 74.04 74.24 74.25 73.93 73.60 73.19 72.43 71.30 68.46
44.69 42.79 45.49 46.57 48.99 49.99 48.66 49.46 51.51 51.23 51.01 54.38 55.72 55.45 60.78 70.23 71.37 70.76 71.00 71.08 71.82 72.99 73.69 74.36 75.01 75.36 74.26 73.19 74.10 74.50 74.67 74.92 75.02 75.21 75.25 75.07 74.41 74.22 73.70 73.42 73.63 73.95 73.66 73.05 72.98 72.93 72.02 71.21 70.53
42.37 44.85 46.56 47.06 48.84 49.16 48.19 50.26 49.32 51.03 52.66 56.08 57.19 57.46 57.61 59.76 68.46 71.09 70.87 71.36 71.70 72.42 73.50 74.40 75.13 75.01 74.85 73.52 73.50 73.85 73.82 74.37 74.19 74.50 75.15 74.66 73.86 73.95 73.69 73.37 73.32 73.97 73.32 73.13 73.20 71.93 72.31 72.00 71.14
43.41 44.46 45.47 47.48 48.11 48.15 48.77 47.25 47.71 49.20 52.93 55.67 56.48 58.61 57.57 57.90 57.63 63.85 71.29 72.79 72.90 72.08 73.08 73.95 74.96 75.10 74.88 74.37 73.72 73.80 73.44 73.87 74.26 74.60 74.96 74.85 73.80 73.63 73.75 73.58 73.68 73.44 73.40 73.22 72.92 72.49 72.24 71.81 71.38
44.93 44.79 44.89 45.92 46.27 47.29 46.35 46.67 47.62 48.56 51.63 52.06 54.40 55.97 57.55 58.86 59.13 59.44 60.59 70.52 72.40 72.99 73.03 73.98 74.47 75.32 75.12 74.50 74.58 74.23 74.49 74.48 74.71 74.11 74.74 74.95 73.99 73.24 73.80 73.60 73.34 73.28 73.29 73.21 72.76 72.15 72.02 71.80 71.82
46.19 43.38 46.22 45.36 45.28 44.70 46.75 43.56 44.59 48.98 50.77 51.13 54.73 57.23 58.65 59.94 60.55 60.79 61.47 59.07 68.74 72.16 73.72 74.15 74.09 75.44 74.93 74.72 74.82 74.89 74.69 74.86 74.84 74.77 75.77 75.49 74.76 73.27 73.39 73.62 73.52 73.58 73.91 73.84 73.62 73.07 72.95 72.27 72.10
43.98 42.76 41.40 47.33 45.29 45.17 45.05 39.37 46.14 50.06 50.21 49.97 51.61 53.47 56.49 59.70 60.22 61.18 60.67 60.08 60.58 61.32 68.56 74.12 73.75 74.03 74.56 74.66 74.46 74.61 75.01 74.99 74.96 75.13 75.24 75.32 74.98 74.32 73.17 73.66 73.61 74.46 74.31 73.69 72.92 72.75 72.07 72.02 71.84
41.97 40.10 40.20 43.10 46.07 45.24 44.06 41.96 47.32 50.31 49.93 50.03 52.33 54.68 55.98 58.87 61.13 63.81 62.65 60.58 62.93 63.99 66.87 71.32 73.52 72.58 73.24 73.73 74.34 74.22 74.94 74.57 74.86 75.02 75.06 75.29 75.10 75.14 73.87 74.13 74.53 75.07 74.12 73.83 73.17 72.99 72.15 71.37 71.69
39.59 38.93 40.85 41.19 44.85 44.43 43.29 43.58 47.29 49.47 49.60 50.40 52.89 53.12 54.29 57.22 59.60 62.48 62.16 61.05 63.50 66.37 70.09 71.69 72.00 71.99 71.92 72.60 73.42 73.65 73.85 73.99 74.56 74.78 74.98 75.51 75.57 75.10 74.34 73.96 73.54 74.14 73.16 72.76 72.42 72.25 72.83 72.04 71.72
43.00 42.04 41.52 44.73 46.88 43.79 43.53 43.86 46.10 48.90 50.32 50.83 52.22 52.54 55.05 57.71 61.17 62.57 58.62 60.94 63.62 66.56 69.04 70.35 69.53 70.07 69.40 69.43 70.23 71.32 71.65 73.10 74.19 74.60 74.44 74.22 74.01 74.13 74.24 73.73 73.75 73.53 72.03 72.25 72.36 71.44 70.52 70.36 71.08
42.57 41.17 41.65 44.85 45.77 44.27 44.11 43.58 46.94 47.83 49.07 51.93 51.04 53.02 54.69 57.13 58.49 57.68 57.32 60.46 62.80 64.40 65.69 66.29 66.81 68.30 69.96 68.98 68.41 68.41 67.31 67.34 69.32 69.87 71.51 72.35 71.83 71.80 71.67 70.88 69.10 69.67 67.84 69.40 69.34 69.40 67.45 67.40 68.73
42.44 41.43 42.01 41.88 45.03 45.46 43.40 42.65 44.57 47.48 48.16 49.48 50.72 53.49 54.27 55.80 55.22 56.06 57.07 59.36 60.08 62.50 63.81 64.71 65.03 66.27 67.27 66.10 64.26 64.15 64.48 64.74 64.71 64.48 65.22 67.52 68.05 68.30 69.03 68.92 68.38 68.43 68.42 65.14 67.77 67.91 67.80 64.47 66.32
40.56 45.22 44.28 43.49 42.09 39.64 44.07 38.54 43.67 45.52 46.53 47.65 50.20 51.39 52.48 53.59 55.73 56.04 57.44 58.71 59.83 61.15 62.13 62.67 63.79 64.69 64.54 65.28 65.60 66.58 63.14 61.32 62.37 64.02 65.08 65.73 66.20 66.20 66.52 67.55 67.49 67.86 66.00 66.95 66.32 66.46 67.28 67.10 64.12
43.29 45.94 45.02 44.47 42.71 41.56 41.70 40.28 43.35 45.45 44.75 47.75 50.14 51.34 53.20 55.11 55.61 55.89 57.70 58.55 60.30 59.65 60.59 62.02 62.58 61.16 61.55 62.20 62.91 62.51 62.95 61.99 61.73 62.41 63.32 64.48 64.25 64.12 64.16 65.25 66.14 66.53 66.21 67.11 66.91 66.96 67.07 65.53 64.51
46.44 44.33 43.40 42.93 42.32 36.94 40.27 40.41 41.53 44.33 45.83 48.37 49.92 50.86 52.31 54.39 56.35 57.84 58.98 59.22 58.78 58.07 58.74 58.45 59.26 58.61 59.13 60.17 60.69 60.83 60.69 60.13 59.91 60.47 59.66 60.15 60.43 61.39 62.69 63.39 64.25 65.41 65.22 65.25 65.25 66.74 66.85 66.07 65.58
45.19 43.01 37.11 35.47 35.62 35.37 40.62 39.74 43.20 45.76 47.92 48.82 50.68 51.14 53.30 55.47 56.33 56.77 57.06 57.25 57.94 56.25 56.16 55.47 56.46 55.46 56.43 57.03 56.73 56.75 56.89 56.88 56.75 56.84 56.54 56.76 56.93 58.04 60.48 61.54 62.34 62.93 64.36 64.62 64.79 65.17 65.68 65.77 64.42
42.88 43.59 37.99 30.72 32.45 36.11 40.62 37.95 43.03 47.86 49.32 50.14 51.51 52.71 53.96 54.21 54.62 55.09 55.12 55.46 55.07 54.54 55.37 55.54 54.79 53.73 54.64 54.58 54.54 55.17 55.25 54.40 54.39 55.06 54.69 54.51 54.90 55.70 58.11 58.26 59.24 60.12 60.91 62.76 64.00 63.51 63.35 64.82 64.28
42.19 40.00 43.77 38.90 37.85 37.36 39.91 41.99 47.04 47.82 47.68 49.32 50.14 51.70 51.96 52.29 52.34 52.13 52.32 53.45 53.38 53.39 53.20 53.23 53.35 53.46 53.56 53.40 53.86 54.08 54.08 53.95 53.74 54.37 54.65 53.93 54.92 54.88 55.48 56.05 56.08 56.69 57.22 58.33 59.55 59.54 61.39 62.66 63.57
45.38 46.14 39.95 41.19 32.46 30.97 36.53 38.02 41.07 45.07 46.09 48.41 49.07 49.84 50.26 50.09 50.77 51.33 51.91 52.07 52.27 52.34 52.60 53.14 53.00 52.06 52.11 52.29 52.82 52.55 52.96 53.15 53.01 52.97 52.58 52.87 53.41 53.76 53.28 53.69 54.29 54.50 54.58 55.49 56.60 57.23 59.16 59.40 61.09
42.81 42.33 41.74 42.74 40.48 34.81 33.06 37.47 46.44 47.30 48.52 48.60 49.33 49.81 50.04 50.36 50.67 50.85 51.04 51.34 51.42 51.70 51.90 51.96 51.70 51.43 51.26 51.44 51.88 51.77 51.75 51.92 51.93 51.53 51.77 51.99 52.13 52.07 52.06 52.28 52.18 52.32 52.58 53.79 54.27 55.16 55.72 56.79 58.62
45.23 42.98 43.59 38.99 36.81 39.23 39.16 38.53 46.65 47.81 49.15 49.64 48.43 48.05 48.74 49.58 49.50 49.82 50.19 50.16 50.51 50.53 50.82 50.99 50.74 50.30 50.21 50.66 50.74 50.64 50.67 50.58 50.29 50.43 50.84 51.24 50.84 51.43 51.15 51.30 51.17 51.28 51.39 51.59 51.48 51.43 52.32 53.76 56.08

GFSSGP_sfc_wetblb_108.txt.gz
Wetbulb
64.51 63.19 63.60 60.48 54.36 55.81 54.29 55.56 59.50 58.52 59.21 62.06 62.17 60.63 60.41 65.68 64.34 63.63 76.28 76.11 75.58 77.11 78.84 77.74 77.55 78.08 78.08 78.06 78.03 77.50 77.20 76.82 76.65 76.90 76.67 76.47 76.62 76.77 76.90 77.14 77.22 77.20 75.75 75.17 74.51 74.00 74.18 74.33 74.26
62.13 61.54 61.23 58.92 51.71 51.41 53.58 58.12 56.70 59.32 60.41 61.06 61.60 61.42 63.92 65.32 71.48 73.09 74.78 76.31 76.79 77.79 78.66 77.87 77.47 77.83 77.98 77.83 77.64 77.49 77.37 77.22 77.07 76.57 76.62 76.65 76.64 76.92 76.92 76.97 77.10 76.36 75.26 74.43 73.82 74.01 74.19 74.18 74.28
62.36 60.81 57.32 54.41 52.53 50.67 53.16 57.08 58.46 58.75 60.10 60.01 59.09 61.68 62.59 66.66 72.44 74.12 76.68 76.68 77.18 77.92 78.32 78.14 77.53 77.40 77.58 77.50 77.29 77.16 77.16 76.99 76.97 76.77 76.82 76.69 76.79 76.76 76.81 76.79 76.55 75.41 74.39 73.80 73.86 74.03 73.99 74.16 74.46
57.96 57.27 57.42 51.83 51.27 54.23 55.25 56.75 57.78 57.88 59.65 60.42 60.28 60.13 66.01 73.85 73.34 75.25 76.83 76.82 77.04 77.48 77.77 76.98 77.16 77.19 77.22 77.14 77.11 76.98 77.03 76.89 76.96 76.97 76.62 76.56 76.74 76.63 76.38 76.46 76.14 75.01 74.00 73.56 74.09 74.32 74.06 73.75 73.70
57.71 54.84 49.39 48.92 50.84 54.47 54.04 56.12 57.15 56.43 57.40 58.96 61.42 61.67 65.18 74.49 76.61 76.96 76.22 76.47 76.26 76.84 77.62 77.33 77.03 77.11 76.99 77.00 76.89 76.78 76.76 76.55 76.61 76.66 76.69 76.69 76.47 76.32 76.30 76.21 75.74 75.14 73.95 73.79 74.05 74.31 74.00 73.71 73.24
51.98 52.83 46.75 45.79 48.69 52.92 55.58 56.38 56.45 55.40 56.87 58.21 61.46 64.27 66.67 75.75 76.02 76.42 76.47 76.49 76.46 76.09 77.36 76.64 76.85 76.76 76.61 76.54 76.44 76.18 76.23 76.25 76.28 76.43 76.48 76.53 76.17 76.09 76.07 76.16 75.79 75.06 74.20 73.79 74.06 74.25 73.88 73.56 73.33
50.47 48.99 46.39 47.28 47.75 49.45 52.97 56.67 55.75 56.00 56.12 56.78 64.94 61.64 68.05 73.36 76.67 76.89 77.12 77.19 76.19 76.28 76.76 76.62 75.87 76.80 76.58 76.12 75.90 75.67 75.57 75.57 75.59 75.61 75.84 75.93 75.92 75.87 75.69 75.68 75.51 74.77 74.21 73.75 73.80 73.89 73.62 73.34 72.97
51.83 50.41 46.80 46.89 46.36 47.47 52.43 54.04 55.71 55.65 55.93 59.79 62.14 59.46 63.79 73.16 76.84 77.11 76.95 76.54 75.67 75.89 76.19 76.26 75.43 74.90 74.99 76.06 75.87 75.65 75.52 75.51 75.23 75.38 75.53 75.53 75.57 75.57 75.32 74.54 74.83 74.37 73.77 73.24 73.14 72.86 72.87 72.92 73.15
53.76 47.17 44.85 45.91 46.54 48.33 51.93 52.00 55.26 56.73 56.45 58.42 61.10 60.23 62.28 73.72 76.51 76.08 75.61 75.48 74.82 74.77 75.84 76.07 75.37 74.70 74.14 74.34 75.79 75.39 75.38 75.23 75.06 75.12 75.22 74.73 74.28 75.25 75.17 74.12 74.67 74.44 73.87 73.27 72.69 72.29 72.17 71.64 71.79
49.29 45.59 45.77 48.98 49.42 48.92 50.96 51.79 52.62 53.66 54.70 56.50 59.55 60.29 69.22 73.07 74.82 74.04 73.73 73.49 73.67 73.78 74.90 75.79 76.43 75.11 74.44 73.57 75.88 75.05 74.85 74.97 74.82 74.52 75.09 74.28 74.27 74.70 73.71 74.79 74.42 74.29 74.27 73.82 73.52 73.05 72.35 71.66 68.64
49.18 46.07 49.37 48.82 50.28 50.45 49.71 49.85 52.40 51.36 50.90 55.96 57.26 58.88 63.22 71.80 73.87 72.94 73.56 73.44 73.38 74.16 74.82 75.60 77.03 76.85 75.39 74.27 75.12 74.48 74.79 74.94 75.43 75.74 76.20 75.48 75.05 74.87 73.94 73.58 74.40 74.55 73.57 73.05 73.55 73.59 72.75 71.58 70.94
45.88 48.92 49.19 49.90 49.95 49.89 49.02 50.77 49.84 51.52 52.22 55.68 58.60 60.10 60.49 63.08 72.61 72.98 72.82 73.31 73.40 73.63 74.41 75.45 76.62 76.95 76.32 74.57 74.73 75.06 74.99 75.35 75.49 75.99 76.69 75.94 75.37 75.34 75.09 73.96 74.17 74.47 73.63 73.50 73.20 72.36 72.81 72.83 72.42
46.92 47.35 48.73 49.55 49.57 49.63 49.99 48.64 49.01 50.23 53.17 54.86 56.69 58.60 59.44 60.86 62.43 67.97 72.60 74.51 74.63 74.27 74.43 75.12 76.45 77.01 76.90 75.63 74.83 75.13 75.01 75.28 75.84 75.83 76.59 76.11 75.63 75.34 75.67 75.32 75.42 75.01 74.96 74.71 74.74 74.26 74.40 74.08 73.98
47.95 47.60 47.70 48.64 48.80 49.31 47.86 48.34 49.25 50.09 52.51 52.66 53.56 55.16 57.58 60.38 61.02 60.10 62.16 68.23 74.64 75.46 75.24 75.61 75.90 76.79 77.35 76.40 76.04 75.22 75.66 75.80 75.80 75.86 76.26 76.70 76.24 75.97 75.55 75.50 75.28 75.29 75.44 75.42 75.07 74.74 74.52 74.47 74.56
48.46 46.29 48.08 49.08 49.43 48.56 49.37 45.99 46.70 50.57 51.83 51.55 52.49 53.82 57.42 59.42 61.94 61.49 63.39 63.83 62.52 70.89 76.23 76.05 76.05 76.72 77.25 77.03 76.28 76.01 75.57 75.41 75.58 75.84 76.85 76.89 77.03 76.62 76.04 75.23 75.12 75.19 75.82 76.29 75.79 75.57 75.31 74.72 74.67
47.94 47.94 44.43 48.72 50.00 49.81 48.35 43.01 48.32 51.07 50.74 50.62 51.76 52.69 56.54 57.55 62.04 62.82 63.45 64.28 64.92 64.39 70.55 76.64 75.70 76.49 76.96 76.87 76.44 75.94 75.99 76.08 75.85 76.40 76.81 77.21 77.06 77.06 76.35 75.00 75.40 76.22 76.35 75.86 75.44 75.33 74.78 74.54 74.30
46.97 43.06 44.13 45.86 50.75 49.39 47.43 45.56 49.37 51.03 50.38 50.73 51.77 52.61 55.05 56.99 61.11 64.10 63.80 64.79 64.22 66.26 67.29 70.90 76.16 75.57 76.91 77.08 76.39 76.28 76.83 76.45 76.40 76.40 76.47 76.99 76.50 76.31 75.51 75.33 76.13 76.46 75.91 75.46 74.89 74.68 74.76 74.62 74.36
43.35 43.11 44.72 44.64 48.50 48.59 47.31 46.89 50.49 51.80 50.78 50.80 51.48 52.41 55.92 58.12 61.01 63.51 64.70 65.55 65.38 66.94 69.18 69.55 73.72 75.57 75.89 75.93 75.99 75.76 75.30 75.54 75.79 75.41 76.16 76.10 76.93 75.71 76.31 75.71 75.55 75.39 74.18 74.13 73.49 73.57 74.38 72.78 73.08
46.07 44.69 44.63 47.43 49.64 48.58 48.10 48.42 49.97 51.46 51.37 51.17 51.61 53.84 56.36 58.06 61.91 63.43 64.05 65.68 65.71 68.64 71.19 71.71 73.77 75.49 75.60 74.25 74.67 73.60 73.23 74.66 74.64 76.17 76.26 76.04 75.88 75.82 75.78 75.89 75.21 74.94 73.27 72.53 72.69 71.77 70.98 69.92 70.67
46.29 44.91 45.09 47.88 49.15 47.94 48.56 48.00 50.65 51.02 51.14 52.22 52.97 55.13 56.19 57.76 59.12 62.01 63.04 63.03 65.17 68.76 70.68 72.73 73.71 74.16 73.97 73.86 74.31 73.69 73.73 74.19 75.52 75.14 74.54 74.24 73.76 73.80 73.33 72.27 69.65 70.05 67.76 69.11 69.58 69.14 66.21 65.39 67.15
45.58 44.58 45.08 45.16 47.97 49.53 48.10 46.73 48.53 51.03 52.32 53.64 55.13 56.55 56.87 57.01 57.98 59.76 61.56 63.58 64.45 67.39 68.24 70.18 71.91 73.91 74.35 74.60 71.75 68.45 69.07 69.00 65.90 66.84 66.89 68.72 68.70 68.60 69.02 68.52 68.03 67.69 67.97 64.05 67.37 67.36 66.99 62.89 64.30
42.66 47.45 46.51 45.55 44.96 42.18 48.63 41.32 47.21 49.64 50.44 51.92 53.75 55.08 55.82 56.80 58.46 60.31 61.57 61.63 63.89 66.28 69.17 70.25 71.69 71.79 72.28 72.42 70.22 68.62 64.89 63.75 63.81 64.70 65.03 66.30 67.87 67.02 67.15 68.16 67.54 68.37 66.12 68.94 66.70 65.41 66.30 66.69 62.57
44.67 48.35 47.02 46.44 45.16 45.57 45.68 42.61 46.60 49.32 48.23 50.54 53.00 53.97 55.68 57.14 58.16 57.92 59.67 60.34 63.25 66.96 67.80 67.15 67.09 66.41 65.52 67.56 68.69 66.02 66.27 64.34 64.96 66.61 66.29 67.59 67.73 67.27 66.27 66.72 67.44 67.85 67.15 68.83 68.62 67.65 67.98 65.10 63.39
48.94 46.85 47.20 47.08 45.51 40.30 44.30 43.68 44.38 47.25 48.56 50.67 53.05 54.78 55.33 57.16 58.18 59.78 60.80 62.21 63.88 65.79 65.45 64.90 63.99 63.16 64.22 64.85 65.88 66.10 64.91 63.75 63.73 65.18 64.24 63.60 64.15 64.42 65.57 65.66 66.43 66.88 66.88 66.77 66.60 67.92 67.77 67.67 67.11
47.64 45.19 39.26 37.77 38.31 37.96 45.65 43.17 44.96 49.66 51.11 51.94 53.58 55.21 56.43 57.92 59.66 60.42 60.98 61.63 61.52 62.05 62.82 62.74 62.62 61.49 61.81 61.68 60.82 60.64 61.71 61.56 60.80 61.77 61.46 61.71 61.34 61.50 64.04 64.41 64.20 63.93 65.04 65.76 66.33 67.48 66.96 67.38 66.18
45.69 45.48 40.16 33.89 36.00 39.21 45.21 40.41 46.18 51.83 53.46 54.57 55.27 56.88 58.05 59.11 60.23 60.56 61.07 61.29 60.80 61.15 61.27 60.59 60.63 60.21 60.68 60.38 59.94 59.73 59.45 58.84 58.81 60.06 59.08 59.30 59.29 59.74 62.52 61.60 61.60 61.60 62.07 62.58 63.28 62.70 64.42 67.43 65.94
45.83 42.72 47.65 42.76 43.05 40.25 42.62 45.50 49.42 51.86 52.09 53.64 54.95 56.26 57.11 58.13 59.35 59.43 59.77 60.26 59.93 59.59 59.41 59.48 59.36 59.23 58.64 58.57 59.12 58.79 58.79 58.96 58.15 59.26 59.80 58.71 59.84 58.95 60.03 60.10 59.66 59.81 59.93 60.25 60.51 59.34 61.49 63.22 65.07
47.73 49.15 42.07 43.34 34.91 34.23 39.54 41.95 43.82 48.41 50.10 52.98 53.83 55.36 56.36 56.97 56.67 57.23 57.92 58.39 58.42 58.19 57.95 58.37 57.96 57.14 56.83 57.18 57.35 57.33 57.79 58.07 58.19 58.06 58.04 58.11 58.45 58.57 58.18 58.18 58.54 58.64 58.82 58.87 58.72 58.02 59.01 60.37 59.92
45.68 44.77 45.76 45.77 43.64 37.53 36.10 39.47 50.40 49.60 51.77 52.91 54.33 55.69 55.66 55.92 56.15 56.50 56.81 56.96 57.08 57.36 57.27 56.83 56.98 55.35 56.61 55.89 56.38 56.77 56.72 56.91 57.10 56.90 57.15 57.35 57.74 57.55 57.10 57.17 57.10 56.91 56.93 57.43 57.09 56.99 57.08 56.91 57.84
49.22 46.76 46.76 41.12 39.59 42.73 41.43 40.30 51.24 51.93 53.25 54.76 54.38 54.92 55.68 56.50 56.22 55.94 55.86 55.99 55.79 55.54 55.38 56.46 55.78 54.92 55.18 55.41 55.43 55.69 56.10 56.24 56.06 56.20 56.58 56.98 56.27 56.81 56.46 55.96 55.58 55.44 55.51 55.87 55.43 54.58 55.01 54.50 54.22

GFSSGP_sfc_wetblb_111.txt.gz
Wetbulb
63.64 61.67 64.01 61.50 54.58 56.47 53.90 55.78 60.72 59.49 59.95 63.25 63.31 61.69 60.91 62.87 63.91 63.75 76.35 76.71 76.46 77.65 78.24 77.80 78.21 78.74 78.72 78.54 77.78 77.56 77.20 76.80 76.58 76.80 76.85 76.85 76.80 77.10 77.25 77.55 77.56 76.87 75.92 75.22 74.48 74.26 74.15 74.09 74.13
60.90 60.57 62.31 58.82 52.86 51.67 53.95 57.99 58.20 60.46 62.42 62.96 62.89 62.79 61.61 62.95 71.80 74.00 75.40 75.81 77.15 78.19 78.69 78.16 77.90 78.44 78.54 78.34 77.78 77.25 77.18 76.85 76.75 76.85 76.82 76.65 76.85 77.02 77.05 77.30 77.36 76.17 75.31 74.61 73.92 74.22 74.08 74.06 73.86
63.30 61.49 56.85 55.64 53.81 51.46 53.80 58.15 59.64 61.13 61.81 61.57 60.67 62.91 62.18 64.94 73.35 74.35 78.11 76.77 77.60 78.04 78.41 78.64 77.91 78.08 78.19 78.23 77.60 77.12 77.10 77.07 76.90 77.00 76.82 76.82 76.95 77.02 77.05 77.23 76.82 75.68 74.64 73.81 73.77 73.97 73.98 74.21 73.96
58.54 57.39 56.04 52.06 52.14 55.52 56.35 58.48 60.17 59.77 61.32 61.93 61.76 60.10 64.62 73.30 72.05 76.03 77.55 76.67 77.33 77.41 77.95 77.14 77.60 77.62 77.68 77.93 77.67 77.37 77.12 76.99 76.90 76.85 76.67 76.90 76.87 76.86 76.69 76.70 76.32 74.93 73.94 73.73 73.81 73.91 73.93 73.73 73.72
58.25 55.00 49.35 48.78 51.15 55.58 58.57 59.70 59.73 58.90 59.61 60.07 61.10 60.77 64.22 75.09 76.87 77.03 76.38 76.80 76.50 76.40 78.08 77.71 77.20 77.32 77.50 77.75 77.55 77.39 77.09 76.84 76.89 76.95 76.92 76.77 76.76 76.53 76.44 76.30 75.69 74.89 73.74 73.67 74.05 74.11 73.82 73.30 72.81
52.49 53.52 47.50 46.37 49.04 52.41 55.54 58.70 58.79 58.15 59.21 59.71 59.68 61.57 66.00 76.14 76.28 75.84 76.69 76.68 76.37 75.63 77.66 76.83 77.02 77.04 76.96 77.29 77.19 76.93 76.73 76.83 76.71 76.69 76.62 76.69 76.43 76.41 76.29 76.15 75.54 74.92 74.01 73.81 73.97 74.19 73.79 73.38 73.15
51.07 49.96 46.88 48.16 48.89 50.45 53.47 58.25 56.75 56.91 57.83 58.67 61.39 61.58 68.66 73.09 76.61 76.26 77.05 77.24 76.45 75.93 76.55 76.12 75.72 76.80 76.99 76.55 76.50 76.32 76.34 76.37 76.29 75.99 76.20 76.24 76.25 76.10 76.03 75.94 75.40 74.79 74.11 73.53 73.90 74.10 73.78 73.36 73.10
52.84 51.31 47.96 48.34 47.55 48.97 54.04 55.25 56.81 56.44 56.99 61.26 61.19 59.73 62.48 73.05 76.89 76.80 77.46 76.95 76.29 75.70 75.94 75.52 75.10 75.10 75.38 76.13 76.16 76.12 75.97 75.89 75.78 75.91 76.03 75.99 75.93 75.79 75.44 75.15 75.07 74.41 73.93 73.29 73.21 73.10 73.16 73.21 73.12
54.41 48.04 46.02 47.66 48.50 49.79 54.22 52.56 55.87 57.71 55.71 57.88 60.49 61.94 63.88 70.63 75.82 75.70 75.81 75.74 75.39 75.09 75.76 75.62 75.05 74.74 74.10 74.08 75.70 75.60 75.57 75.46 75.31 75.45 75.58 75.10 73.94 74.90 75.25 74.23 74.97 74.67 73.86 73.31 73.05 72.73 72.51 71.98 72.32
51.07 47.78 48.05 51.45 52.12 50.98 52.46 52.71 53.69 54.26 54.34 55.54 58.65 62.55 64.09 67.76 74.04 74.02 73.94 73.96 74.12 74.06 74.75 75.03 75.58 74.75 74.26 73.95 75.72 74.24 73.88 73.92 73.92 73.91 74.99 73.89 73.92 74.99 73.72 74.77 75.17 74.42 74.29 74.07 73.75 73.50 72.80 72.00 68.77
50.79 47.42 50.43 50.74 51.68 52.17 51.74 52.03 53.68 52.55 52.03 55.11 55.81 59.58 62.79 68.25 71.70 72.59 73.19 73.73 73.82 74.33 74.82 74.76 75.95 76.31 74.67 73.77 75.74 73.86 74.01 73.80 74.27 74.90 75.47 75.63 74.17 74.69 72.93 73.98 74.30 74.64 74.04 73.22 73.43 73.33 72.43 70.98 70.22
48.44 50.88 51.02 51.60 51.79 51.33 50.13 51.67 50.78 51.89 52.80 55.88 56.88 60.20 61.97 61.93 69.49 71.14 71.00 72.64 73.50 74.24 74.84 75.15 76.55 76.36 76.98 74.28 75.03 74.07 73.94 74.39 74.68 75.32 76.41 76.22 74.79 75.12 74.41 72.03 72.65 74.55 72.87 73.83 72.58 71.62 73.17 72.63 72.26
48.96 50.13 50.96 51.62 51.42 51.20 51.40 50.04 50.40 51.36 53.89 55.61 56.08 58.97 61.10 61.69 63.49 69.97 72.93 70.92 74.17 73.26 74.18 74.78 76.74 76.82 76.73 76.84 75.15 75.14 74.60 74.66 75.60 75.69 76.36 76.42 75.59 76.00 75.79 75.40 74.55 74.41 73.97 73.47 73.80 73.51 73.63 73.31 73.67
50.12 49.70 50.16 50.48 50.38 50.75 49.12 49.46 50.32 51.33 53.62 53.83 54.80 55.50 58.05 60.53 62.63 64.79 68.82 72.01 74.52 73.56 74.08 74.86 75.52 77.82 77.53 76.96 77.54 75.65 77.00 76.48 75.92 75.50 76.01 76.45 76.11 76.51 75.39 75.62 74.90 74.87 74.96 74.65 74.43 74.39 74.60 74.34 74.37
49.72 46.82 48.59 49.00 49.76 49.35 50.50 47.32 47.99 51.67 52.96 52.55 52.94 54.38 55.59 58.16 61.19 63.04 64.76 67.21 70.81 74.48 73.03 75.57 76.36 77.23 77.84 78.26 76.95 76.17 75.66 75.65 75.54 75.46 77.15 77.05 77.18 77.56 77.05 75.18 75.12 74.91 76.32 77.00 76.22 76.07 75.80 74.88 74.68
47.01 47.72 44.62 49.48 50.09 50.44 49.74 44.69 50.22 52.58 52.01 51.29 52.48 53.30 54.17 56.67 60.24 63.84 64.43 64.29 64.76 66.45 72.39 76.38 75.93 77.12 77.68 77.97 77.47 77.56 77.69 74.99 75.43 75.27 76.06 76.32 77.12 77.06 76.92 75.24 75.07 77.85 78.84 76.87 75.97 75.53 75.08 75.09 74.28
47.82 43.20 45.24 47.02 51.16 50.51 49.28 46.86 51.07 53.25 52.21 51.45 52.09 52.72 53.62 55.17 61.49 63.60 64.51 66.27 68.25 69.28 68.28 73.00 76.02 76.51 77.11 76.38 77.69 74.08 76.56 74.26 75.92 78.21 76.30 75.62 76.65 76.35 76.73 76.23 77.64 77.97 78.39 78.10 76.19 74.97 75.40 74.17 74.00
43.65 43.32 45.33 45.59 49.95 50.53 49.24 48.49 50.84 53.22 53.12 52.03 51.79 52.51 53.64 54.24 59.23 62.20 64.94 66.12 67.31 69.94 71.59 71.52 73.49 75.23 77.70 76.96 77.21 76.07 76.50 77.34 76.71 76.71 75.93 77.46 77.06 76.13 76.58 77.04 76.37 76.93 74.94 75.30 74.08 74.42 73.73 73.39 72.14
47.87 47.11 45.43 48.14 50.47 49.38 49.47 49.47 51.24 53.39 53.53 52.55 52.62 52.63 53.43 54.33 58.27 62.38 64.82 65.54 66.73 68.15 71.41 72.13 73.59 76.08 76.09 75.25 74.26 74.79 73.50 75.90 77.86 76.63 76.35 75.46 75.30 75.25 75.94 75.93 75.91 75.82 74.61 74.33 73.63 72.02 72.05 68.83 70.17
47.32 46.41 45.97 48.62 50.38 49.91 49.36 48.98 51.68 52.89 52.85 53.09 53.20 53.51 53.53 54.28 57.83 61.98 64.63 66.14 66.82 68.84 70.34 72.13 74.52 76.28 75.35 73.36 75.18 74.70 74.55 74.77 76.48 77.18 76.43 76.32 75.31 75.71 76.21 75.01 73.58 74.28 69.92 72.59 71.18 72.08 66.93 65.97 67.57
46.55 45.62 46.15 46.12 49.37 50.44 49.11 47.63 49.64 52.35 53.11 53.33 53.80 54.55 55.36 55.29 57.87 60.28 63.03 64.91 66.25 67.79 69.78 70.10 71.00 72.83 75.06 74.88 75.36 75.35 75.34 73.86 74.32 72.33 71.46 72.08 71.37 70.75 70.52 69.61 69.44 70.16 69.73 64.61 70.33 69.67 70.00 63.53 64.74
44.61 48.29 47.33 46.84 46.26 43.03 50.47 42.23 49.27 51.14 51.31 52.22 53.99 55.25 56.21 57.37 58.39 59.56 61.67 64.22 64.84 66.77 68.74 69.48 71.37 73.42 74.88 75.57 73.99 72.96 70.91 69.02 67.59 66.82 66.93 68.06 68.68 67.79 66.93 68.15 67.86 70.50 68.06 69.83 68.55 67.76 67.00 67.58 63.17
46.26 49.17 47.56 47.03 45.90 45.77 46.11 44.21 47.41 51.30 49.41 51.26 53.36 55.19 56.56 57.55 57.83 58.95 61.22 63.60 65.18 66.75 67.59 70.63 71.87 72.45 71.21 72.88 73.69 70.57 71.47 67.30 65.99 65.03 68.98 68.31 69.34 68.22 66.87 67.17 67.92 70.00 68.01 69.63 71.75 70.84 69.98 66.48 64.38
49.89 47.94 47.67 47.41 45.48 40.04 44.98 44.96 45.18 48.00 50.10 51.51 53.47 54.66 55.88 56.58 57.90 59.32 61.93 63.61 64.98 67.62 68.99 69.97 68.94 68.17 68.49 68.25 68.46 69.51 68.72 67.81 66.00 67.04 65.47 65.09 65.34 67.60 67.83 67.03 68.60 68.70 68.91 68.22 68.19 69.72 70.13 69.04 67.74
48.53 45.92 39.74 38.16 38.32 38.34 46.28 44.52 45.92 51.32 51.47 52.98 53.21 54.38 56.15 58.23 59.56 60.95 61.62 62.48 64.77 66.16 66.59 65.56 64.99 64.16 64.99 64.59 64.75 64.88 64.82 65.30 64.51 63.40 63.20 63.99 62.69 62.87 67.83 66.44 65.92 65.19 67.28 67.02 67.55 67.51 68.49 68.25 67.35
46.34 45.95 40.77 34.27 36.08 39.30 45.71 42.21 46.00 52.71 54.31 54.81 56.20 56.37 57.72 59.09 60.70 61.60 62.54 63.32 64.33 64.77 64.80 63.79 63.29 62.81 63.27 63.10 62.44 62.86 62.70 62.27 62.01 62.96 61.83 62.01 61.64 62.33 65.53 63.88 64.32 63.98 62.94 64.17 64.94 63.19 63.25 64.91 64.86
46.41 43.86 48.32 43.37 43.43 40.42 41.85 46.36 51.57 53.20 52.86 53.83 55.36 57.15 58.10 59.61 60.70 61.51 62.28 62.44 62.83 62.52 62.68 62.77 62.15 61.88 62.01 61.92 61.99 61.70 62.01 61.52 61.31 61.85 62.34 60.64 62.69 60.77 62.19 62.00 61.32 61.41 61.28 62.30 63.26 60.71 62.23 63.01 62.77
47.98 49.58 42.94 43.76 35.81 34.64 39.56 42.24 43.05 49.42 50.87 52.46 53.89 55.92 57.97 59.88 60.71 61.48 61.63 61.71 61.94 61.81 61.43 61.74 61.71 60.71 60.47 60.41 60.55 60.86 60.47 60.04 60.49 60.77 60.44 60.71 60.96 60.85 60.45 60.13 60.34 60.22 60.54 60.89 62.24 60.31 61.06 61.44 59.98
45.88 45.33 46.62 46.09 43.83 37.60 37.01 41.29 51.15 50.22 52.13 52.32 54.17 56.68 58.03 58.85 59.07 59.75 60.25 60.60 60.49 60.70 60.44 60.11 60.00 59.39 59.10 59.74 59.74 59.07 59.29 59.43 59.64 59.41 59.54 59.63 60.13 59.90 59.18 59.06 59.08 58.84 58.92 60.24 59.64 58.89 58.80 58.61 59.23
49.01 46.96 47.56 42.58 39.06 43.72 41.89 40.10 52.57 51.74 53.50 54.93 55.06 57.14 57.85 58.48 58.77 58.80 58.83 58.79 58.68 58.73 58.81 59.03 58.33 58.78 58.84 58.57 57.92 58.20 58.38 58.73 58.69 58.71 59.03 59.39 58.83 59.06 58.69 58.50 58.11 57.91 57.09 58.16 57.88 56.88 57.01 56.94 56.68

GFSSGP_sfc_wetblb_114.txt.gz
Wetbulb
62.10 57.39 58.96 59.58 52.88 53.40 51.50 53.85 58.05 57.44 60.03 62.90 63.34 61.45 60.05 61.11 66.30 63.21 75.21 76.19 76.74 76.74 76.79 77.20 78.54 78.77 78.69 77.83 77.68 77.42 76.76 76.44 76.54 76.81 76.81 76.79 76.91 77.19 77.34 77.22 77.25 76.94 76.37 75.34 74.86 74.59 74.48 74.44 74.34
59.30 57.31 57.54 57.06 50.94 48.35 51.04 56.67 55.55 58.47 61.80 63.40 62.59 61.68 60.63 65.46 72.53 72.37 72.34 76.80 76.86 77.22 76.59 76.80 78.38 78.61 78.64 77.88 77.42 77.19 76.76 76.54 76.59 76.69 76.76 76.89 77.06 77.14 77.29 77.32 77.10 76.71 75.66 74.62 74.55 74.36 74.32 74.28 73.97
60.31 59.95 53.87 52.71 50.93 48.59 50.83 56.93 58.24 60.36 62.42 61.56 60.70 62.74 61.71 68.04 72.25 74.81 75.30 77.63 77.00 76.94 77.45 77.72 78.30 78.41 78.26 77.88 77.37 76.99 76.84 76.56 76.61 76.79 76.81 76.91 76.93 77.08 77.16 77.20 77.00 76.39 75.00 74.28 74.25 74.49 74.56 74.31 74.13
54.80 56.14 55.39 48.97 49.01 53.78 54.63 57.15 59.08 60.55 61.60 61.86 61.39 59.25 63.51 71.00 72.43 76.66 76.30 77.59 76.76 76.59 77.61 77.43 77.87 78.12 78.12 77.82 77.34 76.76 76.76 76.71 76.59 76.76 76.84 76.91 76.98 76.85 76.90 76.82 76.54 75.88 74.91 74.20 74.33 74.49 74.48 74.33 74.31
55.88 53.76 47.49 46.64 49.01 53.29 57.02 58.76 59.11 58.85 60.12 60.04 61.09 58.94 62.89 72.85 75.40 76.83 75.50 76.76 75.91 75.61 77.82 77.00 77.74 77.79 78.02 77.87 77.42 77.01 76.88 76.66 76.61 76.76 76.89 76.93 76.73 76.55 76.63 76.47 76.12 75.43 74.92 74.71 74.67 74.63 74.51 73.99 73.40
51.48 52.03 45.35 43.96 47.01 51.42 54.79 57.88 58.34 58.45 59.55 59.55 59.26 59.30 63.56 74.86 74.47 75.28 75.45 75.99 75.78 75.83 77.20 76.16 77.60 77.53 77.48 77.56 77.23 76.95 76.55 76.40 76.48 76.50 76.55 76.73 76.35 76.30 76.33 76.14 75.94 75.20 74.77 74.70 74.86 74.75 74.42 73.95 73.60
49.73 48.53 45.21 46.17 47.11 49.63 52.46 56.23 54.86 56.69 58.03 58.20 60.74 57.93 69.53 72.55 74.62 74.80 75.52 75.78 74.94 76.67 76.12 75.24 76.03 77.22 77.31 77.07 76.89 76.74 76.41 76.39 76.26 76.21 76.19 76.26 76.14 76.20 76.13 75.91 75.81 75.31 74.58 74.52 74.70 74.71 74.41 74.11 73.66
51.29 49.66 45.97 46.73 46.24 47.28 52.80 54.31 56.02 55.50 56.78 60.74 61.43 57.14 60.96 72.06 72.06 69.40 71.99 74.84 74.41 75.39 74.92 74.11 75.14 75.56 76.19 76.38 76.79 76.66 76.48 76.48 76.02 76.10 76.15 76.01 75.92 76.02 75.95 75.39 75.41 75.21 74.76 74.29 74.21 74.39 74.32 74.19 73.84
53.61 46.60 44.73 45.71 47.02 48.63 52.84 51.82 55.68 58.56 56.05 57.12 59.20 60.28 63.31 71.61 68.28 67.89 63.60 70.00 73.33 74.06 74.52 73.72 73.75 74.76 74.51 75.02 76.06 76.42 76.42 76.28 76.01 76.02 75.85 74.98 73.96 74.43 74.39 73.81 74.67 75.21 74.64 74.14 73.87 73.82 73.49 73.37 73.30
49.60 46.13 45.62 49.65 50.59 49.98 52.16 52.45 53.32 53.43 53.53 54.31 55.88 60.24 62.99 65.47 65.79 63.37 62.93 70.13 72.11 72.66 73.73 73.59 73.65 73.34 73.02 73.35 75.19 75.21 75.38 75.30 75.02 74.44 74.99 73.67 72.83 73.25 73.07 73.63 75.04 74.99 74.76 74.31 73.97 73.74 73.39 72.67 68.15
49.76 46.46 49.50 50.16 51.47 52.45 51.57 51.61 53.63 52.09 51.17 54.30 54.23 57.22 60.81 62.41 66.38 69.29 70.13 71.92 72.18 73.66 74.17 73.75 74.13 73.79 72.77 72.74 73.59 73.32 73.44 72.94 72.97 73.24 74.00 73.21 72.34 73.79 72.43 73.64 72.60 73.57 74.44 72.72 73.09 72.43 71.62 69.72 68.87
46.97 49.86 50.21 50.72 51.78 51.44 49.96 51.89 51.20 51.93 52.46 55.56 56.20 57.64 59.03 62.17 65.19 68.02 70.09 71.44 71.66 72.62 73.34 72.89 74.10 74.02 74.03 74.35 72.53 72.69 72.50 72.78 72.71 73.46 74.67 72.44 74.34 75.36 72.15 72.65 72.45 72.65 72.58 71.69 71.59 71.33 71.56 71.09 70.62
48.02 49.38 50.89 51.65 51.38 51.12 52.05 50.33 50.27 50.55 53.31 54.72 55.23 56.25 56.68 61.73 62.53 64.24 68.85 73.87 70.40 70.77 68.96 67.53 72.72 73.62 73.45 73.42 73.68 72.49 72.84 72.87 73.55 73.90 75.22 74.27 74.01 74.51 74.31 74.39 72.46 73.04 72.35 72.25 71.97 71.71 73.10 72.60 71.62
49.40 49.79 49.98 50.93 50.89 50.87 49.38 49.44 49.99 50.85 53.27 53.42 53.94 54.58 55.54 57.55 62.04 63.30 64.78 71.05 70.78 67.80 67.66 66.92 68.90 72.21 74.98 74.95 73.85 73.44 73.98 73.39 74.30 74.23 74.88 75.88 75.39 75.75 74.68 76.06 76.04 75.20 75.31 74.37 72.44 72.38 73.52 73.21 72.94
49.29 46.69 48.43 49.02 49.86 49.22 50.27 46.84 47.41 51.09 52.46 51.78 52.59 53.77 55.02 56.36 58.77 61.87 64.85 68.48 71.57 68.44 69.06 67.22 68.08 69.28 72.10 74.51 75.59 74.71 75.42 73.73 74.33 74.35 75.45 75.19 76.49 76.79 76.59 75.63 74.41 74.89 75.19 75.84 75.87 75.69 75.37 74.28 73.54
47.06 46.89 42.83 47.76 48.94 49.15 48.62 43.29 48.93 51.56 51.36 50.61 51.52 52.99 53.86 55.56 56.62 59.79 62.66 67.83 70.89 70.08 67.07 68.02 67.73 66.87 69.59 73.92 74.72 74.54 73.33 73.39 70.90 70.53 72.16 76.25 76.27 76.95 77.11 75.93 75.87 75.88 75.52 74.55 74.08 73.90 73.21 73.87 71.66
46.34 40.98 42.53 44.37 49.12 48.62 47.42 44.58 49.44 52.11 51.98 51.59 52.55 52.89 53.40 54.64 56.90 59.19 62.36 66.60 68.82 71.21 70.58 68.63 64.64 64.03 66.48 69.93 69.17 73.04 74.06 71.92 69.46 69.33 67.60 68.53 74.82 74.03 72.65 72.51 73.74 76.04 74.95 75.20 73.53 72.20 73.75 72.32 71.61
41.82 42.82 44.29 44.21 48.08 49.13 47.55 47.49 50.08 52.24 52.37 52.45 51.97 52.38 53.11 54.06 55.58 58.66 63.42 66.24 68.59 71.07 71.95 69.20 69.13 70.76 68.00 65.20 66.72 72.03 74.00 73.93 67.71 64.18 68.74 71.77 71.87 68.11 66.52 70.64 70.65 71.95 71.82 71.07 71.64 73.24 73.01 71.86 71.22
45.48 44.97 44.36 46.47 48.83 48.61 47.81 48.37 50.21 51.97 52.09 52.81 53.38 53.60 53.50 54.21 56.40 58.09 64.10 66.15 69.53 71.28 72.66 74.47 73.25 74.07 71.35 72.53 71.48 72.37 72.27 73.30 71.41 64.84 65.43 69.51 72.29 72.17 69.75 64.72 67.39 72.96 73.43 72.72 71.23 70.96 68.18 67.07 67.31
45.31 44.35 45.06 47.75 49.62 48.95 48.72 48.14 51.00 52.29 52.69 53.73 54.24 53.84 54.23 54.51 55.82 57.30 63.19 66.84 67.76 69.61 73.02 74.04 74.94 75.30 75.79 74.24 74.89 73.90 72.44 73.81 73.76 74.38 74.81 74.09 72.45 74.29 74.64 75.38 73.94 74.07 70.11 70.05 68.88 69.28 67.27 66.03 66.18
44.73 43.97 45.13 45.93 48.33 49.52 48.22 46.39 49.06 51.71 53.31 53.95 53.56 54.23 54.99 55.72 55.61 57.19 63.51 65.30 67.30 68.23 71.16 72.27 74.74 75.38 76.08 76.30 73.69 74.59 75.46 74.11 74.21 74.21 74.23 75.03 74.92 74.76 71.49 71.40 69.70 68.45 67.83 66.02 68.53 69.14 67.54 64.23 64.88
42.61 47.34 47.21 46.97 45.46 41.50 48.56 39.83 48.61 50.90 51.26 52.18 52.78 54.16 54.39 55.38 56.58 57.21 62.57 64.81 65.54 68.56 68.71 70.04 71.65 74.68 74.93 75.96 75.12 73.49 71.06 69.64 70.46 68.91 71.38 70.18 68.88 68.31 68.31 67.48 67.28 67.58 68.84 68.53 67.66 66.62 67.82 65.97 61.40
44.95 48.90 47.17 46.93 45.20 44.73 44.75 42.16 46.16 50.84 49.21 50.70 53.11 54.11 55.83 57.70 56.10 57.59 58.78 64.43 66.26 68.50 69.15 70.62 73.51 74.40 75.35 75.40 75.40 71.90 71.90 70.13 67.79 68.64 68.65 70.09 69.58 68.18 67.89 67.51 68.01 67.63 68.26 68.23 68.10 67.16 66.90 66.98 64.94
49.32 47.46 47.37 46.68 44.59 38.78 43.23 42.55 43.68 47.24 49.90 51.32 53.40 53.54 55.52 56.35 58.32 59.38 63.57 65.59 65.39 67.08 68.20 70.81 71.49 69.82 69.42 69.33 71.86 69.31 67.32 68.15 66.78 68.15 66.73 67.14 68.52 68.88 68.55 67.67 67.90 67.94 68.01 67.17 67.01 67.24 66.86 66.61 65.53
47.41 45.13 38.40 36.95 37.32 36.65 44.62 42.58 45.41 50.64 52.03 52.51 52.90 53.92 56.08 58.37 60.52 60.98 62.04 63.01 65.26 66.35 69.23 68.64 67.44 67.19 67.17 66.40 65.84 65.44 64.61 64.13 65.30 63.95 64.53 63.99 63.79 64.81 67.05 65.58 65.68 65.20 65.49 65.56 64.83 63.81 63.44 63.12 62.94
45.55 45.27 39.12 33.09 34.53 37.92 44.45 40.42 44.85 52.64 53.75 54.66 54.65 55.53 56.37 58.56 60.55 60.90 62.16 63.29 65.42 66.40 66.17 65.35 64.98 64.09 63.68 63.29 63.81 64.44 64.87 62.93 63.65 62.06 61.51 61.21 61.04 62.13 64.48 64.13 64.17 63.96 63.65 63.46 63.08 61.68 60.94 60.63 60.06
45.11 42.54 47.09 42.05 43.55 38.89 41.78 45.43 49.80 52.24 52.36 53.15 54.21 55.48 57.12 58.42 60.53 61.64 62.73 64.28 65.07 64.71 64.29 64.16 63.24 63.42 63.20 63.14 63.67 63.67 62.12 62.78 62.08 62.74 62.44 62.50 64.20 60.85 61.56 61.39 61.56 61.75 61.64 61.34 61.24 59.62 59.30 60.10 60.03
47.39 48.71 41.82 42.99 35.15 33.44 39.83 42.24 42.57 48.58 50.57 52.13 53.74 55.30 57.50 59.48 60.65 61.43 61.78 62.96 63.07 63.25 63.40 63.16 63.10 62.20 62.52 62.66 62.88 61.84 61.90 61.87 61.68 62.72 61.84 61.40 62.02 62.12 61.34 60.93 60.58 60.28 60.15 60.28 59.96 58.81 58.88 58.67 58.23
44.03 43.44 45.01 45.96 43.81 37.31 35.67 39.86 48.07 49.31 51.19 50.28 53.81 56.52 58.25 59.10 59.89 60.60 60.92 61.34 61.13 61.07 60.58 61.54 60.88 60.89 61.25 61.38 61.31 61.34 60.69 60.71 61.32 61.22 61.15 60.96 61.80 60.96 59.64 59.20 58.87 58.68 58.65 59.09 58.80 58.54 57.81 56.77 56.32
48.01 45.48 45.96 39.97 39.64 42.82 40.79 39.51 49.57 51.22 53.12 52.45 51.98 56.97 58.26 59.31 59.50 59.60 59.53 59.51 59.27 59.09 58.96 59.45 60.06 59.80 59.87 59.98 60.03 60.42 60.83 61.00 60.77 60.40 60.33 60.72 59.68 59.92 58.86 58.40 57.90 57.69 57.50 57.57 56.93 55.98 56.34 55.43 54.90

GFSSGP_sfc_wetblb_117.txt.gz
Wetbulb
60.89 54.24 51.96 51.81 46.02 44.44 42.03 47.61 53.64 53.79 55.29 59.17 59.47 58.03 56.49 65.70 64.14 58.40 71.79 75.19 75.37 74.85 77.01 77.84 77.75 77.72 77.70 77.29 77.33 76.90 76.22 76.50 76.62 76.52 76.40 76.54 76.89 76.92 76.67 76.65 76.66 76.71 76.40 74.97 74.76 74.61 74.33 74.48 74.46
57.92 56.93 50.82 48.64 43.04 38.60 42.88 51.18 51.57 55.00 58.50 59.80 60.37 58.66 59.20 65.27 70.71 69.39 71.55 75.46 75.00 75.14 76.01 77.04 78.00 77.47 77.42 77.16 77.00 76.57 76.25 76.40 76.47 76.30 76.47 76.57 76.82 76.79 76.70 76.68 76.49 76.31 75.54 74.61 74.37 74.36 74.33 74.25 74.13
60.17 56.39 48.06 43.67 42.03 41.20 43.52 51.45 53.56 57.23 60.02 59.40 58.39 60.71 62.35 67.25 71.10 71.17 74.23 75.76 75.17 74.06 75.32 76.76 78.10 77.59 77.37 77.31 76.85 76.25 76.02 76.38 76.35 76.35 76.35 76.47 76.61 76.64 76.64 76.61 76.36 76.10 74.86 74.40 74.61 74.67 75.22 75.04 74.64
52.67 48.53 50.14 41.20 41.00 47.25 49.42 52.59 54.80 56.01 58.66 59.35 59.07 57.80 64.01 72.36 72.90 74.21 75.40 76.04 74.38 74.39 75.58 77.33 77.71 77.67 77.29 77.26 76.83 76.35 76.17 76.25 76.33 76.33 76.42 76.42 76.56 76.58 76.43 76.55 76.13 75.88 75.54 75.05 75.02 75.40 75.28 75.11 75.16
50.20 46.07 40.79 38.61 41.74 47.36 51.26 54.18 55.21 55.38 57.41 59.23 58.47 58.45 65.73 73.54 74.83 74.95 74.83 75.50 73.82 74.49 75.70 76.91 77.57 77.55 77.54 77.37 76.91 76.35 76.35 76.04 76.10 76.35 76.25 76.42 76.46 76.30 76.33 76.47 75.93 75.50 75.37 75.27 75.35 75.11 74.98 74.81 74.86
44.37 44.86 36.65 37.99 41.07 47.21 51.04 53.81 54.29 53.26 55.34 56.78 56.20 56.94 65.75 73.06 72.63 73.23 74.99 74.33 74.68 75.07 75.30 76.16 77.73 77.44 77.17 77.11 76.60 76.25 76.17 76.02 76.02 76.09 76.24 76.26 76.03 76.03 76.08 76.04 75.71 75.18 74.95 75.36 75.43 75.16 74.50 74.03 73.86
43.15 40.92 37.46 40.02 42.36 45.38 48.54 52.41 52.34 52.74 51.68 55.73 56.23 54.69 67.10 68.18 69.73 69.05 68.43 68.06 74.24 75.45 74.43 75.04 76.31 77.04 77.35 76.66 76.38 76.23 75.95 75.68 75.70 75.70 75.84 76.02 75.78 75.80 75.70 75.64 75.37 74.98 74.71 74.76 75.05 75.00 74.58 73.98 73.83
47.78 42.24 38.82 41.88 41.75 42.80 48.69 50.76 52.10 51.47 53.16 57.35 59.58 53.89 64.02 69.27 69.71 67.37 68.98 67.16 70.07 74.35 73.95 74.04 74.80 75.64 76.09 76.14 76.63 76.25 75.85 75.73 75.41 75.69 75.76 75.64 75.65 75.55 75.45 74.64 74.96 74.87 74.30 74.38 74.50 74.57 74.32 73.85 73.40
48.68 41.53 38.32 40.35 42.12 43.06 47.85 46.91 51.78 54.86 53.91 55.83 57.06 56.09 69.75 70.89 69.70 68.67 69.31 67.69 71.11 73.02 72.91 73.30 73.97 74.47 74.61 75.15 76.14 76.14 76.46 76.15 75.61 75.64 75.53 74.70 73.60 74.05 74.67 74.45 75.05 74.96 74.49 74.18 74.05 74.12 73.86 73.74 73.75
44.52 39.70 41.33 44.95 45.53 44.74 46.78 47.78 48.39 50.54 52.55 52.19 54.61 60.14 69.05 69.80 68.32 64.21 65.06 65.12 64.74 69.92 71.93 72.62 73.01 73.36 73.39 75.18 74.68 74.39 75.13 74.82 74.29 74.17 74.04 72.61 71.05 72.06 73.26 73.53 74.52 74.89 74.54 74.18 73.73 73.53 73.23 72.96 68.47
43.14 41.87 44.80 46.57 48.00 48.13 47.47 48.05 48.98 48.13 46.73 50.26 51.14 54.51 64.63 65.12 66.46 66.32 65.69 64.58 63.65 67.23 71.54 71.67 71.62 71.86 70.26 73.04 73.12 73.03 73.54 73.49 72.95 72.72 72.69 70.88 70.85 71.16 71.55 70.60 71.82 71.76 73.73 71.55 72.16 71.52 70.77 69.10 67.24
40.84 46.03 46.60 47.24 48.77 48.15 46.33 47.85 47.22 47.65 47.75 50.46 52.15 53.46 54.05 60.43 63.20 64.67 65.43 65.31 70.17 70.58 70.48 69.37 68.62 66.34 68.73 72.49 71.65 71.01 70.92 70.43 69.90 70.36 71.80 70.09 69.53 69.37 69.32 70.42 70.19 70.47 70.45 69.79 68.86 69.47 69.33 68.41 67.47
42.75 44.63 47.19 48.45 48.03 47.65 48.16 46.63 47.40 47.34 50.72 51.47 51.72 52.13 51.54 52.30 62.18 64.03 65.25 69.59 70.48 70.05 70.45 69.04 68.52 68.39 69.31 70.86 69.78 69.90 69.90 69.88 69.98 70.39 72.03 70.30 69.43 69.76 70.01 69.86 69.52 70.22 70.35 69.97 68.56 68.80 68.79 68.52 68.30
44.37 45.63 46.37 46.63 46.93 47.65 45.74 46.17 46.78 48.36 50.79 50.17 50.33 50.28 50.66 51.50 52.95 58.16 60.54 68.00 68.11 69.89 70.59 67.17 67.65 68.34 67.65 68.23 69.81 69.88 70.45 70.51 70.81 71.19 72.61 72.28 71.07 71.18 70.01 69.61 70.38 70.49 70.56 70.25 69.35 68.88 67.96 68.81 69.32
44.97 42.12 44.62 46.53 45.65 45.72 47.35 43.62 45.40 48.27 49.85 48.40 48.88 49.38 50.29 51.05 52.03 52.85 57.82 68.03 67.04 68.51 68.71 66.70 67.09 67.71 66.84 66.99 66.15 73.00 72.31 70.89 70.90 71.64 72.47 73.07 72.44 72.47 71.73 71.95 71.04 70.57 71.99 71.32 71.11 72.22 72.21 71.27 69.77
41.92 42.16 38.18 42.44 45.10 45.82 45.25 40.53 45.24 47.96 47.49 47.44 48.76 49.35 50.17 50.01 51.45 52.44 55.02 68.79 67.47 66.34 65.52 66.99 67.32 63.81 63.82 63.45 65.43 71.96 71.61 70.49 69.49 68.86 71.11 70.76 71.42 69.78 71.84 70.42 68.91 69.27 72.00 71.36 70.08 69.78 69.65 69.20 67.55
40.09 35.98 37.28 40.27 44.12 44.70 43.74 41.74 45.78 47.82 47.13 47.11 47.95 48.83 49.38 49.21 50.84 52.12 54.10 67.23 66.98 65.55 66.73 66.56 65.31 62.87 64.83 65.69 67.22 69.90 70.71 67.33 67.91 68.18 68.10 69.78 70.30 69.13 67.89 68.16 66.90 66.77 66.42 64.82 65.32 63.78 67.42 68.93 68.57
35.49 36.48 39.65 39.74 43.58 44.41 42.48 42.19 45.27 47.13 47.74 47.34 47.71 48.47 48.69 48.85 50.17 52.58 53.88 63.60 66.76 67.62 67.17 64.12 66.64 65.59 65.74 64.45 64.84 66.01 65.80 68.28 66.04 66.77 67.56 68.47 70.05 67.76 67.38 67.35 67.33 64.65 66.63 63.71 64.82 63.66 64.68 69.44 67.39
42.03 40.39 40.11 43.18 46.24 44.22 42.60 43.04 44.56 47.78 47.55 47.04 47.38 47.59 48.06 48.66 50.33 52.56 56.34 63.40 67.65 67.81 66.37 62.43 62.54 65.08 64.19 64.16 63.01 62.94 62.41 63.92 67.06 64.52 68.23 68.02 66.84 68.34 66.57 66.29 65.39 63.93 66.54 64.00 66.57 66.45 66.50 63.58 62.50
41.97 39.69 39.39 43.77 47.07 45.07 43.88 43.06 46.58 48.42 48.01 47.80 48.04 48.76 48.25 48.31 49.67 51.44 59.74 63.63 67.26 67.75 66.17 65.61 65.01 66.77 64.71 64.46 64.87 64.31 63.39 65.06 70.03 65.34 66.53 65.86 65.41 67.63 63.29 65.10 64.60 64.97 69.22 66.04 65.47 64.93 62.91 61.83 62.22
40.85 39.02 39.85 40.55 45.18 46.95 44.85 41.86 44.76 49.55 50.10 50.62 50.38 50.43 49.63 48.81 48.81 50.62 61.35 64.39 66.05 67.68 69.89 69.57 69.65 67.60 66.44 68.64 69.74 69.37 68.94 69.13 69.15 68.25 65.96 66.24 67.16 69.67 68.11 66.71 67.47 64.54 63.29 61.88 63.70 62.95 62.74 59.63 60.89
37.82 43.43 43.58 43.32 42.34 37.18 44.57 32.72 42.21 46.37 47.13 49.48 49.01 47.51 48.40 50.03 50.38 50.38 61.83 62.98 67.04 67.99 70.87 71.62 71.85 70.67 71.21 71.81 69.37 69.30 67.63 66.39 68.15 68.04 68.32 66.01 67.61 68.92 65.91 63.84 63.12 63.53 62.87 61.85 62.96 63.70 63.21 61.40 58.33
40.35 45.28 43.77 43.24 41.66 39.22 40.10 35.09 39.50 45.55 46.00 47.57 47.69 48.62 48.62 49.40 49.88 50.60 59.67 63.23 67.04 66.68 66.86 68.66 70.15 69.66 69.28 69.31 68.81 67.38 66.70 63.62 63.11 64.57 62.63 61.35 61.55 62.88 63.80 63.16 62.46 62.41 62.12 62.24 61.83 61.39 61.11 61.41 60.58
45.29 43.84 43.71 42.35 37.96 31.27 37.80 37.32 37.09 41.76 45.23 47.02 48.83 49.58 50.78 51.29 50.70 50.62 60.23 61.93 64.49 64.11 65.76 66.93 65.26 63.82 63.61 65.43 63.96 63.25 62.89 62.78 63.23 61.45 60.20 61.48 62.70 62.71 62.12 63.22 62.07 62.49 61.73 61.23 61.66 60.71 59.50 59.59 59.72
42.78 39.25 33.33 31.21 30.21 29.76 39.96 37.08 37.97 45.45 49.30 50.03 49.20 49.34 50.25 53.82 52.49 54.16 58.74 59.78 64.18 64.08 63.86 64.31 62.29 60.46 60.06 60.14 59.86 58.75 59.44 58.77 57.99 58.66 58.86 58.07 57.86 59.28 58.60 58.73 58.32 58.51 58.87 58.84 58.69 57.59 57.56 57.38 57.48
40.29 39.50 32.67 25.54 27.81 31.77 40.75 34.73 40.07 47.41 49.70 51.85 52.59 50.81 53.62 55.29 57.07 57.38 59.07 62.99 62.87 62.13 61.63 60.71 58.73 57.69 58.34 58.63 58.15 57.51 57.98 58.03 57.38 56.66 55.91 55.77 55.48 56.76 57.87 56.99 57.08 57.16 57.53 57.16 56.99 56.73 56.74 56.47 55.88
41.34 38.42 42.45 36.91 38.65 33.84 36.51 39.67 46.23 49.04 49.86 50.06 51.82 52.59 51.79 54.39 56.13 57.78 61.51 61.23 60.56 60.36 59.43 58.52 58.03 57.51 57.77 57.56 56.71 56.34 56.06 55.73 55.62 55.93 55.86 56.95 56.32 57.19 56.67 56.96 57.04 56.89 57.05 57.11 56.79 56.12 55.31 56.08 56.04
44.34 44.95 37.37 36.73 28.93 28.60 35.32 38.71 38.23 45.14 46.63 50.56 49.17 50.83 54.28 56.15 57.29 58.68 58.82 58.77 58.61 58.29 57.88 57.14 56.49 56.16 56.23 55.59 55.66 55.23 54.91 55.05 54.71 54.56 54.33 54.62 55.50 56.09 55.80 55.58 55.68 55.73 56.23 56.23 55.76 55.11 55.53 54.84 54.86
42.09 41.16 40.37 38.40 35.36 29.10 28.62 35.96 46.70 45.53 46.45 48.32 50.05 51.61 52.82 55.14 56.07 56.20 55.99 56.08 56.18 56.01 55.63 54.67 54.71 54.59 54.47 53.74 53.72 53.25 53.09 53.56 53.74 53.58 54.20 54.56 54.82 55.27 55.36 55.21 54.94 54.88 54.67 54.78 54.46 54.26 54.64 54.03 53.21
45.42 41.24 40.95 33.28 33.38 36.76 33.90 36.57 49.29 47.98 50.18 49.88 49.40 52.13 53.80 53.88 55.18 55.43 55.38 55.37 54.89 54.30 54.33 52.54 53.24 52.82 52.28 52.51 52.11 51.62 52.57 52.85 52.78 53.02 53.61 54.10 53.53 54.07 54.40 54.74 54.41 54.62 54.49 53.32 52.92 52.88 53.51 52.75 52.12

GFSSGP_sfc_wetblb_123.txt.gz
Wetbulb
61.14 55.61 49.22 50.22 44.56 41.93 38.76 43.40 47.16 48.51 50.36 53.76 54.45 57.17 60.75 62.47 61.50 54.97 69.79 72.42 74.16 74.58 75.91 76.80 77.58 77.89 77.49 76.94 76.38 76.35 76.05 76.03 76.06 75.83 75.69 75.83 76.08 76.36 76.60 76.60 76.41 76.24 74.96 74.93 74.19 74.35 74.22 73.89 73.85
56.47 53.70 48.27 45.34 40.70 36.48 39.23 44.94 47.21 49.66 52.06 54.18 55.32 63.50 65.12 63.73 68.71 68.86 69.47 72.99 74.15 75.17 75.65 75.94 77.73 77.73 77.44 76.73 76.27 76.24 76.15 75.83 75.85 76.03 75.68 75.76 75.90 76.25 76.65 76.67 76.43 75.66 74.75 74.95 73.93 74.58 74.38 74.26 74.06
56.71 53.06 43.96 41.42 38.12 38.43 40.09 46.06 47.74 51.59 53.87 53.47 53.43 58.62 66.02 65.41 69.55 69.92 72.26 73.30 74.65 74.84 75.25 75.69 77.56 77.51 77.21 76.33 76.17 76.15 75.97 75.80 75.80 76.13 75.93 75.68 75.90 76.07 76.21 76.40 76.23 75.12 74.43 74.39 73.91 74.09 74.51 74.21 74.13
49.89 45.92 45.39 37.80 36.76 43.30 45.87 47.54 49.24 51.00 53.45 53.22 53.33 52.35 67.04 71.97 70.03 72.37 73.17 73.87 74.16 74.84 74.96 76.70 77.30 77.15 77.15 76.16 76.08 76.16 76.10 75.90 75.80 76.08 75.90 75.70 75.52 75.75 75.75 75.99 75.75 75.33 74.20 73.90 74.15 74.67 74.81 74.51 74.13
45.57 41.80 35.77 35.27 38.54 42.72 47.59 48.80 49.11 48.84 49.33 51.05 52.26 53.39 66.26 71.79 73.45 72.91 72.84 73.65 73.39 73.90 74.89 76.13 77.05 76.98 76.90 76.11 75.86 76.14 76.02 75.80 75.67 76.02 75.78 75.60 75.65 75.72 75.87 75.79 75.70 75.31 74.97 74.32 74.13 74.74 74.78 74.53 74.51
41.05 39.06 31.75 32.30 38.14 45.09 46.66 49.38 47.72 48.22 49.11 50.95 50.41 58.57 65.12 69.63 72.33 72.25 72.69 71.78 73.66 73.76 75.72 75.84 76.81 76.72 76.62 76.25 76.05 75.88 75.63 75.61 75.51 75.59 75.76 75.80 75.69 75.92 75.83 75.84 75.60 75.36 75.09 74.81 74.56 74.86 74.38 74.08 73.96
38.81 34.94 31.96 32.74 39.19 41.98 44.86 49.29 46.42 46.79 45.85 47.77 50.45 62.32 65.06 67.80 70.04 72.58 71.66 72.44 73.46 74.95 75.40 75.87 75.59 76.26 76.64 76.21 75.77 75.69 75.57 75.52 75.29 75.16 75.35 75.68 75.81 75.73 75.76 75.40 75.12 74.93 74.80 74.85 74.89 74.45 74.00 73.65 73.36
42.47 37.71 32.73 35.35 36.82 38.75 45.10 46.97 47.54 46.21 46.48 50.29 57.83 61.68 62.69 67.41 68.91 71.18 72.19 73.33 73.32 74.05 74.72 75.05 75.13 75.24 74.74 74.85 76.05 75.68 75.58 75.40 75.12 75.13 75.15 75.18 75.53 75.43 75.46 74.42 74.50 74.43 74.23 74.30 74.58 74.28 73.89 73.40 73.11
44.54 34.98 31.26 35.09 37.39 39.74 44.16 43.35 47.51 49.74 47.14 48.47 54.24 62.13 67.55 69.22 68.90 70.64 71.31 72.12 72.17 72.68 73.49 74.30 74.34 74.21 74.36 74.44 74.97 75.70 75.61 75.34 75.18 75.20 75.20 74.03 72.60 73.09 73.64 74.02 74.12 74.47 74.03 73.75 73.92 74.01 73.83 73.70 73.59
39.07 33.16 35.92 41.03 41.77 40.14 43.64 43.86 45.52 46.05 46.12 47.10 50.04 67.80 68.06 67.70 68.00 68.73 69.35 70.16 70.74 71.15 72.56 73.74 73.83 74.03 73.76 74.78 74.20 73.64 74.06 73.85 73.46 73.35 73.23 72.25 71.52 71.79 73.19 73.54 74.30 74.48 74.26 73.92 73.80 73.61 73.56 73.34 70.12
38.43 37.00 41.24 42.57 45.03 44.76 44.27 44.20 46.85 43.96 43.28 46.89 46.55 65.03 66.39 66.86 67.46 66.90 67.26 70.53 70.51 71.34 72.24 73.33 73.68 73.32 73.07 73.47 73.36 73.99 73.64 73.02 73.06 73.21 72.81 71.77 71.20 71.23 72.13 71.03 71.22 70.89 72.68 71.07 71.40 70.60 69.91 68.94 67.95
36.02 40.46 43.09 42.77 44.93 44.45 44.17 46.26 45.29 44.94 45.71 48.23 49.25 66.43 66.99 65.60 65.08 64.16 63.89 65.97 69.76 70.52 71.13 72.16 71.79 70.78 72.25 72.37 72.71 73.16 72.68 72.82 72.30 72.83 72.56 71.19 70.01 69.31 69.72 69.60 69.31 69.10 69.38 68.81 68.72 68.36 68.23 67.75 67.93
35.24 38.26 41.83 45.30 44.59 43.81 44.97 44.12 44.01 44.93 47.71 49.61 49.07 58.45 65.86 65.37 64.26 63.17 66.91 67.05 68.31 68.41 69.51 70.34 70.71 70.87 72.06 71.77 71.91 72.20 72.04 72.46 72.29 72.06 72.46 71.82 69.97 68.65 68.81 68.54 68.02 68.50 68.83 68.45 68.09 67.39 67.17 67.10 67.11
39.52 40.00 40.96 41.07 40.57 41.57 43.15 44.60 43.91 46.01 48.04 48.17 48.28 47.45 49.85 51.85 62.53 62.58 66.87 65.89 66.70 67.33 68.29 69.50 69.55 70.73 71.17 70.66 70.88 71.62 71.90 71.84 71.86 71.57 71.87 71.86 70.00 68.47 67.99 67.71 68.52 67.48 67.73 66.72 65.96 66.53 66.74 68.02 67.30
40.70 38.30 40.00 40.06 41.81 39.94 42.29 40.85 42.20 46.36 47.81 46.75 46.92 46.79 47.02 49.67 57.95 62.76 66.88 66.21 66.52 67.15 68.13 68.69 68.93 69.48 69.74 69.33 69.56 69.53 70.37 70.70 70.08 70.27 70.93 70.87 68.37 67.99 68.07 66.64 67.34 66.33 66.22 65.86 65.68 65.46 65.61 65.74 66.49
38.21 37.60 33.95 37.19 40.22 41.67 42.18 37.54 44.07 46.08 45.75 45.70 46.71 46.78 46.92 47.45 50.09 61.88 66.32 67.53 67.07 66.91 67.33 68.08 69.60 68.87 66.79 66.30 67.55 68.09 68.61 69.01 68.88 69.96 70.43 70.04 69.55 69.06 66.67 65.71 67.02 66.60 65.94 65.92 65.90 65.52 64.27 64.93 65.39
34.82 28.61 31.69 35.07 39.44 40.14 40.13 37.08 43.55 45.55 44.61 44.35 45.03 46.12 47.00 46.04 47.50 59.17 66.54 68.12 67.72 67.36 67.15 66.59 66.92 66.09 65.49 64.40 66.04 66.83 66.94 67.68 68.20 69.38 69.67 69.15 68.99 68.15 66.25 65.94 66.05 67.14 66.30 65.76 66.19 65.83 65.41 63.31 64.39
30.39 30.15 33.32 34.58 38.83 38.96 38.83 37.95 41.45 43.80 44.13 43.84 44.09 44.66 45.52 46.03 46.95 58.79 66.00 67.75 68.50 67.28 67.70 66.57 65.76 65.37 63.94 63.69 66.53 67.36 65.02 65.29 66.80 67.59 69.31 69.12 68.94 68.69 67.64 66.69 66.49 66.17 65.35 65.02 65.27 64.41 64.59 64.23 63.69
37.89 35.77 34.95 37.22 40.97 39.42 37.41 37.70 40.03 42.63 42.32 42.05 42.18 42.47 43.52 44.69 46.48 57.46 64.70 66.56 68.59 67.73 66.92 65.82 63.70 63.51 63.76 62.42 63.65 66.84 64.75 64.52 64.75 65.67 66.94 67.55 69.24 69.46 68.52 67.14 66.67 65.70 64.82 65.22 64.77 64.02 62.81 62.53 63.35
37.59 35.69 34.90 38.66 41.74 38.74 38.64 38.62 40.89 41.70 42.25 42.10 43.90 43.09 43.47 43.74 43.96 56.50 63.52 64.87 66.63 65.99 66.14 64.49 63.77 63.17 63.58 64.43 62.63 63.60 62.13 62.69 64.12 64.61 65.83 66.60 68.22 67.77 66.79 66.99 67.34 65.46 64.64 64.10 64.07 63.35 62.65 61.81 64.35
37.14 36.07 35.69 36.45 40.45 40.13 38.36 36.46 39.25 43.43 43.04 43.83 43.50 44.09 44.29 45.17 44.74 56.79 62.10 62.72 64.30 65.11 64.91 64.52 64.12 63.29 63.85 63.63 62.72 62.25 62.13 62.06 63.61 62.60 63.67 65.43 65.85 67.59 64.01 64.64 63.71 62.95 62.93 63.76 62.75 62.89 63.17 60.13 59.79
34.91 40.89 40.70 39.46 36.54 30.07 38.38 28.48 36.69 40.77 41.99 43.81 44.83 42.95 44.20 45.35 44.80 57.63 61.46 62.07 63.17 64.07 65.07 64.71 63.83 62.74 63.71 63.04 63.11 62.05 60.07 60.35 62.68 62.71 62.77 63.49 63.89 64.98 63.97 63.65 63.38 63.07 62.76 61.95 61.47 62.62 62.08 59.40 57.42
38.51 42.87 40.40 40.28 35.80 32.17 34.90 30.45 34.66 38.92 39.37 41.70 43.39 44.94 45.81 46.18 45.97 56.46 61.51 62.87 63.53 63.93 63.04 61.91 62.91 62.71 63.21 63.44 63.63 64.25 62.71 63.68 64.30 64.67 63.94 62.71 63.91 65.24 67.12 65.93 64.06 61.04 60.95 60.63 60.37 58.87 58.55 58.67 58.17
44.58 41.14 39.48 37.99 35.26 26.22 33.70 32.26 32.93 36.54 40.32 42.14 44.62 45.97 46.95 46.01 45.50 56.84 62.18 63.97 63.82 63.68 62.14 61.93 62.35 61.56 63.09 63.89 64.70 64.77 63.45 62.19 62.46 60.24 60.13 59.40 59.44 60.00 60.60 60.57 60.26 59.93 59.29 59.03 58.06 56.52 55.64 55.24 55.08
41.67 36.13 27.14 25.25 24.74 26.04 34.23 32.22 35.05 40.27 43.70 44.94 45.39 46.20 46.46 45.67 50.56 59.48 62.00 62.98 65.49 65.60 64.77 63.08 60.16 57.72 59.10 60.23 60.17 60.16 59.62 60.48 59.80 57.93 57.13 58.13 55.57 55.14 55.70 56.28 56.23 56.28 56.44 56.34 55.46 54.33 54.02 53.44 53.16
38.48 36.85 26.15 21.12 22.01 25.85 36.18 30.01 35.28 44.65 48.79 49.51 50.58 50.69 49.96 44.11 55.38 60.38 61.89 64.26 61.15 58.65 58.93 57.54 56.65 55.79 56.61 56.53 55.77 55.83 55.28 55.16 54.24 53.84 53.74 53.63 53.59 54.45 54.19 54.52 54.84 55.15 55.18 54.48 53.78 53.04 52.95 52.80 53.02
40.02 35.59 38.00 32.50 33.48 29.15 32.11 35.60 43.43 49.03 48.92 50.96 53.32 55.22 56.09 57.15 58.69 59.32 58.27 57.37 56.47 56.19 56.13 56.05 55.85 55.40 55.20 55.34 55.10 54.88 54.78 54.07 53.73 53.30 53.74 53.35 53.51 54.93 54.13 54.30 53.86 53.84 53.82 53.84 53.08 52.67 52.65 52.67 52.80
41.29 41.53 32.86 33.70 25.75 25.39 31.56 34.90 35.51 42.94 45.85 49.17 50.89 51.71 53.59 55.27 55.55 55.71 56.38 56.01 56.39 56.31 55.81 56.24 56.75 55.29 54.22 53.99 54.20 53.53 52.85 53.51 53.77 53.62 52.42 52.42 52.71 53.10 53.16 52.95 52.83 52.65 52.83 52.90 51.82 51.32 52.10 51.86 52.23
40.52 38.06 37.63 34.89 31.96 25.97 27.11 33.16 42.16 44.29 47.22 48.88 50.21 51.28 51.86 52.97 53.66 54.00 53.78 53.38 53.00 53.57 53.94 54.23 53.63 53.59 51.33 52.51 51.09 51.71 51.70 52.90 52.39 51.58 51.48 51.66 51.51 52.28 52.27 52.58 52.47 52.62 52.21 51.93 50.84 50.61 50.88 50.96 51.01
41.38 37.77 37.91 28.82 28.91 31.96 31.79 33.04 45.92 47.34 49.32 50.27 50.55 51.67 52.19 52.41 51.15 49.67 49.39 50.40 50.58 50.65 51.11 51.17 51.29 50.08 48.86 48.91 48.68 48.38 48.48 48.53 48.42 48.82 49.24 50.11 49.97 50.41 50.71 51.82 51.70 51.25 50.87 50.01 49.72 49.71 50.11 49.95 49.59

GFSSGP_sfc_wetblb_129.txt.gz
Wetbulb
64.40 60.19 56.40 56.01 50.30 51.13 49.13 50.82 53.01 52.93 53.98 56.63 56.85 56.89 59.24 61.90 62.98 60.77 73.38 75.05 74.77 76.22 77.38 77.13 76.97 77.33 77.18 77.20 77.02 77.06 76.93 76.91 77.04 76.89 76.61 76.46 76.02 75.87 76.36 76.66 76.79 76.67 75.44 74.58 74.24 74.09 73.97 73.91 73.87
62.26 55.37 54.67 53.58 48.50 46.39 48.96 52.14 51.77 55.46 55.75 57.55 58.07 57.36 61.56 63.52 70.12 70.74 71.98 74.71 75.59 76.72 77.33 76.99 77.14 77.12 77.15 76.84 76.69 76.43 76.58 76.56 76.53 76.36 76.24 76.07 76.04 76.48 76.48 76.38 76.19 75.89 75.03 74.31 74.34 74.21 74.12 74.01 73.88
58.12 54.67 50.15 48.65 47.12 46.72 48.86 51.71 53.74 55.55 56.32 56.36 55.85 57.20 62.54 65.98 70.90 71.76 74.43 75.33 76.08 76.60 77.24 77.37 77.04 76.84 76.87 76.64 76.45 76.15 76.03 75.96 75.96 76.01 76.21 76.21 76.36 76.41 76.25 76.29 75.74 75.07 74.92 74.28 74.52 74.44 74.20 74.00 73.94
53.81 54.39 51.43 44.68 45.38 49.26 52.20 53.46 54.29 53.86 54.90 56.03 55.35 55.14 58.66 72.89 72.08 73.82 75.31 75.71 75.72 76.08 76.90 77.01 76.71 76.51 76.59 76.54 76.36 75.98 75.66 75.61 75.74 75.89 76.06 76.20 76.30 76.14 76.04 76.13 75.57 75.38 74.17 74.47 74.65 74.43 74.18 74.18 73.80
51.99 50.21 43.94 42.44 43.71 47.42 50.47 54.56 54.08 54.03 53.80 54.64 54.39 54.47 55.19 72.66 74.18 74.91 75.17 75.34 74.98 75.61 76.51 76.94 76.66 76.43 76.49 76.59 76.31 76.01 75.56 75.28 75.46 75.63 76.03 76.07 76.06 75.86 75.99 75.73 75.39 74.93 74.59 74.20 74.36 74.14 74.34 74.42 73.91
46.99 48.18 41.14 39.70 42.34 46.18 49.24 51.68 52.51 53.13 53.48 52.88 53.15 53.52 57.64 73.83 73.63 74.30 75.28 75.03 75.30 75.31 76.21 76.40 76.70 76.31 76.16 76.29 75.93 75.75 75.55 75.31 75.01 75.18 75.53 75.57 75.41 75.66 75.67 75.45 75.29 75.04 74.82 74.39 74.16 74.04 73.97 73.82 73.40
44.73 44.01 40.82 40.81 40.94 43.11 45.89 51.66 50.93 51.83 52.53 52.72 53.74 52.42 58.05 70.27 74.02 74.81 75.08 75.40 75.43 75.94 75.76 76.11 76.17 76.10 76.18 75.79 75.52 75.47 75.26 75.04 74.70 74.64 74.73 75.01 75.22 75.19 75.27 75.12 75.20 74.93 74.73 74.68 74.46 73.94 73.57 73.20 72.43
47.90 45.84 40.67 41.23 40.65 41.32 46.04 48.19 50.77 51.10 51.04 53.48 54.13 52.28 55.52 70.13 74.15 74.46 75.01 74.89 75.06 75.60 75.71 75.75 75.74 74.74 74.67 75.43 75.64 75.24 75.21 75.15 74.72 74.65 74.78 74.76 75.21 75.26 75.11 74.25 74.59 74.60 74.11 74.13 74.03 73.61 73.17 72.85 72.23
47.67 42.04 39.62 40.80 40.95 42.63 47.49 46.74 49.83 51.39 50.51 51.19 52.60 58.99 67.16 72.29 73.36 73.28 72.73 73.15 73.75 74.44 75.35 75.68 75.35 74.92 74.15 74.13 74.74 75.33 75.37 75.21 74.85 74.96 74.81 74.32 73.55 74.46 75.02 74.38 74.81 74.40 73.96 73.56 73.47 73.10 72.55 72.47 72.33
46.09 42.28 41.93 44.29 44.93 44.11 46.04 46.83 48.76 48.98 49.40 49.85 51.69 54.27 68.30 71.57 72.57 71.76 71.05 70.58 71.56 72.61 73.80 74.62 75.26 74.55 74.10 73.49 74.70 74.29 74.26 74.27 74.12 74.12 74.23 73.73 74.14 74.36 74.03 74.43 74.71 74.40 74.01 73.29 72.85 72.58 72.64 72.09 70.74
45.37 42.03 45.17 44.79 46.50 47.15 46.30 46.59 48.91 47.61 47.06 50.07 50.47 52.65 64.76 69.87 71.41 71.85 71.68 71.79 71.50 72.46 72.99 73.44 74.24 74.75 74.38 73.57 74.50 74.16 74.01 74.05 74.24 74.55 74.57 74.38 73.83 74.16 73.74 73.33 73.40 73.92 73.68 72.68 72.92 72.81 71.82 71.45 70.88
41.83 44.91 45.84 46.18 46.99 47.49 46.24 48.03 47.05 48.09 48.78 51.33 51.86 52.76 63.11 66.80 70.47 71.26 71.17 71.39 71.96 72.47 73.25 73.65 73.94 74.25 75.03 74.80 74.07 73.91 73.72 73.97 73.26 73.81 74.59 73.61 72.95 73.35 73.11 72.67 73.12 73.56 73.18 72.80 72.46 71.27 71.54 71.93 71.92
42.24 44.26 45.12 46.60 46.92 46.99 47.71 46.49 47.11 47.45 50.27 51.80 51.88 52.88 53.70 65.10 70.02 72.00 72.76 72.48 72.69 72.39 73.60 73.82 74.02 73.84 74.66 75.15 74.21 74.41 73.82 73.63 73.73 73.61 74.33 73.75 72.79 72.91 73.19 72.81 72.60 72.62 72.73 72.45 72.01 71.64 71.88 72.15 72.53
45.49 44.53 44.94 45.45 45.90 46.53 45.16 45.65 46.71 48.13 51.15 50.93 51.42 51.97 52.95 62.91 69.54 70.16 71.46 72.29 72.01 72.61 73.19 74.06 74.28 73.60 74.94 74.74 74.08 74.27 74.27 74.44 74.16 73.65 73.72 74.13 73.58 73.09 72.62 72.67 72.21 72.09 72.28 72.02 71.91 72.03 72.21 72.61 72.58
45.98 41.73 42.87 44.41 45.26 44.34 45.62 42.40 43.55 47.97 49.50 49.02 50.80 51.45 52.85 58.25 69.82 69.40 70.84 72.48 72.93 72.96 73.09 73.65 72.94 73.33 73.95 74.62 73.74 74.25 74.49 74.59 73.99 73.99 74.54 74.09 74.21 73.75 72.88 72.21 71.80 71.96 72.58 72.98 72.92 72.50 72.00 71.28 70.63
43.02 43.26 39.64 44.59 43.43 44.46 43.80 40.72 45.28 48.19 48.21 48.06 49.39 50.60 52.19 53.56 68.02 70.07 70.79 72.18 73.78 73.89 72.23 72.59 72.50 72.81 73.25 74.01 73.67 73.38 73.91 74.12 74.02 74.33 74.44 74.48 74.19 74.21 73.39 72.23 71.63 72.52 70.84 71.43 71.04 70.55 69.82 69.97 69.71
40.91 38.41 38.95 41.57 44.92 44.55 42.26 41.27 45.72 47.86 47.70 48.26 49.99 51.30 51.98 53.43 54.87 64.62 69.56 71.45 73.10 74.08 73.75 73.29 73.39 72.21 72.19 72.90 73.19 73.09 74.04 73.98 74.29 74.38 74.62 75.05 74.68 74.29 73.45 72.40 71.55 71.66 71.17 70.77 70.86 70.09 69.72 69.28 69.67
37.86 36.74 38.14 39.11 42.91 43.85 42.88 41.40 45.28 46.55 46.65 47.50 49.65 50.93 51.38 52.66 54.25 56.29 65.62 69.89 71.57 73.19 73.76 74.00 73.34 73.17 72.07 72.24 72.36 72.42 72.63 72.65 73.21 73.16 73.51 74.56 74.67 73.90 73.04 72.34 72.13 71.78 70.74 70.21 70.16 69.47 68.51 67.67 68.52
42.64 39.89 39.11 41.24 44.03 42.37 42.27 43.06 43.27 46.91 47.01 47.21 48.69 50.13 50.84 52.10 54.97 56.12 58.70 68.78 69.99 71.00 71.59 72.65 72.24 71.50 70.54 70.52 69.33 69.56 69.79 70.80 71.51 72.36 73.42 73.47 73.62 73.32 72.62 71.95 71.21 70.15 68.85 69.07 68.60 67.66 66.09 66.93 67.67
41.70 38.59 38.75 42.26 43.79 42.40 43.05 42.20 44.94 46.02 46.92 48.22 49.40 50.23 51.25 52.26 52.93 53.94 58.88 66.63 69.07 69.56 70.19 71.02 71.53 70.45 70.64 70.90 70.02 70.26 70.41 70.68 71.29 70.92 70.75 71.40 71.43 70.98 70.02 70.31 69.53 68.02 67.64 66.96 67.59 68.27 67.23 66.95 68.27
40.60 39.46 38.38 38.92 42.57 43.29 42.46 41.34 43.53 46.40 47.71 48.95 50.16 51.71 52.47 52.88 53.31 53.99 58.43 64.38 67.79 69.10 69.60 70.07 70.65 69.81 69.93 70.08 69.32 69.44 69.07 69.46 69.21 68.99 68.78 69.01 69.79 70.10 70.07 69.92 68.69 67.52 67.70 67.94 68.64 68.57 68.18 66.00 67.44
37.51 43.23 41.28 40.46 39.81 36.35 43.38 36.12 42.16 45.42 46.33 47.78 49.75 50.62 51.45 52.69 53.34 54.74 58.74 63.51 67.04 68.65 70.58 70.79 70.60 68.99 68.34 69.11 69.01 68.62 67.98 67.49 68.78 68.95 69.52 69.56 69.76 70.50 70.11 69.58 68.26 68.46 68.86 69.46 68.82 68.55 67.80 67.29 66.07
40.15 44.33 42.01 41.28 39.71 39.35 39.58 37.14 41.70 44.14 44.00 46.52 49.62 51.48 52.37 53.35 53.38 53.05 58.08 63.11 66.53 69.01 69.97 70.58 69.11 67.10 67.59 69.10 68.92 68.63 67.79 68.25 68.65 69.13 69.08 69.35 69.15 69.35 69.06 68.99 68.44 68.12 67.74 68.72 68.39 68.11 68.26 67.88 66.70
45.45 42.41 42.16 41.85 40.30 33.49 38.89 38.08 39.32 41.93 44.71 47.17 49.85 51.61 52.74 53.02 52.77 54.01 58.52 63.24 65.93 67.92 67.30 66.89 65.12 65.54 67.30 69.05 68.96 68.72 68.19 68.23 68.06 68.10 67.60 67.55 67.68 68.02 68.70 68.05 68.38 68.85 68.21 68.23 68.31 67.57 66.65 66.73 66.42
41.98 38.84 31.42 30.15 30.94 32.37 40.33 37.22 40.80 45.12 47.62 50.04 51.39 51.64 50.63 52.52 52.01 55.05 60.14 62.43 65.13 63.94 64.21 64.09 64.51 64.51 67.26 67.46 68.31 68.56 68.81 68.69 68.55 68.56 68.12 67.17 66.20 66.15 66.95 67.65 67.41 66.40 65.82 65.20 64.83 64.21 64.00 63.34 61.96
39.70 38.81 33.35 26.12 28.68 33.14 37.96 34.86 40.42 48.88 53.63 54.89 53.34 54.36 56.23 56.06 57.95 60.12 62.24 63.13 62.94 62.56 63.17 64.19 63.47 62.38 64.56 65.02 64.85 65.11 65.76 66.53 66.47 66.41 67.15 66.04 65.70 63.15 63.58 63.63 63.57 62.65 62.18 62.32 62.48 62.18 61.87 61.56 60.60
39.39 36.05 43.11 37.15 38.47 34.42 36.96 40.03 48.24 50.93 51.99 53.42 53.88 56.45 57.49 57.63 57.84 59.16 60.30 59.25 58.98 59.71 61.75 61.62 60.47 59.64 61.00 60.89 60.66 60.26 60.33 61.45 61.11 61.60 61.97 60.87 61.54 60.75 61.18 61.31 60.94 60.69 60.82 60.97 61.26 60.58 60.15 60.08 60.10
42.36 44.36 36.15 38.66 29.75 29.21 35.17 37.63 40.76 46.86 48.79 50.45 51.40 52.43 54.32 54.26 55.15 55.48 55.22 55.48 56.77 58.33 59.36 59.90 59.60 58.16 58.38 58.14 57.34 57.64 57.62 57.71 58.21 58.50 58.09 59.02 59.26 59.46 59.62 59.52 59.57 59.59 59.56 59.64 59.58 59.03 59.03 58.27 58.02
40.38 38.59 40.29 39.83 38.67 33.57 31.69 36.64 47.74 49.02 50.31 49.71 50.81 52.08 51.66 51.52 51.84 52.19 53.09 54.22 55.67 57.85 58.19 58.17 57.80 57.34 56.41 56.12 54.88 54.75 54.46 55.02 55.73 55.72 56.23 57.48 57.64 57.84 57.84 57.92 57.95 57.51 57.48 57.64 57.80 57.61 57.16 56.71 57.02
44.57 41.13 41.97 35.97 34.33 38.47 39.18 39.46 48.73 50.76 50.17 50.92 49.77 49.97 50.35 50.62 50.72 51.23 52.22 53.64 55.97 56.73 56.46 55.71 55.30 55.55 54.98 53.37 51.30 51.28 50.39 51.15 51.84 52.85 52.69 53.57 53.60 54.04 53.86 54.09 54.35 54.42 54.52 55.20 54.85 54.76 55.61 55.28 55.12

GFSSGP_sfc_wetblb_132.txt.gz
Wetbulb
65.06 61.82 60.02 56.78 53.90 55.21 52.90 54.38 58.00 56.06 56.32 59.95 60.55 59.69 61.32 64.06 63.32 63.21 76.32 76.75 76.07 77.83 79.13 77.08 77.22 77.85 78.00 77.90 77.82 77.34 76.86 76.71 76.61 76.56 76.68 76.71 76.23 75.91 76.36 76.83 77.19 76.76 75.45 74.75 75.13 75.10 74.64 74.31 74.38
61.52 57.47 56.41 56.67 52.43 51.10 52.44 56.95 55.56 57.93 58.99 60.34 60.60 60.29 61.56 64.09 70.47 73.32 74.90 76.11 77.12 78.26 78.86 77.35 77.17 77.54 77.74 77.74 77.43 77.38 77.28 77.19 77.11 76.93 76.88 76.41 75.78 76.31 76.66 76.83 76.86 76.04 75.13 74.51 74.46 74.32 74.20 74.08 73.92
60.76 57.16 53.39 53.06 52.43 50.79 52.96 56.92 57.17 59.17 59.91 59.63 58.95 60.60 61.75 65.50 72.84 73.99 77.07 76.50 77.50 78.14 78.61 77.96 77.14 77.17 77.44 77.51 77.25 77.05 76.95 76.92 76.95 76.71 76.38 76.26 76.43 76.73 76.50 76.61 76.59 75.74 74.84 74.44 74.44 74.34 74.22 74.08 74.04
55.19 54.66 53.21 49.73 50.75 54.13 55.36 57.86 57.76 58.42 59.24 59.72 59.02 58.24 61.10 69.90 70.83 75.74 76.92 76.56 77.69 77.85 78.11 76.81 76.83 76.76 76.96 76.99 76.95 76.72 76.72 76.62 76.58 76.48 76.33 76.30 76.50 76.32 76.17 76.11 75.98 75.90 74.55 74.75 74.75 74.35 74.30 74.07 74.28
54.81 53.09 47.17 46.64 49.44 54.26 57.27 58.32 59.34 57.72 58.20 58.49 58.35 57.93 59.66 69.04 75.78 76.99 76.33 76.38 76.77 77.55 78.13 77.43 76.75 76.66 76.79 76.86 76.73 76.42 76.22 76.17 76.25 76.33 76.40 76.35 76.17 76.06 76.00 75.93 75.98 75.80 75.22 74.96 74.79 74.52 74.76 74.53 73.55
49.77 50.75 44.78 44.26 47.37 51.48 55.26 56.94 57.93 58.03 59.52 59.62 56.94 58.32 60.48 74.31 74.29 76.83 76.52 76.44 77.04 76.87 78.02 77.07 76.71 76.55 76.25 76.53 76.23 75.77 75.60 75.62 75.82 75.90 76.22 76.22 75.96 75.89 75.79 75.55 75.51 75.50 75.32 75.22 74.57 74.38 74.46 74.61 74.05
48.54 47.36 44.47 45.64 46.43 48.28 51.21 55.63 54.43 55.80 57.19 57.83 58.48 55.97 61.43 68.80 75.06 77.33 76.62 76.54 76.73 76.81 77.31 76.57 75.62 76.68 76.30 75.97 75.64 75.49 75.19 75.19 75.22 75.33 75.58 75.56 75.68 75.66 75.64 75.47 75.20 75.33 75.28 75.26 75.13 74.66 74.36 73.76 73.22
51.56 48.75 45.53 46.12 45.43 46.13 50.33 51.59 53.34 53.79 54.62 59.26 58.79 55.55 58.03 71.41 74.97 77.03 76.85 76.34 76.34 76.56 76.67 76.36 75.40 74.93 74.90 75.78 75.84 75.54 75.09 74.94 74.74 74.96 74.93 75.01 75.32 75.46 75.29 74.67 74.94 75.23 75.02 74.97 74.58 74.03 73.56 72.91 72.48
53.34 46.31 44.74 45.96 45.80 47.36 50.25 48.67 52.36 54.07 52.67 54.10 56.31 58.16 64.99 69.83 74.46 75.83 75.91 75.77 75.60 75.74 76.11 76.39 75.56 74.64 73.98 74.11 75.33 75.58 75.42 75.17 74.64 74.86 74.74 74.28 73.34 74.44 75.02 73.76 74.67 74.77 74.55 74.28 73.76 73.49 73.06 72.77 72.61
49.50 47.09 47.90 50.39 50.40 48.39 50.12 50.15 50.87 50.45 51.07 51.77 54.03 57.13 64.92 69.30 72.64 72.90 74.22 74.30 74.42 74.80 75.55 76.24 76.35 74.93 74.23 73.39 75.03 74.55 74.41 74.44 74.13 73.57 73.85 72.68 73.42 73.77 73.60 74.37 74.65 74.70 74.21 73.59 73.63 73.56 73.26 72.69 71.34
50.23 47.97 51.77 51.32 51.17 50.75 49.76 49.55 50.85 49.85 49.64 52.31 52.40 55.17 60.34 65.47 70.77 71.69 73.24 74.87 74.99 75.47 75.83 76.31 76.77 76.60 75.14 74.49 74.59 73.88 74.41 74.26 74.48 74.57 74.23 74.24 73.96 74.04 73.71 73.93 74.63 75.23 73.86 73.46 72.60 72.56 71.17 70.12 70.24
47.22 50.72 51.57 52.49 51.68 49.93 49.08 50.89 49.86 50.38 51.35 53.39 54.61 55.99 56.05 62.95 66.01 70.94 72.16 74.35 75.03 75.02 75.40 76.24 76.95 76.56 76.05 75.07 74.92 74.67 74.48 74.78 74.56 75.12 75.77 74.76 74.04 74.28 73.70 72.84 72.93 73.38 73.30 72.97 72.93 72.16 72.14 71.89 71.53
48.71 49.53 50.98 51.29 51.32 51.00 51.22 49.86 49.85 50.40 52.64 53.56 53.84 54.40 54.95 56.53 62.68 71.93 73.53 74.61 75.70 74.73 75.47 76.18 76.79 76.63 76.18 75.81 75.64 75.46 75.34 75.27 75.60 75.49 75.97 75.50 74.53 74.28 74.10 73.80 73.36 73.36 73.07 73.07 73.07 72.25 71.70 71.87 71.93
49.54 49.31 49.61 49.92 50.39 50.87 49.39 49.72 50.23 50.95 53.17 52.87 53.22 53.71 54.59 56.16 58.90 70.96 73.62 74.16 75.11 75.38 75.55 76.41 76.62 77.22 77.04 77.23 76.96 75.98 76.01 76.07 75.84 75.38 75.51 75.89 75.33 75.00 74.49 74.26 73.79 73.15 72.75 72.16 72.22 72.16 72.02 71.75 71.67
49.37 46.36 47.99 48.96 49.49 48.34 50.08 46.94 47.81 51.91 52.72 52.10 52.95 53.68 54.31 56.29 58.06 70.10 73.91 74.49 75.49 75.73 76.18 76.61 76.71 76.79 75.93 77.23 76.79 76.52 76.20 76.34 75.83 75.49 76.42 76.00 75.92 76.04 75.78 74.43 73.45 72.84 73.72 73.73 73.26 73.06 73.28 73.19 73.44
47.21 46.92 43.40 48.29 48.95 49.59 48.24 43.71 48.87 52.42 51.65 51.07 52.05 52.88 53.51 55.43 57.44 70.64 74.44 75.64 76.61 76.08 75.90 76.70 76.34 76.25 75.30 76.31 75.88 75.94 76.13 76.44 76.15 75.78 75.93 75.66 75.87 76.08 75.61 74.20 73.78 73.70 73.63 73.19 72.45 72.58 72.43 72.63 72.76
46.28 42.51 43.28 45.89 49.97 48.46 47.46 45.17 49.72 50.57 51.60 51.30 52.60 53.15 53.13 55.02 57.97 69.04 73.93 75.24 76.59 76.85 76.66 76.22 76.50 75.67 74.84 75.83 75.91 75.19 76.37 76.11 75.78 75.59 75.54 75.48 75.55 75.93 75.63 74.61 74.31 75.04 73.32 73.29 73.53 73.22 73.23 72.55 71.61
42.33 42.66 45.14 45.27 48.21 47.57 46.55 45.82 49.21 50.83 50.58 51.49 52.45 53.12 53.24 54.47 57.01 60.11 70.98 72.42 74.76 76.72 77.56 77.13 76.12 75.11 74.72 74.48 74.53 73.84 74.24 74.88 74.93 74.89 75.00 76.11 76.31 76.25 76.18 75.18 75.05 74.37 72.63 72.52 73.25 73.40 72.48 69.22 68.53
46.47 45.93 44.63 46.67 49.06 46.59 46.33 47.44 48.12 50.38 50.25 50.72 52.26 53.25 53.79 54.84 57.88 59.64 61.38 67.67 71.93 75.36 76.65 77.06 75.93 75.33 73.44 71.82 71.71 72.31 72.75 72.67 73.35 74.71 75.70 75.88 75.93 75.90 75.48 73.46 74.16 73.71 72.48 72.66 69.28 68.35 67.77 68.92 68.79
44.89 43.95 44.55 46.73 47.70 46.44 46.98 46.36 49.32 50.66 50.45 51.32 51.98 52.63 53.52 54.78 56.81 58.44 60.47 64.79 70.57 72.88 75.05 76.14 76.12 73.36 72.18 72.34 73.02 72.86 73.17 72.89 73.70 73.98 74.94 75.33 75.19 75.14 74.82 74.35 72.89 72.24 70.66 69.44 68.76 68.12 67.22 67.96 69.89
43.86 43.49 43.79 44.01 46.52 47.55 46.14 44.97 47.55 49.78 51.40 51.98 52.70 53.58 54.44 54.71 55.94 57.95 58.95 61.95 67.62 70.47 72.90 74.62 75.84 72.63 72.40 73.86 72.27 72.13 73.24 73.31 72.46 71.70 71.72 73.01 73.28 73.73 73.13 72.27 71.87 70.86 69.79 69.37 70.32 69.59 69.18 67.87 69.94
40.98 46.27 45.51 43.61 43.13 39.98 46.06 40.28 46.41 48.54 49.54 50.67 52.06 52.69 53.46 54.92 56.26 57.83 58.69 61.30 65.47 68.61 71.79 73.86 75.11 71.87 71.31 72.16 71.36 73.12 71.64 70.43 71.44 71.85 72.05 71.78 71.84 72.14 72.72 72.22 71.43 71.05 70.14 69.28 70.51 70.86 70.46 70.29 67.26
43.07 47.16 45.55 44.94 43.19 43.46 42.96 40.74 45.93 49.06 47.83 49.68 51.58 52.61 53.86 55.43 56.04 56.66 58.00 59.70 63.73 66.88 70.10 73.34 73.85 70.17 69.51 70.22 72.16 72.35 72.17 72.12 72.40 72.28 72.31 72.03 71.19 71.94 71.38 72.08 71.08 71.31 70.74 70.83 71.32 71.39 70.74 69.50 68.93
47.49 45.14 45.07 45.23 43.44 37.78 42.82 41.95 43.97 46.39 48.25 50.36 52.22 52.82 53.84 54.87 56.08 56.99 58.43 60.35 63.60 67.14 70.76 72.96 68.09 68.15 68.12 70.06 71.74 71.58 71.82 71.19 70.81 71.05 70.49 70.29 69.82 70.59 70.99 71.16 71.37 71.30 70.72 70.50 70.53 69.82 69.57 69.62 69.31
44.01 39.95 32.47 32.17 33.05 35.70 44.12 42.24 44.82 49.50 50.23 51.34 52.10 53.08 54.40 55.74 56.24 57.12 57.57 60.10 64.34 68.91 68.45 68.08 66.99 66.86 68.76 71.16 69.72 69.76 70.74 71.38 71.17 71.06 71.43 70.19 69.25 69.16 70.15 70.06 70.18 69.58 69.94 70.28 70.76 69.28 68.91 67.82 66.37
42.76 42.03 37.48 30.54 32.92 37.01 43.24 39.31 44.37 49.90 53.25 56.06 56.56 56.37 56.76 56.79 57.41 57.52 59.65 63.22 67.49 65.61 65.40 65.68 66.36 66.60 67.52 66.57 66.63 68.43 70.50 69.08 67.98 67.55 69.24 68.01 67.59 67.14 67.92 69.11 69.33 68.48 67.97 68.18 68.00 66.15 65.58 65.76 64.79
41.88 39.96 46.39 40.99 42.20 39.32 41.01 44.43 49.50 51.64 53.45 55.03 56.86 58.02 56.81 56.86 57.89 60.86 63.83 66.11 63.53 64.29 63.91 64.21 64.84 65.18 65.20 65.54 65.58 66.21 66.16 66.31 65.33 65.66 66.44 65.10 65.27 64.42 64.94 65.38 65.98 65.79 65.43 65.24 65.01 63.87 63.95 63.74 63.81
44.85 46.73 37.91 41.02 33.47 32.90 39.19 41.24 43.24 48.65 51.58 54.68 56.85 54.97 55.62 57.29 58.13 58.91 59.96 61.03 62.59 63.27 64.29 65.48 66.25 65.31 65.08 64.71 64.44 64.16 63.73 63.78 63.59 63.35 62.82 62.48 62.67 63.15 62.80 62.60 63.15 63.10 62.84 62.85 63.23 62.58 63.05 62.01 61.51
42.41 40.24 42.20 43.86 41.82 36.76 35.95 41.21 51.38 51.50 54.03 54.38 52.26 52.75 53.26 54.04 55.22 56.37 57.42 59.72 61.26 62.93 63.91 63.90 63.27 62.68 62.38 62.06 61.89 61.29 60.20 59.85 59.24 59.01 58.84 59.59 60.29 60.18 59.95 60.02 60.42 60.53 60.88 61.53 61.26 61.23 60.95 60.27 60.58
44.90 43.87 43.74 38.21 38.64 42.15 41.86 42.64 54.43 55.14 54.77 51.54 50.79 51.32 52.12 52.83 54.29 55.26 56.87 58.97 60.23 60.60 61.62 61.44 61.66 61.23 60.86 60.24 59.17 58.21 57.48 57.06 54.51 54.99 55.50 56.16 57.43 58.14 57.42 57.43 57.44 57.76 57.73 58.82 58.32 57.72 58.24 57.84 57.59

GFSSGP_sfc_wetblb_135.txt.gz
Wetbulb
66.27 63.53 62.46 59.09 53.93 55.54 52.97 54.64 57.66 57.36 57.11 60.98 61.77 60.95 61.19 64.10 65.13 64.40 76.24 76.81 76.12 77.32 77.90 77.49 78.11 78.59 78.70 78.17 77.59 77.01 76.85 76.53 76.85 76.80 76.90 76.70 76.08 76.35 76.75 77.25 77.13 76.44 75.77 76.16 75.87 75.64 75.15 74.62 74.29
62.57 60.84 58.65 57.41 52.60 50.95 53.05 57.36 56.71 58.63 60.07 61.33 61.05 61.45 60.67 61.81 72.00 73.48 74.64 76.24 77.22 77.93 78.54 77.47 77.91 78.21 78.44 78.19 77.51 76.93 76.80 76.85 76.65 76.90 76.98 76.60 76.03 76.45 76.85 77.13 77.03 75.85 75.14 75.01 75.34 75.07 74.46 74.14 73.98
63.38 60.00 54.31 54.16 53.10 50.28 53.00 58.11 58.34 60.20 60.99 60.02 59.38 62.09 63.93 66.85 72.97 74.49 77.93 76.49 77.79 78.24 78.44 78.12 77.78 78.01 78.27 78.11 77.38 77.08 76.80 76.90 76.83 76.93 76.93 76.23 76.13 76.57 76.77 77.06 76.83 75.61 75.04 74.49 74.24 74.30 74.22 73.93 73.86
57.67 55.07 54.30 51.05 50.59 54.46 55.47 58.73 60.12 59.76 60.95 61.25 60.99 58.68 63.67 68.76 69.94 76.54 78.09 76.83 77.86 78.05 77.86 76.76 77.43 77.50 77.68 77.88 77.68 77.32 77.12 77.15 77.00 76.90 76.53 76.25 76.62 76.77 76.67 76.78 76.75 75.62 74.76 74.46 74.41 74.34 74.23 74.13 73.85
56.52 53.30 48.48 48.69 49.91 54.20 57.79 59.14 60.62 59.33 59.94 60.20 60.53 59.02 61.39 70.36 72.53 77.20 76.29 76.47 77.08 77.41 77.84 76.89 77.03 77.33 77.55 77.66 77.58 77.40 76.94 76.69 76.64 76.60 76.50 76.47 76.49 76.44 76.32 76.15 75.65 75.58 74.82 74.85 74.78 74.60 74.54 74.51 74.23
50.88 51.49 46.01 45.30 48.31 52.11 55.63 59.04 59.84 59.58 60.41 60.13 59.37 59.61 61.88 72.86 72.11 77.06 76.24 76.84 77.28 76.53 77.91 76.51 76.90 76.97 76.94 77.04 76.99 76.71 76.46 76.49 76.29 76.21 76.14 76.39 76.26 76.29 76.04 75.90 76.08 75.67 75.81 75.63 75.06 74.67 74.55 74.42 73.49
50.58 48.70 45.50 46.91 47.90 50.05 52.85 56.69 57.52 58.20 59.51 59.97 61.87 58.45 62.86 68.73 73.73 77.21 76.69 77.11 77.26 77.11 77.38 75.85 74.91 76.20 76.65 76.41 76.23 76.28 76.07 75.98 75.88 75.60 75.68 75.88 76.01 75.83 75.76 75.64 75.75 75.55 75.50 75.70 75.27 74.52 74.40 74.12 73.91
53.49 50.94 47.08 47.62 46.80 48.23 53.96 55.09 56.70 57.07 57.11 62.40 62.87 58.07 59.23 71.32 74.03 76.42 76.71 76.60 76.90 77.05 76.83 75.88 74.72 74.25 74.36 75.53 76.09 75.78 75.83 75.72 75.51 75.54 75.69 75.67 75.75 75.73 75.66 74.80 75.14 75.52 75.55 75.52 74.90 74.22 74.17 73.77 73.82
55.77 49.12 46.41 47.44 47.95 49.44 54.58 52.82 55.20 57.00 55.60 57.40 59.91 61.10 65.19 72.62 73.17 73.80 75.81 75.67 75.96 76.11 76.53 75.72 74.80 73.85 73.30 73.04 75.14 75.22 75.17 75.23 75.32 75.45 75.50 74.66 73.53 74.59 75.06 73.77 74.90 75.14 74.70 74.57 74.37 74.32 74.05 73.75 73.22
52.67 49.07 49.59 52.53 52.30 51.30 53.60 53.30 52.47 52.44 52.37 53.11 55.24 59.32 64.39 69.07 71.23 71.38 73.10 74.42 74.75 75.04 75.76 75.60 75.28 74.20 73.48 73.27 75.03 73.69 73.67 73.54 73.55 73.35 74.19 72.92 73.47 73.79 73.12 73.80 74.85 74.97 74.05 73.67 73.63 73.73 73.50 72.99 71.39
53.56 49.11 53.24 53.76 55.15 54.56 52.85 52.23 53.38 51.79 50.75 53.02 53.37 56.93 59.81 64.25 68.86 70.18 71.68 75.12 75.09 75.73 75.73 75.86 76.41 76.82 74.99 73.77 74.77 73.62 73.88 73.47 73.22 73.49 73.68 74.10 73.15 73.81 72.21 73.20 73.78 74.18 73.76 73.33 72.45 71.72 70.98 70.47 70.00
50.68 52.62 52.76 53.45 55.20 53.97 52.54 53.76 52.05 52.17 52.46 55.42 55.88 56.82 57.58 62.05 65.75 69.04 70.15 73.88 75.28 75.68 75.85 76.26 76.66 75.96 77.35 74.49 74.64 73.92 74.09 74.31 74.07 74.40 74.52 74.74 73.26 74.18 73.58 72.23 73.50 73.24 73.33 73.26 73.00 71.93 72.59 70.81 70.11
51.01 52.24 53.16 53.51 53.38 54.16 54.11 52.05 52.54 52.95 54.47 55.68 55.56 56.59 56.93 57.82 63.67 67.26 70.52 72.25 76.19 76.02 76.43 76.73 78.17 77.17 76.59 78.31 75.28 74.93 74.77 74.72 75.56 75.39 75.57 74.65 74.80 74.98 74.47 73.73 73.10 73.39 72.39 72.77 72.39 72.29 73.08 72.06 72.05
52.62 52.48 52.76 53.17 53.02 53.24 51.85 51.79 52.46 53.82 55.77 54.72 54.84 54.69 55.92 56.82 58.37 62.74 69.79 71.54 75.09 76.68 76.68 77.41 77.51 79.90 78.58 77.65 78.51 76.58 77.42 76.43 76.02 75.81 76.15 76.09 76.00 76.36 74.77 74.56 73.77 73.55 73.39 72.78 72.43 72.38 72.23 71.48 71.34
51.99 49.29 51.19 51.58 52.15 51.33 52.45 49.40 50.04 53.95 55.03 54.07 54.21 54.77 55.08 56.19 58.04 59.28 68.69 71.99 74.26 76.28 77.54 78.45 77.98 78.90 79.35 79.20 78.22 76.97 76.07 76.33 75.81 75.85 77.35 76.62 76.86 77.85 76.61 74.77 74.25 73.84 74.81 74.65 74.32 73.09 72.85 72.15 71.72
48.89 48.94 45.27 50.24 51.17 51.21 50.82 45.73 51.32 53.91 54.04 53.22 53.99 54.73 54.97 55.54 57.12 59.78 65.14 73.05 74.38 75.75 76.73 77.11 77.06 77.76 78.40 78.61 78.23 77.19 76.84 76.29 76.07 76.33 76.01 76.43 77.17 76.48 76.83 74.79 74.47 74.74 74.70 73.19 72.69 72.25 71.16 70.86 71.05
47.78 43.66 45.17 47.40 51.90 50.48 49.64 46.94 51.34 53.67 53.60 53.12 54.01 55.01 54.85 55.23 57.23 60.70 65.14 73.38 74.74 76.50 77.42 77.15 77.69 76.93 77.00 78.47 78.33 77.90 79.30 77.15 76.77 76.57 75.83 76.82 76.39 76.04 76.35 75.21 74.82 77.61 73.92 73.50 73.21 72.80 73.45 73.02 72.28
43.41 44.47 46.41 46.98 50.04 50.34 48.66 48.25 51.69 53.12 52.72 53.24 53.79 54.75 55.41 54.99 55.94 59.65 68.62 74.03 76.51 76.53 76.89 78.25 77.80 78.33 76.02 76.15 77.70 75.96 76.31 76.17 76.61 76.60 76.51 76.94 76.44 76.05 76.61 75.44 76.85 76.07 74.75 73.06 72.86 74.11 73.58 73.10 71.99
47.81 47.36 46.68 48.68 51.93 50.14 48.75 49.05 50.30 52.57 52.71 52.66 54.01 54.65 55.63 56.17 56.80 59.59 69.32 74.43 76.34 76.41 76.41 77.31 76.38 78.91 75.55 74.59 74.53 73.36 73.30 74.52 74.79 75.56 76.20 76.41 76.15 76.22 77.23 75.89 74.94 74.92 73.88 74.28 73.44 73.28 70.84 69.43 70.36
47.01 45.67 46.72 49.68 51.05 50.44 49.67 48.28 51.10 52.15 52.64 53.11 53.64 54.60 55.43 56.25 56.10 58.91 63.81 72.61 73.03 74.90 76.49 77.31 76.86 76.65 75.46 74.81 74.81 74.98 74.83 74.50 74.52 74.86 75.73 76.79 75.47 75.71 75.14 75.31 74.56 74.73 74.33 73.22 69.95 70.52 68.06 69.09 69.40
45.39 45.36 46.08 46.59 49.28 50.34 48.92 46.67 49.65 52.00 53.35 53.46 54.16 55.43 56.12 56.15 55.70 58.30 60.34 64.72 68.99 72.76 74.90 76.57 76.78 76.37 74.19 74.57 74.97 75.17 75.77 74.21 73.79 74.81 74.71 74.78 74.77 75.08 75.15 74.67 74.61 74.01 73.35 69.62 68.55 69.80 70.81 68.06 70.70
42.27 47.68 47.30 47.15 46.46 42.70 48.46 40.29 47.51 50.57 51.20 52.58 53.31 54.39 55.22 56.19 56.90 58.00 59.63 61.70 67.47 70.17 73.57 75.41 74.38 75.00 73.82 73.88 73.02 74.15 72.26 72.17 72.75 73.37 73.12 73.65 74.12 74.03 73.84 73.53 73.24 73.67 71.45 69.73 69.90 70.34 71.61 69.66 68.18
42.97 47.86 46.73 46.72 46.00 45.19 45.70 42.50 46.59 50.45 49.13 51.25 53.54 54.16 55.33 56.53 57.03 56.93 58.58 60.91 64.00 68.19 71.21 74.08 73.25 73.85 73.20 72.61 73.18 73.46 74.87 73.14 72.87 72.51 74.39 74.13 73.22 73.19 72.25 73.05 72.82 72.21 70.92 71.29 71.13 71.39 71.35 71.76 69.72
47.65 46.12 46.36 46.39 45.37 38.74 44.19 43.27 44.67 48.43 50.14 52.08 53.65 54.16 55.22 55.85 56.96 57.63 59.13 60.99 62.97 66.47 69.96 73.35 73.26 71.17 71.17 71.52 73.40 74.76 74.46 72.92 71.65 71.80 72.17 73.33 71.17 72.46 71.98 71.61 72.56 72.95 72.76 72.19 71.52 72.13 71.46 71.10 71.36
45.68 43.48 36.19 34.53 36.11 35.67 45.13 43.64 45.58 51.16 52.74 53.54 53.68 54.21 55.46 56.47 57.07 57.46 57.77 58.67 60.48 62.86 70.25 72.53 70.70 68.96 69.99 71.69 71.67 72.85 72.92 73.16 72.53 71.87 70.92 70.91 70.00 71.52 71.20 70.93 71.42 72.31 70.71 71.10 70.89 71.31 70.58 69.92 68.86
43.19 43.89 38.13 31.73 33.74 37.58 44.81 40.85 45.69 52.38 54.30 54.74 55.60 55.68 55.91 56.42 57.18 57.59 58.20 58.94 59.26 70.18 70.47 69.93 69.16 68.31 70.66 70.76 71.27 72.00 72.64 71.87 70.94 71.31 70.32 69.56 69.70 68.76 69.34 69.07 69.95 69.53 68.75 68.75 68.96 68.37 67.97 68.95 66.66
43.17 40.57 47.11 41.45 42.69 39.45 41.86 46.37 49.71 51.75 52.97 54.68 55.69 55.46 55.24 56.28 56.99 57.83 58.56 59.62 68.60 68.53 68.09 67.93 67.93 68.25 68.12 68.72 69.46 69.99 70.69 70.21 69.07 69.43 69.40 67.47 67.86 66.55 66.44 66.49 66.18 66.29 66.15 66.26 66.65 65.37 66.81 65.95 66.47
43.85 47.50 38.98 41.57 34.64 33.72 40.33 42.88 44.05 48.91 50.78 53.52 54.93 58.24 60.17 59.43 59.06 61.31 65.46 66.84 66.13 65.51 66.05 66.29 66.69 66.57 67.01 67.72 68.33 68.27 67.97 67.72 67.41 66.97 65.92 65.92 65.74 65.50 64.91 64.37 64.08 64.26 64.38 64.53 64.96 64.25 65.62 64.88 63.44
42.97 41.07 42.99 44.16 42.52 37.75 37.13 41.12 50.67 51.29 52.65 54.64 57.94 56.34 56.37 57.89 59.96 61.62 63.06 63.23 63.89 64.87 65.47 65.54 65.93 66.14 65.73 66.17 65.84 64.87 64.27 64.34 64.11 63.37 63.30 62.80 62.79 62.46 61.18 61.12 60.84 61.36 61.36 61.90 62.06 61.88 61.39 60.82 62.18
46.13 43.40 44.00 38.77 39.64 41.96 42.68 44.01 56.05 53.54 55.58 55.58 52.36 53.29 55.36 57.53 59.61 60.67 61.29 62.16 62.86 62.84 63.81 64.44 64.16 63.98 63.63 62.99 61.93 61.14 60.65 60.70 60.16 59.24 59.59 59.74 59.67 59.18 58.70 58.35 58.40 58.64 58.77 59.39 59.01 58.36 58.26 57.86 57.56

GFSSGP_sfc_wetblb_138.txt.gz
Wetbulb
65.50 61.48 59.80 59.11 51.93 52.33 50.17 52.64 56.04 55.14 57.80 60.54 61.59 60.65 59.94 65.81 63.07 60.94 71.82 73.12 74.50 75.63 76.86 77.12 78.34 78.80 78.65 77.99 77.38 76.95 76.70 76.82 76.80 76.65 76.79 76.22 76.20 76.68 76.95 77.03 76.50 76.88 77.01 76.31 75.95 75.52 74.85 74.65 74.04
61.59 59.23 59.45 56.62 50.11 47.70 50.15 55.40 54.78 56.71 59.59 61.20 60.71 60.32 59.71 66.23 71.28 70.35 71.30 75.19 75.58 76.48 76.74 76.57 78.28 78.49 78.52 77.74 77.05 76.77 76.65 76.84 76.67 76.72 76.70 76.15 76.17 76.57 76.88 77.03 76.50 76.36 76.22 76.05 75.69 75.18 74.53 74.29 73.89
61.58 61.91 54.65 52.34 50.56 48.49 50.38 55.66 57.15 58.72 60.69 59.93 59.18 61.19 61.37 68.73 71.39 73.11 75.31 76.25 76.47 76.78 76.98 77.57 78.26 78.18 78.19 77.71 77.13 76.64 76.52 76.59 76.75 76.84 76.62 76.02 76.32 76.47 76.72 77.01 76.55 76.15 74.91 75.01 75.00 74.61 74.32 74.12 73.75
55.36 56.87 54.95 48.59 48.29 52.15 53.28 56.28 58.38 59.22 60.43 60.77 60.38 58.40 63.43 69.04 73.67 76.49 75.25 77.23 76.22 76.64 76.69 77.33 78.03 77.95 77.86 77.58 77.15 76.57 76.57 76.57 76.62 76.77 76.57 75.95 76.29 76.64 76.82 76.90 76.53 75.98 74.89 74.51 74.32 74.54 74.68 74.33 74.20
56.61 52.80 46.84 45.89 47.28 51.95 55.19 57.30 58.06 57.51 59.67 59.65 60.20 58.14 62.33 69.45 75.13 77.13 75.63 77.19 76.33 75.92 77.44 76.97 77.64 77.80 77.80 77.66 77.38 76.89 76.79 76.54 76.51 76.69 76.27 76.20 76.39 76.43 76.54 76.67 76.25 76.06 75.51 75.13 74.56 74.94 74.82 74.72 74.72
51.11 50.48 43.75 43.05 46.35 50.31 53.89 56.67 57.68 57.98 59.31 60.37 59.33 58.83 63.19 70.65 74.26 75.43 75.38 76.35 76.63 75.60 76.40 75.98 77.58 77.44 77.11 77.19 77.19 76.81 76.40 76.25 76.31 76.06 75.99 76.21 76.10 76.18 76.06 76.00 76.13 75.77 75.54 75.59 75.22 74.95 74.82 74.70 74.42
50.90 46.92 43.90 44.52 45.85 48.22 51.26 55.47 54.98 56.48 58.23 59.42 61.57 57.69 62.29 68.32 74.45 75.44 75.31 76.25 76.01 76.62 75.85 74.72 75.88 77.21 77.24 77.00 76.87 76.62 76.32 76.04 75.81 75.67 75.72 76.00 76.13 75.96 75.76 75.71 75.99 75.52 75.62 75.65 75.37 74.95 74.72 74.47 74.32
53.83 50.10 44.96 45.48 45.10 46.07 52.21 53.81 55.19 54.87 55.80 62.27 62.95 58.11 59.09 69.57 73.69 75.72 75.30 75.88 75.58 76.35 75.09 73.41 74.22 75.28 75.76 75.84 76.59 76.49 76.24 76.08 75.70 75.68 75.66 75.79 75.72 75.65 75.49 74.93 75.41 75.57 75.65 75.49 75.17 74.72 74.50 74.25 74.22
57.01 47.85 45.49 45.67 46.07 47.64 52.53 51.78 55.79 57.38 55.81 59.30 61.19 61.86 67.05 71.47 72.44 74.97 74.62 74.85 74.89 75.56 74.62 73.65 72.96 73.52 73.28 74.44 75.60 75.95 76.08 75.69 75.71 75.62 75.68 74.72 73.47 73.95 73.98 73.64 74.75 75.29 75.14 75.09 74.82 74.55 74.37 74.22 74.22
53.45 48.91 47.40 50.81 50.92 49.65 51.80 52.26 53.45 53.78 53.32 54.10 57.34 60.35 65.56 70.54 69.81 71.38 72.69 72.88 73.65 74.21 73.96 73.68 73.03 71.94 71.87 72.39 74.45 74.15 74.58 74.51 74.40 73.85 74.20 72.97 72.72 73.25 72.65 73.42 74.60 75.24 74.89 74.52 74.55 74.17 74.19 73.45 70.57
53.67 49.44 51.97 52.22 53.60 54.13 52.52 52.05 54.18 52.67 50.32 52.76 53.02 55.76 60.35 67.12 68.73 69.08 71.58 73.23 73.26 74.70 74.69 73.74 73.22 72.63 71.71 71.85 72.48 72.06 72.61 72.50 72.84 73.14 73.34 73.00 71.79 73.58 71.87 73.36 72.86 73.25 73.73 71.89 72.45 72.01 71.40 69.82 69.48
49.21 52.73 53.12 53.09 54.19 54.05 53.02 55.01 52.76 52.47 52.00 55.01 55.26 56.20 57.46 61.50 63.19 66.95 69.30 71.82 72.64 74.21 74.62 73.96 73.82 73.51 73.25 73.72 71.91 72.54 72.48 72.80 72.07 72.53 73.70 71.87 72.99 74.96 72.25 71.94 72.37 72.66 72.42 71.48 71.65 70.11 69.59 68.76 68.67
48.61 49.98 52.59 53.98 53.36 52.99 53.74 52.82 52.95 52.73 54.25 55.60 55.60 56.00 55.88 59.22 62.44 67.17 69.38 70.98 74.79 73.46 74.75 74.20 74.26 74.13 74.63 73.49 73.38 72.77 73.28 73.26 73.41 73.50 74.04 72.58 73.14 75.23 74.46 74.22 74.26 72.42 72.09 72.37 71.88 71.46 71.57 70.22 69.89
52.02 51.37 51.39 52.91 53.18 52.99 51.25 51.82 53.11 53.14 55.64 54.75 54.35 54.61 55.77 56.39 61.03 64.61 68.44 69.99 72.25 74.05 73.22 73.60 73.71 75.26 76.45 77.47 74.45 73.99 75.24 74.48 75.05 74.46 74.24 74.31 74.99 75.46 74.90 75.68 74.84 73.94 73.96 73.27 72.72 72.15 72.59 72.10 71.10
51.82 49.53 51.00 51.94 52.45 51.93 53.12 49.43 50.16 53.82 54.69 54.53 54.32 54.50 55.10 56.93 57.80 60.33 65.27 69.44 72.93 72.85 73.74 70.82 74.69 76.93 77.37 79.74 76.43 74.83 76.14 74.75 75.01 76.08 75.66 75.25 75.92 77.12 73.70 75.64 74.09 74.62 74.49 75.43 73.74 73.25 72.25 71.27 71.25
48.97 49.22 45.89 50.27 51.66 52.23 51.76 45.88 51.20 53.80 53.16 53.15 54.29 54.10 54.77 55.63 56.83 58.49 61.09 68.87 72.25 75.79 74.63 73.91 76.69 77.35 77.62 78.66 78.61 75.87 77.65 76.49 74.74 75.09 75.63 75.99 76.77 76.60 76.74 75.16 73.89 74.13 75.67 74.38 73.52 72.58 71.39 70.36 70.53
46.67 43.10 44.76 47.02 51.33 51.01 50.01 47.55 51.39 53.75 53.50 53.09 54.58 54.68 54.73 55.60 57.40 59.20 61.36 65.81 72.43 76.72 76.93 76.15 77.08 76.91 77.08 77.63 78.52 78.36 79.37 76.82 77.97 75.40 76.23 76.11 76.79 76.82 76.77 75.88 75.10 76.82 74.76 74.65 73.81 73.55 71.67 70.93 72.00
41.75 42.38 44.79 44.98 48.69 49.74 48.24 48.23 50.70 52.96 52.72 53.05 54.18 54.47 55.17 55.74 56.61 58.75 62.25 62.98 73.45 76.20 77.50 76.88 76.41 76.41 77.34 77.34 79.47 77.71 78.15 78.67 77.35 76.30 76.27 77.91 77.06 76.67 76.63 75.80 75.62 75.10 74.25 72.45 72.77 71.03 72.15 71.27 70.97
45.98 44.57 43.63 46.68 50.54 48.57 48.88 48.37 49.85 52.38 53.09 52.04 53.65 54.10 55.09 56.12 57.67 58.92 60.57 63.12 73.54 77.40 76.33 76.33 74.99 75.82 76.41 75.71 76.02 75.12 74.45 76.30 76.80 77.39 76.97 77.39 77.40 76.57 76.91 76.00 74.80 74.85 74.04 74.17 73.21 71.31 69.63 68.82 69.01
45.47 43.97 44.47 47.68 49.98 49.70 49.40 48.67 50.85 51.86 52.62 53.13 53.89 54.60 55.20 56.25 57.87 58.60 61.73 64.21 73.99 76.43 74.78 75.93 74.60 75.61 75.17 74.84 76.05 74.98 74.61 74.75 75.19 74.12 75.05 76.78 75.97 75.96 75.61 74.62 74.07 74.62 74.42 73.18 72.27 69.90 68.62 68.21 67.88
43.81 43.11 44.23 44.64 49.01 50.31 49.30 47.74 49.25 51.29 53.04 53.94 54.25 55.59 56.20 56.39 57.31 58.90 59.70 67.23 74.07 71.42 68.16 72.41 72.37 74.39 74.11 74.27 74.68 75.10 75.25 75.82 73.23 74.47 75.32 75.90 75.32 75.07 74.84 75.09 74.70 73.79 73.18 71.22 69.75 69.20 67.87 65.46 66.80
39.49 46.00 46.08 45.73 45.22 42.19 49.23 40.74 48.41 49.62 51.14 53.10 53.83 54.54 55.43 56.82 58.32 58.82 60.68 67.53 72.41 73.21 69.66 67.24 71.01 73.32 73.23 73.68 74.35 74.37 72.64 71.15 72.87 73.27 74.57 74.78 75.04 74.78 74.49 74.04 73.06 73.28 72.12 70.84 69.91 70.06 67.02 66.67 64.78
41.49 46.60 45.49 45.41 44.55 45.11 45.69 42.13 45.80 50.01 48.94 51.20 53.49 54.22 55.49 56.70 57.69 57.38 61.22 66.41 68.88 72.51 74.22 72.65 73.58 72.28 73.96 73.53 74.17 72.98 72.99 73.31 73.66 73.75 73.83 74.57 74.72 72.69 73.21 72.81 73.01 71.94 72.13 71.00 70.40 69.68 70.26 69.56 67.36
45.65 43.85 44.71 45.47 44.14 37.64 43.79 43.29 43.25 46.37 49.26 51.93 54.12 54.39 55.25 56.01 57.39 57.87 61.72 64.47 66.94 70.24 72.88 73.90 74.09 73.30 73.32 73.04 71.99 73.73 73.20 72.88 72.08 71.46 71.70 71.77 71.96 72.62 72.85 71.88 72.56 72.52 71.85 70.01 70.07 69.95 70.14 69.65 67.80
44.78 41.01 35.20 33.17 34.80 34.52 44.30 43.17 45.19 49.89 51.83 53.30 53.84 54.71 55.57 56.74 57.13 57.90 59.39 61.08 63.60 67.43 71.84 72.97 71.26 70.56 70.67 71.55 73.10 73.77 74.43 72.88 72.43 71.72 70.26 71.10 69.97 70.86 71.66 71.50 71.66 71.61 71.49 70.79 70.72 69.70 68.82 68.03 66.93
40.89 41.64 36.07 28.66 31.25 35.65 43.95 40.40 44.90 51.87 54.12 55.19 55.86 55.74 56.37 56.57 57.02 57.69 58.02 60.70 61.54 65.66 71.51 70.63 69.81 69.59 69.62 70.97 72.46 73.58 74.38 72.30 71.29 72.61 71.23 70.22 69.58 68.94 69.91 69.20 68.37 68.37 68.57 67.59 67.93 66.98 66.92 67.54 65.64
40.89 37.43 44.40 39.55 41.52 38.07 41.39 44.97 48.72 51.66 53.09 54.70 54.69 55.68 55.22 56.57 56.84 58.03 58.69 60.63 67.77 70.54 69.51 69.61 69.71 70.11 70.54 69.58 70.27 70.62 71.12 71.15 69.68 70.27 70.04 67.81 68.07 67.13 67.57 67.77 67.18 66.63 66.08 66.07 66.31 64.70 64.21 65.34 65.11
43.15 45.46 38.06 40.29 32.07 32.34 39.12 40.71 41.95 47.68 50.64 53.46 56.91 56.20 55.93 56.51 56.88 58.44 64.36 67.98 68.58 68.40 68.17 68.93 68.64 67.93 66.96 67.52 66.86 66.56 67.00 67.75 67.39 66.33 65.57 65.52 65.61 65.58 65.37 64.72 64.74 64.50 64.27 64.32 64.05 62.98 62.39 61.32 61.55
41.77 38.87 42.57 43.38 40.54 34.92 35.35 40.26 49.26 50.12 52.81 54.94 55.92 57.50 60.07 61.90 63.25 64.06 64.85 65.76 65.79 66.13 66.81 66.73 66.85 65.84 65.72 64.83 64.54 64.15 63.76 63.83 63.64 62.97 62.70 62.54 62.52 62.55 61.43 61.20 61.09 60.24 61.34 61.31 61.26 61.10 60.28 59.39 58.35
44.84 40.39 41.87 37.34 36.58 40.60 40.99 42.85 54.70 53.28 56.41 55.82 54.21 56.42 59.51 61.46 61.98 62.97 63.58 64.06 64.58 65.01 65.28 65.52 63.57 62.21 61.73 61.53 61.34 61.09 60.99 60.29 59.54 59.08 59.17 59.41 58.94 59.16 57.82 58.19 57.44 57.13 57.11 57.94 57.29 56.59 56.78 56.24 55.97

GFSSGP_sfc_wetblb_141.txt.gz
Wetbulb
62.85 59.04 56.61 52.53 45.17 42.99 41.38 46.24 52.26 52.42 53.10 55.97 58.38 56.99 61.38 61.47 59.51 57.41 69.20 70.71 75.48 74.85 76.75 78.16 78.56 78.51 78.21 77.65 77.27 76.86 76.96 76.76 76.96 76.54 76.29 76.56 76.79 76.82 76.56 76.57 76.80 77.05 77.28 76.32 75.78 75.17 74.81 74.27 73.98
57.35 58.17 53.41 50.04 42.28 38.33 42.96 49.72 50.01 53.42 56.06 57.03 58.00 58.00 65.68 63.50 67.73 66.03 66.75 74.65 74.96 75.32 75.84 77.33 78.56 78.13 78.03 77.50 76.86 76.63 76.88 76.71 76.81 76.36 76.14 76.44 76.63 76.49 76.69 76.52 76.75 76.80 76.48 75.99 75.53 75.05 74.44 74.03 73.73
61.49 58.19 48.13 44.83 41.41 41.94 43.86 49.81 52.62 55.48 56.81 57.07 56.74 59.39 66.76 65.95 67.75 67.60 71.38 74.92 75.10 74.24 75.76 77.35 78.46 78.06 77.83 77.45 76.71 76.53 76.70 76.58 76.69 76.46 76.12 76.44 76.48 76.49 76.54 76.50 76.10 76.29 75.98 75.78 75.40 74.76 74.44 73.89 73.62
53.43 49.79 50.93 40.63 40.89 46.78 48.83 51.75 54.22 54.76 56.94 57.93 57.86 57.73 64.72 71.20 68.36 73.48 74.65 75.49 74.48 74.34 76.14 77.79 77.97 77.90 77.65 77.47 76.79 76.71 76.83 76.56 76.64 76.59 75.99 76.13 76.48 76.41 76.39 76.34 76.00 75.84 75.35 75.04 74.78 74.66 74.69 74.24 73.99
50.70 45.76 40.65 38.12 41.27 46.22 50.67 53.79 54.75 53.57 54.84 56.35 57.79 56.38 63.72 72.93 74.17 74.39 74.32 75.44 73.81 74.64 76.29 77.20 77.91 77.71 77.57 77.35 76.97 76.71 76.58 76.38 76.53 76.46 75.96 76.11 76.17 76.27 76.42 76.46 76.04 75.82 75.61 75.00 74.57 74.74 74.64 74.49 74.42
44.53 43.74 34.70 38.73 40.36 46.09 48.72 51.22 52.16 52.84 54.81 56.36 56.31 58.20 63.20 74.07 72.76 74.00 74.75 74.36 74.49 74.77 75.76 76.76 77.77 77.56 77.13 76.84 76.63 76.38 76.22 76.12 76.17 75.97 75.80 75.97 76.04 76.01 76.37 76.28 75.99 75.57 75.49 75.47 74.99 74.92 74.64 74.34 74.39
43.86 39.16 35.17 36.87 39.25 43.03 46.29 50.70 50.41 50.77 51.55 52.68 58.16 55.65 64.25 71.46 73.31 74.84 74.77 74.63 75.01 74.86 74.61 75.80 76.36 77.03 77.16 76.83 76.40 76.19 75.93 76.03 75.80 75.45 75.66 75.75 75.76 75.79 75.84 75.44 75.73 75.31 75.34 75.41 75.09 74.83 74.58 74.28 74.04
48.19 44.46 39.28 40.03 39.89 40.49 45.87 47.99 51.32 51.98 51.53 55.83 57.79 55.30 59.95 70.41 72.90 73.59 74.43 73.83 73.87 73.75 73.88 74.51 75.35 75.80 75.01 76.15 76.57 76.14 76.03 75.75 75.49 75.47 75.52 75.41 75.64 75.44 75.27 74.52 75.28 75.20 75.50 75.45 74.95 74.60 74.53 74.01 73.74
51.73 42.99 40.95 41.72 40.83 41.63 46.53 44.50 49.36 53.00 52.74 54.10 54.62 60.54 68.93 72.61 72.82 72.35 72.10 73.00 73.04 72.83 72.68 73.57 74.54 74.66 74.77 75.18 76.13 76.08 76.27 75.90 75.54 75.60 75.37 74.44 73.24 73.38 74.05 74.01 74.98 75.12 75.17 75.24 74.67 74.35 74.00 73.83 73.96
48.33 43.51 43.99 46.92 46.68 45.35 46.44 46.27 47.86 48.92 49.13 52.12 55.65 67.25 69.78 72.22 71.38 70.68 70.75 70.79 71.38 70.51 70.97 71.92 73.05 73.29 73.72 74.79 74.84 74.53 74.96 74.63 74.04 73.70 73.55 72.16 70.40 71.16 72.90 72.83 74.73 75.02 74.87 74.89 74.72 74.27 74.00 73.85 70.33
46.33 45.32 48.93 49.90 50.50 50.36 49.37 50.04 51.87 50.34 46.08 48.70 49.83 53.51 67.08 66.53 68.79 70.38 70.97 71.30 71.56 70.72 70.68 70.50 70.88 70.95 71.57 72.81 72.93 73.07 73.13 73.08 72.28 71.78 71.69 70.06 69.72 71.14 70.65 70.62 72.17 71.91 73.83 71.61 72.79 72.18 71.80 70.13 68.59
42.96 48.93 51.00 51.23 52.43 51.54 49.94 51.59 50.62 51.28 48.81 50.86 51.22 52.19 60.91 65.17 64.53 66.74 70.01 70.54 71.49 70.68 70.49 70.20 69.88 69.08 68.45 71.29 70.35 70.24 70.66 70.46 69.72 70.23 70.45 68.84 68.67 68.97 67.68 69.93 70.36 70.10 70.23 69.04 68.27 68.71 69.04 68.32 67.34
43.92 45.97 50.45 52.64 52.31 51.83 51.92 50.50 49.65 50.09 53.05 51.36 51.26 52.15 51.16 59.45 63.08 63.97 65.54 68.78 71.68 71.03 70.69 69.66 69.80 68.89 69.44 69.42 69.07 69.49 69.34 69.69 68.89 69.41 70.29 68.39 68.15 68.52 68.21 68.34 69.44 70.31 69.63 69.22 68.28 68.10 67.51 66.83 66.66
46.89 47.64 47.58 48.49 49.18 51.15 49.85 49.96 49.14 51.00 53.05 52.38 51.25 49.63 49.85 50.74 57.75 60.50 62.83 63.67 71.13 70.88 70.26 70.85 71.06 71.22 70.60 69.12 69.16 70.06 70.26 70.26 69.91 70.01 70.65 69.39 68.65 69.16 69.63 69.11 69.87 70.19 69.51 69.40 69.36 68.70 69.71 68.55 67.31
46.59 43.56 47.60 47.74 47.98 47.64 50.64 47.10 47.75 50.86 51.76 51.14 51.68 49.66 50.90 51.62 56.94 59.28 60.83 62.52 71.44 70.33 70.89 70.78 70.84 71.19 71.66 71.77 69.63 70.68 71.12 71.37 71.08 71.02 71.07 70.46 69.86 71.13 71.61 71.19 69.30 69.41 69.43 70.09 69.70 69.14 68.07 66.90 67.24
43.93 44.35 39.62 46.51 48.56 49.08 48.32 43.45 49.62 50.66 49.26 49.48 51.10 52.04 51.19 50.44 52.28 54.93 56.44 58.38 69.38 67.46 68.77 68.17 70.87 70.64 70.72 73.84 71.90 71.29 72.66 71.93 72.21 72.12 72.00 71.71 71.65 72.75 72.25 72.31 71.78 72.54 72.31 70.92 68.17 67.31 66.91 67.19 66.97
41.55 37.33 39.66 42.53 48.44 48.28 47.28 44.68 49.12 51.02 49.44 48.44 48.86 50.53 50.98 49.88 51.85 52.44 53.93 54.02 68.16 64.88 65.25 64.75 66.48 68.51 71.10 74.21 74.27 72.38 73.59 72.15 73.07 73.47 72.68 72.78 73.08 72.87 71.42 71.79 71.65 71.79 70.96 69.92 68.90 68.50 67.90 67.60 67.34
36.77 37.40 40.63 41.47 45.82 47.67 46.13 45.72 48.16 50.12 50.22 48.85 48.51 49.89 50.35 50.77 51.01 52.86 54.21 55.58 67.42 63.24 65.76 67.12 66.03 65.56 68.21 73.10 73.77 74.02 73.86 74.29 73.65 73.89 74.00 74.62 73.82 73.45 72.37 71.52 71.50 71.37 69.84 69.70 69.42 67.18 68.45 66.96 65.97
42.56 40.58 39.61 43.62 47.23 46.05 45.14 45.47 45.97 49.31 49.68 48.10 48.94 48.76 49.55 50.71 51.97 53.11 54.13 54.61 68.57 66.83 63.50 63.72 65.25 64.39 68.62 71.31 71.75 71.53 71.12 72.57 73.40 74.64 74.50 74.30 73.30 72.73 72.02 71.52 70.79 70.36 69.60 69.68 67.61 66.71 65.53 64.54 65.35
42.38 40.60 40.01 43.61 46.20 45.85 45.07 44.20 47.12 47.39 48.39 49.28 48.08 49.44 50.10 49.76 51.45 53.62 53.46 53.00 72.23 72.11 70.33 67.89 70.12 70.82 71.95 72.75 72.51 71.83 71.20 71.52 72.05 72.70 72.87 73.15 73.13 72.75 72.16 70.74 70.09 70.26 69.88 68.46 67.43 65.82 64.34 63.93 64.60
41.40 40.19 40.49 40.82 45.12 45.68 43.73 42.40 44.53 48.01 48.95 49.09 49.16 49.56 51.23 51.10 51.47 52.42 53.44 54.12 72.76 72.83 72.51 71.91 73.22 72.36 72.00 73.38 72.80 71.00 71.71 71.30 70.26 69.98 72.21 72.07 72.41 72.43 71.68 71.21 70.42 69.39 69.11 68.26 66.76 65.55 63.37 61.90 63.82
34.86 42.59 43.48 42.73 41.25 36.06 44.90 35.12 42.44 46.38 47.13 48.09 49.13 48.26 49.48 50.67 52.34 52.51 53.18 56.13 70.27 68.27 68.62 67.65 72.26 72.12 71.39 73.16 72.20 70.49 70.05 68.75 69.43 70.46 71.40 71.04 71.47 71.20 71.14 70.45 69.51 68.99 68.06 66.67 65.86 66.78 65.17 62.63 59.57
36.72 42.16 41.37 42.27 40.09 39.07 41.16 39.13 41.86 46.61 44.46 46.80 47.71 48.44 48.71 50.79 51.79 52.75 53.29 64.59 68.53 69.31 67.96 66.88 69.19 70.61 70.80 72.06 72.62 71.36 70.61 69.13 70.33 70.54 70.40 69.93 69.56 69.71 69.99 69.42 68.82 67.96 68.17 67.45 66.13 64.91 64.34 64.73 63.96
43.65 39.96 39.56 40.73 38.93 32.58 38.69 39.13 40.02 43.34 45.48 46.59 48.66 50.15 50.38 50.39 51.66 52.66 54.31 66.64 68.47 68.12 66.41 64.58 67.55 70.68 70.58 71.29 71.15 70.95 70.37 68.41 68.51 68.95 68.55 68.60 67.79 67.94 68.53 68.99 67.98 67.87 67.23 66.47 65.88 65.91 64.82 64.27 63.73
41.24 34.28 28.78 28.43 29.88 30.00 39.95 39.43 39.48 44.78 48.17 49.17 49.34 50.43 50.48 51.15 50.59 51.38 59.92 63.11 68.60 67.59 67.38 69.18 70.48 69.98 69.88 70.03 70.26 70.19 68.54 68.15 68.05 68.48 68.40 67.07 66.50 66.95 66.66 66.91 66.93 66.60 66.20 65.28 64.76 63.87 63.49 63.58 62.08
37.30 35.31 27.58 25.39 27.00 30.91 40.38 35.87 39.55 47.61 49.61 50.52 51.43 51.36 50.51 50.51 50.12 52.74 57.70 60.06 66.83 69.56 70.34 70.68 69.76 68.96 67.97 69.37 70.25 68.83 68.29 68.21 67.99 67.31 67.04 66.36 65.99 65.14 64.41 63.48 63.30 63.21 63.26 62.53 61.49 61.32 60.90 62.11 61.48
37.28 33.75 38.80 34.27 36.28 31.65 34.92 39.57 44.95 47.90 50.39 52.78 52.04 51.34 50.46 50.10 50.58 51.28 56.28 58.17 67.16 68.33 68.35 68.62 68.79 68.40 68.59 68.15 67.70 67.88 67.45 65.90 65.02 64.14 64.14 63.74 63.46 63.63 62.45 61.96 61.24 61.14 60.88 61.04 59.56 59.09 58.78 57.64 57.54
40.27 40.66 30.59 33.39 28.48 26.72 32.96 35.87 36.06 42.45 48.51 53.71 52.80 50.49 50.45 50.48 50.51 57.34 59.90 66.68 67.47 67.49 67.62 67.78 67.00 65.79 65.44 65.31 65.28 64.45 63.65 62.37 61.42 60.73 59.56 58.94 58.80 58.66 58.12 57.98 57.92 57.92 57.75 57.09 56.76 56.52 56.16 55.18 54.83
37.86 36.69 37.21 35.00 34.51 28.22 27.79 33.30 43.87 42.77 51.54 53.25 55.01 54.10 52.92 58.89 62.09 63.37 64.68 65.80 65.82 66.33 65.80 65.55 64.95 63.45 62.78 61.56 60.35 59.09 58.52 58.10 57.16 56.66 56.57 55.17 54.38 54.25 54.00 54.39 53.59 53.41 53.41 52.66 52.03 52.41 52.89 52.40 51.46
40.22 38.88 37.45 31.38 31.91 34.75 34.13 34.49 49.36 51.06 53.22 55.23 55.95 57.91 59.56 60.84 61.64 62.10 62.80 63.14 63.31 64.11 62.84 61.55 60.36 59.48 58.77 57.94 57.48 56.80 55.96 55.00 53.99 52.98 52.48 52.72 51.82 52.10 52.09 52.82 52.44 53.13 52.76 50.74 49.75 49.80 50.39 49.84 49.29

GFSSGP_sfc_wetblb_144.txt.gz
Wetbulb
61.38 56.57 55.36 51.07 44.42 40.26 37.51 42.91 48.37 49.80 51.25 53.43 61.10 61.35 60.58 62.73 60.80 57.43 69.95 70.39 74.04 74.99 77.27 77.96 78.08 78.19 77.98 77.45 77.14 76.64 76.66 76.34 75.97 75.99 76.31 76.31 76.09 76.02 76.24 76.36 76.75 76.83 76.29 75.31 75.05 74.67 74.18 73.85 73.81
56.80 57.16 51.74 47.24 41.00 36.41 40.51 46.52 47.77 51.11 54.06 55.97 57.12 62.71 61.44 60.98 65.57 65.25 66.17 71.95 74.52 75.23 77.17 77.27 78.08 77.90 77.75 77.09 76.81 76.43 76.50 76.31 75.72 75.87 76.21 76.34 76.06 75.89 76.36 76.77 76.87 76.95 75.91 75.50 75.19 74.63 74.04 73.59 73.43
60.25 56.86 45.81 42.75 38.56 40.11 43.01 48.29 50.39 52.64 54.79 54.90 54.96 67.02 65.72 64.44 67.25 65.85 70.54 74.43 74.28 74.85 76.75 77.30 78.05 77.75 77.58 76.99 76.61 76.25 76.36 76.18 75.74 75.77 76.06 76.16 76.03 75.76 75.96 76.49 76.52 76.32 75.62 75.34 75.19 74.57 73.94 73.59 73.12
51.91 48.26 47.86 39.70 38.11 43.75 47.34 48.99 50.15 51.53 54.48 55.12 56.05 61.93 67.58 68.70 66.87 71.57 74.35 74.33 73.54 74.29 76.11 77.83 77.77 77.37 77.17 76.89 76.71 76.45 76.38 76.18 75.77 75.77 76.01 76.03 76.06 75.88 75.86 75.89 76.29 76.42 75.50 75.14 75.07 74.64 73.87 73.41 73.21
48.78 42.91 38.59 36.02 39.50 42.66 48.41 50.87 51.74 51.19 52.35 53.79 54.84 59.50 64.71 68.57 71.92 73.53 73.65 73.77 72.61 73.89 76.07 77.44 77.67 77.19 77.07 76.84 76.81 76.45 76.33 76.15 75.91 75.56 75.96 75.93 76.05 76.10 75.83 75.84 75.80 75.70 75.31 74.75 74.59 74.02 74.29 74.07 73.48
42.80 40.51 31.77 37.27 39.23 46.24 47.77 48.99 48.28 48.67 49.66 51.48 52.59 64.27 65.54 70.81 71.97 73.04 73.72 72.67 74.14 74.17 76.03 76.90 77.75 77.21 76.81 76.74 76.48 76.25 76.07 75.89 75.90 75.53 75.61 75.90 75.86 76.24 75.99 76.03 75.84 75.55 75.37 74.74 74.12 74.05 74.04 73.89 73.62
40.74 36.03 32.12 32.62 39.32 43.18 45.85 46.35 47.15 48.38 48.18 49.34 51.38 59.37 66.08 69.79 72.24 73.71 73.19 73.27 74.36 74.86 75.32 76.19 76.57 76.83 76.83 76.30 76.17 75.86 75.68 75.76 75.53 75.08 75.31 75.38 75.56 75.82 76.00 75.68 75.62 75.41 75.21 75.11 74.85 74.38 74.05 73.78 73.83
45.26 40.61 35.60 35.92 38.50 37.38 42.49 44.65 46.03 47.39 48.84 53.54 54.27 56.04 64.44 70.01 72.78 73.27 72.95 73.64 73.77 74.16 74.65 75.05 75.82 75.99 75.73 75.35 76.27 75.89 75.83 75.62 75.01 75.12 75.24 75.13 75.28 75.45 75.43 74.46 75.13 75.00 75.07 74.96 74.66 74.32 74.04 73.85 73.43
48.32 38.22 37.85 38.96 38.80 39.57 41.54 39.99 45.84 49.31 49.07 51.64 53.64 56.57 70.59 72.47 73.09 71.99 71.93 72.18 72.28 72.92 73.50 74.39 74.59 74.26 74.20 74.85 75.40 75.71 75.93 75.78 75.32 75.21 75.11 74.02 72.51 73.24 74.01 74.06 75.13 74.94 75.08 74.83 74.40 74.19 73.86 73.72 73.48
44.19 40.68 41.15 43.73 44.62 41.74 42.68 42.71 45.03 49.27 50.55 51.01 51.37 64.45 71.60 72.56 71.66 70.20 70.17 70.17 70.70 71.04 72.11 73.58 73.89 73.43 73.52 74.44 74.37 74.30 74.13 74.24 73.70 73.43 73.34 72.11 71.22 71.54 72.90 73.11 74.68 74.74 74.83 74.80 74.50 74.01 73.72 73.55 70.45
43.36 42.66 46.37 46.20 47.95 46.35 46.05 47.50 49.11 49.03 48.18 50.23 49.70 66.93 69.99 70.69 70.49 70.01 70.48 70.57 70.46 70.93 71.59 72.97 73.25 73.19 73.53 73.95 73.08 73.50 73.80 73.30 72.41 72.46 71.59 70.32 70.22 70.72 70.95 69.60 71.86 71.20 73.66 71.33 72.67 72.02 71.24 69.90 69.17
38.78 45.43 48.71 47.89 49.90 50.02 48.42 50.10 49.21 49.02 49.30 52.59 52.07 69.24 69.51 69.23 69.55 69.59 70.23 70.56 70.01 70.09 70.60 72.04 72.36 71.95 70.74 73.08 72.00 71.99 71.87 71.52 70.44 70.80 70.30 68.47 67.32 68.52 68.29 69.03 69.85 69.78 70.34 69.24 69.15 68.81 69.10 68.90 68.25
41.19 43.00 44.94 48.96 49.88 49.85 50.55 49.78 49.31 49.55 52.42 53.56 52.29 54.34 68.56 68.75 69.42 70.39 71.06 71.34 70.29 69.21 69.55 70.36 70.72 68.33 70.58 70.63 68.35 69.07 68.83 69.84 69.58 69.63 69.99 68.31 67.35 67.09 67.65 68.25 69.14 69.08 68.87 68.74 67.37 67.10 67.05 67.04 67.05
42.80 44.45 45.10 45.44 45.51 49.23 49.49 49.98 48.80 51.35 51.93 51.24 51.19 49.11 55.85 66.03 66.51 68.47 69.13 70.47 69.69 68.85 68.04 68.12 67.88 68.28 69.03 67.59 67.15 68.62 68.46 69.00 68.64 69.18 70.20 68.39 67.81 67.38 67.89 66.62 68.08 68.76 68.97 68.88 68.10 67.16 67.01 66.66 66.41
44.59 40.84 43.42 44.22 45.78 45.29 46.38 43.95 46.33 51.70 50.88 49.33 49.72 50.58 48.59 51.24 58.74 63.29 63.14 69.93 69.09 68.26 68.24 68.19 69.65 70.80 70.41 68.05 67.95 69.07 69.11 69.41 68.66 69.16 69.99 69.48 67.10 67.58 69.20 67.43 68.41 69.24 69.12 68.13 68.10 68.13 67.67 66.94 66.60
40.80 39.79 35.57 43.34 44.52 46.82 45.11 40.06 47.31 49.32 48.64 48.45 49.29 49.74 50.48 49.48 53.03 57.73 69.19 68.91 68.95 68.43 68.23 69.33 71.10 70.28 70.41 70.70 69.37 69.63 69.76 69.73 69.42 68.97 69.82 69.89 68.58 69.41 70.89 69.77 69.58 70.77 70.41 69.45 69.14 67.64 65.82 65.64 66.09
37.59 33.75 34.92 38.88 44.83 45.10 44.28 41.90 47.12 49.37 48.28 47.58 47.87 48.01 49.71 47.47 50.65 57.85 68.58 69.04 68.77 68.68 68.25 68.18 67.51 65.11 67.29 70.34 71.84 69.51 70.99 69.97 70.68 70.77 70.40 70.14 70.27 71.74 71.70 71.11 70.01 70.04 69.59 69.28 68.35 67.63 66.81 66.65 65.98
32.56 34.70 37.52 38.13 41.99 44.46 43.46 43.08 46.17 48.65 48.20 47.54 47.20 47.61 48.68 48.46 49.49 56.22 67.25 68.96 68.88 68.90 68.41 67.99 67.08 66.23 66.87 70.51 72.56 70.59 71.83 70.36 71.42 71.78 71.20 70.92 71.27 72.01 71.04 70.49 70.45 70.16 68.85 68.55 67.88 66.23 66.94 65.94 65.26
38.18 38.33 37.10 40.12 44.17 42.97 42.77 43.81 45.56 47.75 46.74 46.46 46.19 46.68 47.39 48.66 49.68 51.70 66.02 66.56 67.70 67.96 67.10 66.58 66.18 64.83 67.26 68.81 69.53 70.36 70.55 71.38 72.55 73.79 72.97 72.06 72.65 72.38 71.29 70.91 70.13 69.64 68.57 68.29 66.94 66.11 64.72 63.76 64.18
36.95 36.06 37.17 42.07 44.30 42.42 42.70 42.92 45.49 46.05 48.12 48.09 46.48 46.67 46.97 47.52 49.19 50.75 59.64 63.79 64.31 64.69 64.25 64.19 64.98 65.23 67.42 68.40 69.10 70.25 70.87 70.97 71.38 72.07 72.65 73.07 72.35 72.19 72.00 70.79 69.23 69.30 68.49 67.57 66.23 65.51 63.14 63.03 63.19
37.78 37.03 37.71 38.78 43.29 44.01 41.16 40.18 42.27 45.84 47.14 48.81 47.84 48.67 47.88 48.22 48.82 49.40 51.08 62.76 62.66 63.09 63.64 64.36 64.43 64.41 65.33 65.80 67.37 70.21 70.66 70.57 70.46 70.10 70.93 71.50 72.08 71.98 70.87 70.39 69.66 68.38 68.29 67.34 66.36 64.48 62.91 60.75 62.33
31.88 39.62 40.34 40.75 39.23 33.02 41.12 32.14 39.09 44.03 44.96 46.37 47.91 46.07 47.88 48.93 49.01 48.91 50.76 64.74 65.20 63.36 63.61 64.70 65.22 66.12 66.72 67.18 67.66 68.44 68.59 68.36 68.79 68.45 70.26 69.87 70.97 71.16 70.42 69.83 68.84 68.29 67.32 65.69 64.95 65.62 63.49 62.39 59.71
35.32 39.47 39.28 38.96 36.82 34.11 37.43 32.26 37.58 42.55 42.67 44.29 46.48 46.65 46.75 47.75 48.56 48.60 50.26 65.51 70.46 69.41 66.83 65.77 68.18 69.75 68.33 68.57 69.65 69.92 69.83 68.54 69.46 69.69 68.96 68.81 68.31 69.08 70.12 68.82 67.90 67.12 66.71 66.20 64.93 63.51 62.08 62.17 61.49
42.13 39.15 38.45 36.46 32.71 29.28 35.48 34.30 34.31 38.15 43.29 45.90 46.99 46.67 47.95 47.70 48.52 49.09 53.12 67.60 68.85 70.15 69.94 70.84 70.56 70.53 70.67 70.46 70.89 70.07 69.82 67.89 68.61 67.70 67.70 66.89 66.48 67.30 67.68 67.81 66.85 66.81 66.15 65.12 64.71 64.43 63.54 62.74 62.00
38.61 32.31 26.79 22.64 25.99 26.59 36.59 35.84 36.40 42.76 45.91 47.51 47.02 47.10 47.82 47.84 48.37 48.94 63.92 66.34 66.96 65.72 64.50 67.14 69.21 69.10 68.27 67.66 68.58 69.14 68.09 68.34 67.48 67.16 67.79 65.69 66.16 65.08 64.97 65.16 64.24 63.67 62.49 61.94 62.03 61.35 60.13 60.24 59.38
35.08 33.40 28.11 22.73 25.00 27.61 37.25 33.59 37.58 46.32 47.57 49.20 49.68 49.10 48.46 47.54 47.85 51.03 65.27 66.50 65.32 62.59 63.53 67.55 68.76 68.54 66.94 66.78 67.46 67.46 66.94 67.38 66.93 67.07 66.31 65.38 64.22 62.91 63.42 62.67 62.06 60.83 60.98 60.08 59.37 58.32 58.03 56.17 56.10
37.23 32.32 38.49 30.90 32.66 27.99 31.66 38.05 42.63 45.59 46.03 46.79 47.13 47.62 46.97 47.29 47.51 55.67 64.30 66.47 64.67 65.65 67.46 67.94 67.66 67.09 66.04 66.89 65.55 63.66 62.78 63.10 63.16 63.77 63.24 62.16 62.06 61.40 59.92 59.43 58.68 57.52 56.85 56.44 55.55 54.12 53.87 52.82 52.94
39.29 39.73 31.83 31.41 24.87 23.55 30.42 34.07 34.36 40.28 47.11 51.97 49.12 46.17 46.30 46.47 50.22 55.98 66.38 67.03 67.80 68.17 67.89 67.14 65.64 64.28 63.69 63.50 62.39 60.75 59.42 58.48 57.92 57.27 55.90 54.33 53.35 53.67 53.18 52.64 52.58 52.52 52.22 52.05 51.57 50.77 50.70 49.70 49.40
37.51 34.06 35.33 34.85 33.81 25.16 26.60 29.99 44.31 45.25 48.75 50.85 48.50 48.65 47.75 53.37 61.26 64.42 65.80 67.12 66.70 66.33 64.94 64.09 62.46 60.95 59.20 58.91 58.40 57.12 56.25 55.89 55.23 54.55 52.82 51.36 51.21 51.39 51.67 51.72 52.14 50.60 49.06 48.86 47.91 47.73 48.13 47.82 47.36
40.66 36.91 34.48 27.74 28.40 32.39 29.84 28.93 47.80 48.74 53.53 52.36 54.02 57.15 59.81 61.54 63.03 63.92 64.49 64.69 63.61 62.13 61.08 59.28 58.30 56.84 56.69 56.06 54.63 53.99 54.10 53.28 52.37 50.92 50.43 50.36 49.82 50.35 50.73 51.09 49.34 48.80 47.74 46.99 46.38 46.19 46.28 45.74 45.28

GFSSGP_sfc_wetblb_147.txt.gz
Wetbulb
61.80 56.72 53.62 50.03 43.73 39.63 36.56 42.07 47.51 48.63 50.71 55.05 58.41 60.36 60.47 61.44 59.51 55.08 67.03 73.03 72.82 74.24 76.95 77.46 77.91 78.17 77.79 77.09 76.53 76.23 75.95 75.88 75.98 75.73 75.78 75.76 76.04 76.23 76.43 76.53 76.74 76.47 75.29 75.21 74.64 73.92 73.91 73.56 73.50
56.43 55.05 49.75 45.59 40.17 35.61 39.91 44.27 46.27 50.63 52.96 53.95 54.11 60.18 60.36 60.24 65.22 64.96 64.88 72.80 73.54 75.15 76.71 76.78 78.04 77.84 77.62 76.96 76.48 76.07 75.78 75.73 75.78 75.73 75.59 75.59 75.76 75.88 76.08 76.46 76.72 76.54 75.11 74.74 74.59 74.16 73.82 73.44 73.63
58.74 54.79 44.45 41.54 37.30 40.04 43.19 45.92 48.86 51.22 52.66 53.10 53.48 64.81 65.06 63.47 66.60 65.88 70.08 72.90 74.11 75.31 76.51 76.86 77.81 77.74 77.36 76.68 76.27 76.17 75.73 75.53 75.68 75.88 75.68 75.46 75.48 75.95 76.40 76.63 76.66 75.96 75.37 74.97 74.70 74.02 73.52 73.05 73.31
51.00 47.23 45.83 37.76 36.89 42.35 46.87 46.97 49.43 50.29 52.55 53.71 53.50 52.83 65.78 68.74 67.57 68.33 73.05 73.61 73.57 75.34 76.11 77.36 77.66 77.28 77.08 76.63 76.48 76.32 75.78 75.43 75.63 75.73 75.78 75.43 75.43 75.79 76.08 76.35 76.28 76.09 75.27 74.84 74.52 73.88 73.11 72.68 72.81
47.11 41.89 35.48 34.33 37.66 41.92 46.58 50.07 48.90 48.86 50.65 52.07 52.32 52.13 62.14 67.47 71.90 72.79 72.67 73.28 73.24 74.71 75.91 77.04 77.31 77.08 76.88 76.69 76.28 76.27 75.80 75.40 75.60 75.63 75.50 75.63 75.57 75.43 75.64 76.04 76.33 75.94 75.13 74.85 74.46 73.79 73.44 73.10 72.67
42.05 38.84 30.31 34.15 37.68 44.68 47.73 47.66 46.64 46.46 48.37 49.07 49.18 57.42 64.13 70.00 71.29 72.08 72.78 72.08 73.50 74.31 76.05 76.59 77.39 77.00 76.55 76.50 76.40 76.01 75.66 75.42 75.27 75.37 75.60 75.99 75.75 75.58 75.61 75.65 75.48 75.44 75.09 74.54 73.79 73.42 73.24 73.39 73.02
39.35 34.57 31.19 30.53 35.92 39.74 44.49 48.07 46.69 45.68 46.53 48.51 51.00 53.50 63.68 68.61 71.44 72.47 71.32 72.29 73.21 75.31 75.49 76.08 76.33 76.27 76.67 76.26 75.91 75.70 75.55 75.21 74.99 74.98 75.08 75.35 75.82 75.77 75.62 75.48 75.39 75.18 75.05 74.68 74.18 73.56 73.36 73.21 72.99
43.36 38.18 33.04 34.16 37.11 38.10 43.41 45.87 46.81 46.07 45.78 50.47 52.68 48.51 59.38 67.63 72.46 71.79 71.41 72.05 73.12 74.27 75.03 75.03 75.43 75.09 74.97 75.07 76.16 75.75 75.60 75.39 74.76 74.76 74.81 75.01 75.39 75.58 75.46 74.49 74.69 74.84 74.71 74.61 74.33 73.67 73.44 73.19 73.05
46.11 36.44 34.48 36.93 36.77 39.14 39.05 39.33 44.58 48.10 47.57 49.47 49.18 52.25 65.87 71.17 71.96 70.80 71.47 71.74 71.92 73.28 73.87 74.40 74.38 74.45 74.54 74.64 75.11 75.62 75.67 75.48 75.04 74.86 74.75 73.75 71.94 72.93 73.93 73.93 74.83 74.70 74.80 74.75 74.42 74.03 73.63 73.44 73.15
41.71 38.05 38.44 40.89 41.23 39.48 40.25 39.14 44.84 47.80 47.99 49.63 50.71 52.13 60.48 71.09 70.22 69.77 69.79 69.74 70.28 71.33 72.59 73.22 73.63 73.12 73.62 74.43 74.01 73.41 73.82 73.25 72.80 72.78 72.53 71.27 70.72 70.93 72.81 73.19 74.62 74.62 74.58 74.60 74.39 73.99 73.61 73.02 69.79
40.70 40.48 44.83 43.35 45.14 45.15 43.67 43.37 46.56 46.41 45.83 48.79 49.45 50.50 64.31 69.69 69.46 69.32 69.61 69.86 69.78 71.05 71.97 72.57 72.66 72.28 72.87 72.99 72.90 73.07 73.32 72.95 72.56 71.94 70.86 70.00 70.22 70.88 71.06 70.27 71.93 71.67 73.47 71.22 72.42 71.25 70.81 69.38 68.55
35.87 42.85 46.21 45.33 47.78 46.90 45.41 47.08 46.47 47.20 48.37 51.39 52.68 51.58 67.73 68.69 68.73 69.23 69.31 69.43 69.94 70.45 71.38 72.40 71.90 72.13 72.90 72.87 72.01 72.08 71.88 71.64 71.44 71.47 70.34 68.87 67.69 68.17 68.44 68.12 68.58 69.71 70.04 69.57 69.03 68.71 68.87 68.78 68.68
37.35 39.93 42.64 46.92 48.32 47.59 48.83 47.94 47.55 48.17 50.91 53.24 52.89 51.77 66.31 68.99 69.02 70.23 70.60 70.31 69.98 69.72 70.95 71.68 72.19 72.17 72.60 71.87 71.74 71.74 71.15 70.98 70.68 70.34 69.80 68.17 66.68 67.06 67.90 67.79 68.60 69.30 68.89 68.94 67.67 67.02 67.23 67.04 66.96
40.94 41.62 43.23 44.23 42.31 44.52 47.07 47.97 49.17 49.71 51.54 51.42 50.45 49.39 58.90 68.99 69.19 69.72 70.01 69.55 69.43 69.61 70.29 71.27 71.34 70.82 71.73 70.33 70.36 70.45 69.96 70.07 69.88 69.70 70.15 68.84 66.73 66.93 67.34 66.82 67.94 68.31 68.62 68.12 67.88 66.73 66.42 66.22 66.09
41.66 37.74 41.19 42.21 40.99 42.08 43.99 42.06 44.27 50.13 51.74 51.09 50.06 49.01 51.81 64.78 68.28 68.61 70.04 69.43 69.40 69.15 69.76 69.71 67.71 69.99 70.07 68.95 69.63 69.85 69.52 69.79 69.16 69.45 69.97 69.27 67.43 66.72 67.04 66.79 66.68 67.68 68.11 67.85 67.72 67.34 66.60 66.44 66.74
39.88 37.96 34.14 40.65 41.96 43.09 43.90 37.35 45.26 47.83 47.97 48.00 48.94 48.66 48.45 54.60 60.85 64.04 69.78 69.65 68.94 68.42 68.38 68.66 69.33 68.92 68.18 67.79 68.45 68.89 69.08 69.18 68.65 68.89 69.31 69.51 67.14 66.26 66.40 67.38 66.65 67.86 67.94 67.84 67.47 67.14 66.24 65.47 64.86
35.67 30.45 32.30 35.97 41.30 42.02 41.85 39.28 45.06 47.15 46.72 46.36 47.09 47.52 47.76 46.40 55.64 62.33 67.57 69.01 67.81 67.90 67.87 68.16 68.57 68.24 68.16 67.41 67.24 67.28 67.92 67.85 67.98 67.98 68.46 69.28 68.79 67.38 67.15 69.26 68.61 69.72 69.15 68.05 67.26 66.20 66.13 65.48 66.04
31.49 30.53 34.01 34.52 39.07 41.15 40.37 40.00 43.90 45.53 46.78 46.42 46.66 46.92 46.63 47.15 61.83 66.10 67.93 68.09 67.84 67.96 67.89 68.17 68.25 67.75 67.43 69.00 68.55 67.81 68.62 68.47 69.36 69.12 69.33 69.51 69.46 69.26 69.63 70.50 70.60 69.76 68.19 68.01 67.27 66.07 66.06 65.52 64.89
37.37 34.55 33.44 37.81 42.37 39.33 39.26 40.70 43.19 44.91 45.15 44.93 45.64 45.99 45.76 46.57 57.48 66.71 67.54 67.48 67.29 67.10 66.88 67.27 65.02 64.75 66.15 68.46 69.39 67.54 67.05 68.33 69.29 69.83 70.72 70.09 69.81 70.73 70.27 69.90 69.52 68.98 67.86 67.47 66.98 65.70 64.35 63.14 63.44
36.81 32.76 32.46 37.29 41.99 40.49 39.15 39.70 43.19 44.34 44.83 45.64 45.92 45.82 46.21 45.68 54.45 65.43 67.32 66.77 66.72 66.50 66.19 66.19 65.39 64.41 65.40 66.67 68.42 69.39 68.64 70.45 70.62 71.57 72.02 71.11 70.77 70.92 70.77 69.90 68.87 69.05 68.40 67.56 65.68 64.35 62.66 62.27 62.06
34.92 34.59 33.62 33.77 39.94 42.62 39.91 37.27 39.92 43.87 45.74 46.33 46.61 47.21 46.94 46.08 47.46 63.18 64.95 65.82 66.46 66.14 65.94 65.62 65.69 64.68 64.59 64.93 68.06 68.35 69.12 68.96 68.89 69.57 70.16 70.72 71.33 71.66 70.64 69.18 68.76 68.58 67.88 66.59 65.47 64.48 62.85 61.18 61.23
29.98 38.09 38.57 37.79 36.65 30.67 39.43 27.84 36.64 41.39 43.70 45.59 46.14 44.89 46.33 46.48 47.06 59.77 63.35 63.78 64.86 65.51 66.08 65.69 65.35 63.63 63.28 64.94 66.37 65.95 66.12 66.87 67.45 68.26 69.50 70.66 71.22 71.37 70.43 69.59 67.83 67.99 67.04 65.56 64.64 64.77 62.78 61.23 59.05
33.22 38.70 36.74 37.32 33.79 31.42 34.86 30.41 34.19 39.46 40.43 43.24 45.81 47.09 44.87 46.30 46.94 50.99 60.71 62.97 63.87 64.88 64.18 64.49 64.13 63.41 64.20 65.70 66.00 66.24 65.97 67.38 68.33 68.55 69.41 69.10 68.73 69.23 69.43 67.56 66.44 66.12 66.47 65.24 64.77 63.53 62.40 61.29 60.53
40.63 37.50 36.44 34.45 34.33 28.10 32.39 32.50 30.96 35.63 41.00 44.06 45.90 45.35 45.45 46.02 46.42 47.60 59.03 61.53 62.47 63.30 63.14 63.63 63.38 63.62 64.28 65.54 66.84 65.75 66.69 67.04 67.22 67.06 67.31 66.97 67.33 66.70 66.17 66.42 66.19 64.77 64.24 63.63 62.04 60.33 60.05 59.78 59.90
37.97 31.84 23.61 23.83 24.33 24.96 33.41 31.88 34.41 39.81 42.59 44.58 45.77 44.14 45.39 46.41 46.26 48.61 62.35 64.47 63.52 62.86 62.36 62.78 63.60 63.90 66.55 66.53 66.15 66.64 63.45 65.65 66.59 64.88 67.17 65.26 65.45 64.07 62.40 62.85 62.01 61.06 60.54 60.39 60.30 58.82 57.01 55.35 55.15
34.21 32.16 24.11 20.44 22.94 25.00 34.26 29.23 34.61 44.05 46.31 45.87 46.70 45.50 45.82 45.52 45.89 48.41 64.33 66.49 67.20 66.92 65.28 64.99 66.13 67.08 67.22 67.36 66.79 66.11 66.23 67.72 65.98 65.55 66.43 64.48 62.75 61.73 61.45 60.08 58.94 58.44 57.94 56.92 55.41 53.48 52.92 51.98 52.03
34.26 31.71 35.30 29.03 32.08 24.88 29.09 35.74 40.50 42.85 43.85 44.70 45.85 45.30 46.12 46.67 45.46 52.27 63.67 65.36 66.38 66.06 67.59 68.32 67.47 66.00 65.44 63.68 62.98 63.02 65.27 65.91 65.36 63.94 62.84 61.09 59.57 57.04 55.72 54.58 53.78 53.39 52.97 51.69 50.83 49.75 49.25 48.86 48.52
36.87 38.91 30.00 32.45 22.51 22.54 28.08 32.37 33.34 37.43 41.09 43.30 45.75 43.48 44.38 44.62 46.05 59.03 63.97 63.13 62.57 65.57 66.23 65.70 64.63 62.54 61.39 60.02 59.29 59.19 58.50 58.93 57.36 56.29 55.61 53.92 54.07 52.99 52.66 51.79 50.33 49.22 48.84 47.99 47.61 47.05 46.89 46.24 46.10
35.62 33.04 33.23 35.26 30.82 23.64 25.59 28.34 40.50 41.47 44.02 46.23 47.21 44.15 42.53 44.76 58.32 63.09 63.45 64.43 66.13 65.41 64.03 62.04 60.14 58.42 57.38 57.23 57.15 55.42 54.67 54.47 53.73 53.49 53.06 52.09 51.85 51.55 50.55 49.31 48.37 47.46 46.69 46.17 45.22 45.01 45.52 45.11 44.23
39.66 35.65 33.77 27.12 26.70 30.41 26.98 27.77 45.85 46.97 47.60 48.41 50.20 46.95 49.43 58.05 63.10 63.96 64.73 64.25 63.03 61.50 59.86 58.02 56.62 55.26 55.08 54.43 53.62 53.44 52.83 52.00 51.05 50.99 50.92 50.82 49.45 49.18 48.43 47.94 47.18 46.34 45.37 44.47 44.15 44.04 44.26 43.83 44.02